[[{"header":{"parameterUnit":"m.s-1","parameterCategory":1,"la1":30.6,"la2":29.2853,"lo1":-89.7004,"lo2":-87.6739,"dy":0.0162,"dx":0.0183,"nx":112,"ny":82,"refTime":"2026-05-16T12:00:00:Z","depth":0,"parameterNumber":2,"parameterNumberName":"U-component_of_WINDS"},"data":[0.0,0.0,0.0,0.0,0.0,0.0,0.0,0.0,0.0,0.0,0.0,0.0,0.0,0.0,0.0,0.0,0.0,0.0,0.0,0.0,0.0,0.0,0.0,0.0,0.0,0.0,0.0,0.0,0.0,0.0,0.0,0.0,0.0,0.0,0.0,0.0,0.0,0.0,0.0,0.0,0.0,0.0,0.0,0.0,0.0,0.0,0.0,0.0,0.0,0.0,0.0,0.0,0.0,0.0,0.0,0.0,0.0,0.0,0.0,0.0,0.0,0.0,0.0,0.0,0.0,0.0,0.0,0.0,0.0,0.0,0.0,0.0,0.0,0.0,0.0,0.0,0.0,0.0,0.0,0.0,0.0,0.0,0.0,0.0,0.0,0.0,0.0,0.0,0.0,0.0,0.0,-0.2293,-0.3396,-0.3995,-0.3708,-0.3743,-0.3815,-0.3927,0.0,0.0,0.0,0.0,0.0,0.0,0.0,0.0,0.0,0.0,0.0,0.0,0.0,0.0,0.0,0.0,0.0,0.0,0.0,0.0,0.0,0.0,0.0,0.0,0.0,0.0,0.0,0.0,0.0,0.0,0.0,0.0,0.0,0.0,0.0,0.0,0.0,0.0,0.0,0.0,0.0,0.0,0.0,0.0,0.0,0.0,0.0,0.0,0.0,0.0,0.0,0.0,0.0,0.0,0.0,0.0,0.0,0.0,0.0,0.0,0.0,0.0,0.0,0.0,0.0,0.0,0.0,0.0,0.0,0.0,0.0,0.0,0.0,0.0,0.0,0.0,0.0,0.0,0.0,0.0,0.0,0.0,0.0,0.0,0.0,0.0,0.0,0.0,0.0,0.0,0.0,0.0,0.0,0.0,0.0,0.0,0.0,0.0,0.0,0.0,0.0,0.0,0.0,0.0,-0.2465,-0.3663,-0.3971,-0.3611,-0.2411,-0.2308,-0.2817,-0.3996,0.0,0.0,0.0,0.0,0.0,0.0,0.0,0.0,0.0,0.0,0.0,0.0,0.0,0.0,0.0,0.0,0.0,0.0,0.0,0.0,0.0,0.0,0.0,0.0,0.0,0.0,0.0,0.0,0.0,0.0,0.0,0.0,0.0,0.0,0.0,0.0,0.0,0.0,0.0,0.0,0.0,0.0,0.0,0.0,0.0,0.0,0.0,0.0,0.0,0.0,0.0,0.0,0.0,0.0,0.0,0.0,0.0,0.0,0.0,0.0,0.0,0.0,0.0,0.0,0.0,0.0,0.0,0.0,0.0,0.0,0.0,0.0,0.0,0.0,0.0,0.0,0.0,0.0,0.0,0.0,0.0,0.0,0.0,0.0,0.0,0.0,0.0,0.0,0.0,0.0,0.0,0.0,0.0,0.0,0.0,0.0,0.0,0.0,0.0,0.0,0.0,0.0,0.0,-0.1201,-0.2582,-0.3962,-0.3411,-0.3006,-0.3134,-0.2435,-0.2603,-0.4017,-0.4015,0.0,0.0,0.0,0.0,0.0,0.0,0.0,0.0,0.0,0.0,0.0,0.0,0.0,0.0,0.0,0.0,0.0,0.0,0.0,0.0,0.0,0.0,0.0,0.0,0.0,0.0,0.0,0.0,0.0,0.0,0.0,0.0,0.0,0.0,0.0,0.0,0.0,0.0,0.0,0.0,0.0,0.0,0.0,0.0,0.0,0.0,0.0,0.0,0.0,0.0,0.0,0.0,0.0,0.0,0.0,0.0,0.0,0.0,0.0,0.0,0.0,0.0,0.0,0.0,0.0,0.0,0.0,0.0,0.0,0.0,0.0,0.0,0.0,0.0,0.0,0.0,0.0,0.0,0.0,0.0,0.0,0.0,0.0,0.0,0.0,0.0,0.0,0.0,0.0,0.0,0.0,0.0,0.0,0.0,0.0,0.0,0.0,0.0,0.0,0.0,0.0,0.0,-0.1245,-0.2652,-0.4,-0.2857,-0.2312,-0.3063,-0.2147,-0.1991,-0.3063,-0.3124,0.0,0.0,0.0,0.0,0.0,0.0,0.0,0.0,0.0,0.0,0.0,0.0,0.0,0.0,0.0,0.0,0.0,0.0,0.0,0.0,0.0,0.0,0.0,0.0,0.0,0.0,0.0,0.0,0.0,0.0,0.0,0.0,0.0,0.0,0.0,0.0,0.0,0.0,0.0,0.0,0.0,0.0,0.0,0.0,0.0,0.0,0.0,0.0,0.0,0.0,0.0,0.0,0.0,0.0,0.0,0.0,0.0,0.0,0.0,0.0,0.0,0.0,0.0,0.0,0.0,0.0,0.0,0.0,0.0,0.0,0.0,0.0,0.0,0.0,0.0,0.0,0.0,0.0,0.0,0.0,0.0,0.0,0.0,0.0,0.0,0.0,0.0,0.0,0.0,0.0,0.0,0.0,0.0,0.0,0.0,0.0,0.0,0.0,0.0,0.0,0.0,0.0,-0.1292,-0.2725,-0.4139,-0.2919,-0.1541,-0.0384,-0.0199,-0.0184,-0.0277,-0.0292,0.0,0.0,0.0,0.0,0.0,0.0,0.0,0.0,0.0,0.0,0.0,0.0,0.0,0.0,0.0,0.0,0.0,0.0,0.0,0.0,0.0,0.0,0.0,0.0,0.0,0.0,0.0,0.0,0.0,0.0,0.0,0.0,0.0,0.0,0.0,0.0,0.0,0.0,0.0,0.0,0.0,0.0,0.0,0.0,0.0,0.0,0.0,0.0,0.0,0.0,0.0,0.0,0.0,0.0,0.0,0.0,0.0,0.0,0.0,0.0,0.0,0.0,0.0,0.0,0.0,0.0,0.0,0.0,0.0,0.0,0.0,0.0,0.0,0.0,0.0,0.0,0.0,0.0,0.0,0.0,0.0,0.0,0.0,0.0,0.0,0.0,0.0,0.0,0.0,0.0,0.0,0.0,0.0,0.0,0.0,0.0,0.0,0.0,0.0,0.0,0.0,0.0,-0.132,-0.2825,0.0,-0.301,-0.1508,-0.0111,0.0,0.0,0.0,0.0,0.0,0.0,0.0,0.0,0.0,0.0,0.0,0.0,0.0,0.0,0.0,0.0,0.0,0.0,0.0,0.0,0.0,0.0,0.0,0.0,0.0,0.0,0.0,0.0,0.0,0.0,0.0,0.0,0.0,0.0,0.0,0.0,0.0,0.0,0.0,0.0,0.0,0.0,0.0,0.0,0.0,0.0,0.0,0.0,0.0,0.0,0.0,0.0,0.0,0.0,0.0,0.0,0.0,0.0,0.0,0.0,0.0,0.0,0.0,0.0,0.0,0.0,0.0,0.0,0.0,0.0,0.0,0.0,0.0,0.0,0.0,0.0,0.0,0.0,0.0,0.0,0.0,0.0,0.0,0.0,0.0,0.0,0.0,0.0,0.0,0.0,0.0,0.0,0.0,0.0,0.0,0.0,0.0,0.0,0.0,0.0,0.0,0.0,0.0,0.0,0.0,0.0,-0.1369,-0.2917,0.0,-0.3569,-0.2113,-0.017,0.0,0.0,0.0,0.0,0.0,0.0,0.0,0.0,0.0,0.0,0.0,0.0,0.0,0.0,0.0,0.0,0.0,0.0,0.0,0.0,0.0,0.0,0.0,0.0,0.0,0.0,0.0,0.0,0.0,0.0,0.0,0.0,0.0,0.0,0.0,0.0,0.0,0.0,0.0,0.0,0.0,0.0,0.0,0.0,0.0,0.0,0.0,0.0,0.0,0.0,0.0,0.0,0.0,0.0,0.0,0.0,0.0,0.0,0.0,0.0,0.0,0.0,0.0,0.0,0.0,0.0,0.0,0.0,0.0,0.0,0.0,0.0,0.0,0.0,0.0,0.0,0.0,0.0,0.0,0.0,0.0,0.0,0.0,0.0,0.0,0.0,0.0,0.0,0.0,0.0,0.0,0.0,0.0,0.0,0.0,0.0,0.0,0.0,0.0,0.0,0.0,0.0,0.0,0.0,0.0,-0.0055,-0.1424,-0.3011,-0.4625,-0.4679,-0.3359,-0.0321,-0.0018,0.0,0.0,0.0,0.0,0.0,0.0,0.0,0.0,0.0,0.0,0.0,0.0,0.0,0.0,0.0,0.0,0.0,0.0,0.0,0.0,0.0,0.0,0.0,0.0,0.0,0.0,0.0,0.0,0.0,0.0,0.0,0.0,0.0,0.0,0.0,0.0,0.0,0.0,0.0,0.0,0.0,0.0,0.0,0.0,0.0,0.0,0.0,0.0,0.0,0.0,0.0,0.0,0.0,0.0,0.0,0.0,0.0,0.0,0.0,0.0,0.0,0.0,0.0,0.0,0.0,0.0,0.0,0.0,0.0,0.0,0.0,0.0,0.0,0.0,0.0,0.0,0.0,0.0,0.0,0.0,0.0,0.0,0.0,0.0,0.0,0.0,0.0,0.0,0.0,0.0,0.0,0.0,0.0,0.0,0.0,0.0,0.0,0.0,0.0,0.0,0.0,0.0,0.0,0.0,0.0,-0.2814,-0.3022,-0.462,-0.4763,-0.4353,-0.3404,-0.1286,0.0,0.0,0.0,0.0,0.0,0.0,0.0,0.0,0.0,0.0,0.0,0.0,0.0,0.0,0.0,0.0,0.0,0.0,0.0,0.0,0.0,0.0,0.0,0.0,0.0,0.0,0.0,0.0,0.0,0.0,0.0,0.0,0.0,0.0,0.0,0.0,0.0,0.0,0.0,0.0,0.0,0.0,0.0,0.0,0.0,0.0,0.0,0.0,0.0,0.0,0.0,0.0,0.0,0.0,0.0,0.0,0.0,0.0,0.0,0.0,0.0,0.0,0.0,0.0,0.0,0.0,0.0,0.0,0.0,0.0,0.0,0.0,0.0,0.0,0.0,0.0,0.0,0.0,0.0,0.0,0.0,0.0,0.0,0.0,0.0,0.0,0.0,0.0,0.0,0.0,0.0,0.0,0.0,0.0,0.0,0.0,0.0,0.0,0.0,0.0,0.0,0.0,0.0,0.0,-0.4391,-0.3957,-0.3735,-0.4734,-0.4834,-0.4823,-0.479,-0.2456,-0.0715,-0.0038,0.0,0.0,0.0,0.0,0.0,0.0,0.0,0.0,0.0,0.0,0.0,0.0,0.0,0.0,0.0,0.0,0.0,0.0,0.0,0.0,0.0,0.0,0.0,0.0,0.0,0.0,0.0,0.0,0.0,0.0,0.0,0.0,0.0,0.0,0.0,0.0,0.0,0.0,0.0,0.0,0.0,0.0,0.0,0.0,0.0,0.0,0.0,0.0,0.0,0.0,0.0,0.0,0.0,0.0,0.0,0.0,0.0,0.0,0.0,0.0,0.0,0.0,0.0,0.0,0.0,0.0,0.0,0.0,0.0,0.0,0.0,0.0,0.0,0.0,0.0,0.0,0.0,0.0,0.0,0.0,0.0,0.0,0.0,0.0,0.0,0.0,0.0,0.0,0.0,0.0,0.0,0.0,0.0,0.0,0.0,0.0,0.0,0.0,0.0,0.0,0.0,0.0,-0.4189,-0.4724,-0.4827,-0.489,-0.489,-0.4892,-0.489,-0.356,-0.1936,-0.0113,0.0,0.0,0.0,0.0,0.0,0.0,0.0,0.0,0.0,0.0,0.0,0.0,0.0,0.0,0.0,0.0,0.0,0.0,0.0,0.0,0.0,0.0,0.0,0.0,0.0,0.0,0.0,0.0,0.0,0.0,0.0,0.0,0.0,0.0,0.0,0.0,0.0,0.0,0.0,0.0,0.0,0.0,0.0,0.0,0.0,0.0,0.0,0.0,0.0,0.0,0.0,0.0,0.0,0.0,0.0,0.0,0.0,0.0,0.0,0.0,-0.1277,0.0,0.0,0.0,0.0,0.0,0.0,0.0,0.0,0.0,0.0,0.0,0.0,0.0,0.0,0.0,0.0,0.0,0.0,0.0,0.0,0.0,0.0,0.0,0.0,0.0,0.0,0.0,0.0,0.0,0.0,0.0,0.0,0.0,0.0,0.0,0.0,0.0,0.0,0.0,0.0,0.0,-0.2657,-0.4072,-0.489,-0.4893,-0.49,-0.4892,-0.489,-0.4591,-0.3137,-0.0188,0.0,0.0,0.0,0.0,0.0,0.0,0.0,0.0,0.0,0.0,0.0,0.0,0.0,0.0,0.0,0.0,0.0,0.0,0.0,0.0,0.0,0.0,0.0,0.0,0.0,0.0,0.0,0.0,0.0,0.0,0.0,0.0,0.0,0.0,0.0,0.0,0.0,0.0,0.0,0.0,0.0,0.0,0.0,0.0,0.0,0.0,0.0,0.0,0.0,0.0,0.0,0.0,0.0,0.0,0.0,0.0,0.0,0.0,0.0,0.0,0.0,-0.2455,0.0,0.0,0.0,0.0,0.0,0.0,0.0,0.0,0.0,0.0,0.0,0.0,0.0,0.0,0.0,0.0,0.0,0.0,0.0,0.0,0.0,0.0,0.0,0.0,0.0,0.0,0.0,0.0,0.0,0.0,0.0,0.0,0.0,0.0,0.0,0.0,0.0,0.0,0.0,0.0,-0.2445,-0.3877,-0.4893,-0.4896,-0.4896,-0.4902,-0.4894,-0.4198,-0.3344,-0.2403,-0.0864,0.0,0.0,0.0,0.0,0.0,0.0,0.0,0.0,0.0,0.0,0.0,0.0,0.0,0.0,0.0,0.0,0.0,0.0,0.0,0.0,0.0,0.0,0.0,0.0,0.0,0.0,0.0,0.0,0.0,0.0,0.0,0.0,0.0,0.0,0.0,0.0,0.0,0.0,0.0,0.0,0.0,0.0,0.0,0.0,0.0,0.0,0.0,0.0,0.0,0.0,0.0,0.0,0.0,0.0,-0.5972,-0.5969,-0.5966,-0.7504,-1.0025,-0.72,-0.5946,-0.5846,0.0,0.0,0.0,0.0,0.0,0.0,0.0,0.0,0.0,0.0,0.0,0.0,0.0,0.0,0.0,0.0,0.0,0.0,0.0,0.0,0.0,0.0,0.0,0.0,0.0,-0.5092,-0.4331,0.0,0.0,0.0,0.0,0.0,0.0,0.0,0.0,0.0,0.0,0.0,0.0,-0.3056,-0.4085,-0.4899,-0.4897,-0.4919,-0.4919,-0.4897,-0.3431,-0.2951,-0.398,-0.1502,0.0,0.0,0.0,0.0,0.0,0.0,0.0,0.0,0.0,0.0,0.0,0.0,0.0,0.0,0.0,0.0,0.0,0.0,0.0,0.0,0.0,0.0,0.0,0.0,0.0,0.0,0.0,0.0,0.0,0.0,0.0,0.0,0.0,-0.1093,-0.4079,0.0,0.0,0.0,0.0,0.0,0.0,0.0,0.0,0.0,0.0,0.0,0.0,0.0,0.0,-0.895,-0.9259,-0.9414,-0.9437,-0.944,-0.9444,-0.9448,-0.9448,-0.9682,-1.009,-0.9636,0.0,-0.9202,-0.6299,0.0,0.0,0.0,0.0,0.0,0.0,0.0,0.0,0.0,0.0,0.0,0.0,0.0,0.0,0.0,0.0,0.0,0.0,0.0,0.0,0.0,0.0,-0.5103,-0.5103,-0.5103,-0.4985,0.0,-0.4432,-0.454,-0.4947,0.0,0.0,0.0,0.0,0.0,0.0,0.0,0.0,-0.443,-0.4775,-0.4894,-0.4897,-0.496,-0.496,-0.4897,-0.3419,-0.1975,-0.0733,-0.0244,0.0,0.0,0.0,0.0,0.0,0.0,0.0,0.0,0.0,0.0,0.0,0.0,0.0,0.0,0.0,0.0,0.0,0.0,0.0,0.0,0.0,0.0,0.0,0.0,0.0,0.0,0.0,0.0,0.0,0.0,0.0,0.0,-0.1655,-0.3415,-0.4921,-0.3769,-0.2871,0.0,0.0,0.0,0.0,0.0,0.0,0.0,0.0,0.0,-0.8022,-0.8031,-0.8702,-1.0135,-1.0154,-1.0154,-1.015,-1.0125,-1.0094,-1.0094,-1.0094,-1.0094,-1.0094,-1.0094,-1.0105,-0.9978,-0.8524,-0.7904,-0.7915,0.0,0.0,0.0,0.0,0.0,-0.7898,-0.7898,0.0,0.0,0.0,0.0,0.0,0.0,0.0,0.0,0.0,0.0,0.0,0.0,0.0,0.0,-0.7968,-0.7968,-0.7968,-0.7964,-0.7964,-0.7399,0.0,-0.4998,-0.4924,-0.4899,0.0,0.0,0.0,0.0,0.0,-0.4867,-0.495,-0.4947,-0.4956,-0.4986,-0.4992,-0.4954,-0.3452,-0.1787,-0.0113,0.0,0.0,0.0,0.0,0.0,0.0,0.0,0.0,0.0,0.0,0.0,0.0,0.0,0.0,0.0,0.0,0.0,0.0,0.0,0.0,0.0,0.0,0.0,0.0,0.0,0.0,0.0,0.0,0.0,0.0,0.0,0.0,0.0,-0.294,-0.5438,-0.6325,-0.6422,-0.6073,0.0,0.0,0.0,0.0,0.0,0.0,-0.6426,-0.8887,-1.0293,-1.0308,-1.0299,-1.0682,-1.1496,-1.1492,-1.1492,-1.1492,-1.1443,-1.1419,-1.1402,-1.1402,-1.1402,-1.1402,-1.1402,-1.1402,-1.1344,-1.046,-1.0094,-1.0102,-1.0166,-1.023,-1.0278,-1.0281,-1.0303,-1.0305,-1.0305,-1.029,-1.0293,-1.0308,0.0,-1.0301,-1.0292,0.0,0.0,0.0,0.0,-1.0224,-1.0224,0.0,-1.0224,-1.0224,-1.0228,-1.023,-1.0226,-0.9989,-0.884,0.0,-0.5322,-0.5394,-0.501,0.0,0.0,0.0,0.0,-0.5,-0.4995,-0.4995,-0.5002,-0.4995,-0.5006,-0.4997,-0.5,-0.3866,-0.2248,-0.0132,0.0,0.0,0.0,0.0,0.0,0.0,0.0,0.0,0.0,0.0,0.0,0.0,0.0,0.0,0.0,0.0,0.0,0.0,0.0,0.0,0.0,0.0,0.0,0.0,0.0,0.0,0.0,0.0,0.0,0.0,0.0,0.0,0.0,0.0,0.0,-0.9646,-1.0046,0.0,0.0,0.0,0.0,-1.0039,-1.0039,-1.0039,-1.0039,-1.0195,-1.0293,-1.0293,-1.0309,-1.1836,-1.5018,-1.5033,-1.5033,-1.5033,-1.5033,-1.5004,-1.4939,-1.4939,-1.4939,-1.4939,-1.4939,-1.4939,-1.4689,-1.144,-1.0094,-1.0117,-1.0164,-1.0197,-1.0202,-1.0282,-1.0297,-1.0305,-1.0305,-1.029,-1.0293,-1.0308,-1.0298,-1.0308,-1.0308,-1.0172,0.0,0.0,-1.0116,-1.0287,-1.0287,-1.0287,-1.0287,-1.0287,-1.0296,-1.0281,-1.029,-0.9387,-0.7899,0.0,-0.5926,-0.6292,-0.5261,0.0,-0.5001,-0.4995,-0.5005,-0.4991,-0.4997,-0.4995,-0.4992,-0.4995,-0.4995,-0.5,-0.4996,-0.4926,-0.3475,-0.0209,0.0,0.0,0.0,0.0,0.0,0.0,0.0,0.0,0.0,0.0,0.0,0.0,0.0,0.0,0.0,0.0,0.0,0.0,0.0,0.0,0.0,0.0,0.0,0.0,0.0,0.0,0.0,0.0,0.0,0.0,0.0,0.0,0.0,0.0,0.0,-1.0092,-1.0266,0.0,0.0,-0.957,-1.0292,-1.0293,-1.0293,-1.0293,-1.0293,-1.0293,-1.1309,-1.3516,-1.3571,-1.4159,-1.5342,-1.5362,-1.5362,-1.5362,-1.5319,-1.5299,-1.5263,-1.5263,-1.5263,-1.5259,-1.527,-1.5234,-1.5112,-1.3882,-1.3382,-1.3176,-1.0999,-1.1474,-1.3436,-1.3494,-1.3541,-1.3585,-1.3585,-1.3572,-1.3222,-1.1011,-1.0303,-1.0299,-1.0299,-1.0299,-1.0299,-1.0274,-1.0276,-1.0299,-1.0299,-1.0299,-1.0299,-1.0299,-1.0303,-1.0304,-1.0301,-0.9962,-0.9404,-0.8547,-0.7812,-0.7046,-0.6105,-0.5924,-0.5704,-0.514,-0.5068,-0.5055,-0.507,-0.5034,-0.5003,-0.5003,-0.4996,-0.4991,-0.4998,-0.4993,-0.4021,-0.1761,-0.0594,0.0,0.0,0.0,0.0,0.0,0.0,0.0,0.0,0.0,0.0,0.0,0.0,0.0,0.0,0.0,0.0,0.0,0.0,0.0,0.0,0.0,0.0,0.0,0.0,0.0,0.0,0.0,0.0,0.0,0.0,0.0,0.0,0.0,-1.0193,-1.0205,-1.1266,-1.1998,-1.199,-1.2016,-1.2028,-1.2012,-1.2012,-1.2012,-1.2012,-1.2012,-1.3066,-1.5332,-1.5409,-1.5403,-1.5392,-1.5392,-1.5392,-1.5392,-1.5342,-1.5331,-1.5321,-1.5321,-1.5321,-1.534,-1.5315,-1.527,-1.5189,-1.5189,-1.5189,-1.4959,-1.2709,-1.3209,-1.5207,-1.5278,-1.5335,-1.5239,-1.4075,-1.4433,-1.5038,-1.2767,-1.2023,-1.2023,-1.2023,-1.2023,-1.2023,-1.2023,-1.1184,-1.0305,-1.0305,-1.0303,-1.0301,-1.0301,-1.0301,-1.0301,-1.0301,-1.0297,-1.0287,-1.0207,-0.9302,-0.8172,-0.7033,-0.6586,-0.6196,-0.5632,-0.5289,-0.5103,-0.51,-0.5064,-0.5029,-0.5025,-0.5012,-0.5005,-0.5005,-0.5001,-0.4275,-0.2604,-0.0919,0.0,0.0,0.0,0.0,0.0,0.0,0.0,0.0,0.0,0.0,0.0,0.0,0.0,0.0,0.0,0.0,0.0,0.0,0.0,0.0,0.0,0.0,0.0,0.0,0.0,0.0,0.0,0.0,0.0,0.0,0.0,-1.0286,-1.023,-1.0246,-1.036,-1.3299,-1.5289,-1.5289,-1.5359,-1.5391,-1.539,-1.5391,-1.5391,-1.5391,-1.5391,-1.5391,-1.5391,-1.5391,-1.5391,-1.5391,-1.5391,-1.5391,-1.5391,-1.5391,-1.5409,-1.5402,-1.5402,-1.5402,-1.5401,-1.5338,-1.5259,-1.5189,-1.5189,-1.5189,-1.5189,-1.5189,-1.5189,-1.5201,-1.5284,-1.5338,-1.4929,-1.1618,-1.2635,-1.5402,-1.5402,-1.5402,-1.5402,-1.5402,-1.5402,-1.5402,-1.5402,-1.3019,-1.0461,-1.0461,-1.0376,-1.0308,-1.0307,-1.0307,-1.0307,-1.0307,-1.0295,-1.0275,-1.0219,-1.0205,-0.9693,-0.805,-0.706,-0.6456,-0.6417,-0.5672,0.0,-0.5111,-0.5101,-0.5091,-0.5099,-0.5047,-0.5,-0.5,-0.5005,-0.4275,-0.2604,-0.0919,0.0,0.0,0.0,0.0,0.0,0.0,0.0,0.0,0.0,0.0,0.0,0.0,0.0,0.0,0.0,0.0,0.0,0.0,0.0,0.0,0.0,0.0,0.0,0.0,0.0,0.0,0.0,0.0,0.0,0.0,-1.0217,-1.0224,-1.0219,-1.1135,-1.3661,-1.4807,-1.5368,-1.5368,-1.5381,-1.5403,-1.5391,-1.5391,-1.5391,-1.5391,-1.5391,-1.5391,-1.5391,-1.5391,-1.5391,-1.5391,-1.5391,-1.5391,-1.5391,-1.5408,-1.5405,-1.5402,-1.5402,-1.5402,-1.5401,-1.5338,-1.5259,-1.5189,-1.5189,-1.5189,-1.5189,-1.5189,-1.5189,-1.5201,-1.5284,-1.5338,-1.526,-1.4314,-1.4608,-1.5402,-1.5402,-1.5402,-1.5402,-1.5402,-1.5402,-1.5402,-1.5402,-1.4719,-1.3996,-1.3996,-1.2154,-1.0286,-1.025,-1.0226,-1.0226,-1.0226,-1.0228,-1.0228,-1.0202,-1.0205,-1.0053,-0.9585,-0.8828,-0.7861,-0.6598,0.0,0.0,-0.5174,-0.5109,-0.5101,-0.5093,-0.5077,-0.5082,-0.5072,-0.5031,-0.4275,0.0,-0.0919,0.0,0.0,0.0,0.0,0.0,0.0,0.0,0.0,0.0,0.0,0.0,0.0,0.0,0.0,0.0,0.0,0.0,0.0,0.0,0.0,0.0,0.0,0.0,0.0,0.0,0.0,0.0,0.0,0.0,-1.1456,-1.2334,-1.2334,-1.2365,-1.3128,-1.5161,-1.5397,-1.5397,-1.5397,-1.5404,-1.5409,-1.5391,-1.5391,-1.6035,-1.75,-1.7578,-1.7578,-1.7578,-1.6152,-1.5391,-1.5391,-1.5391,-1.6132,-1.7575,-1.7571,-1.7588,-1.7588,-1.7588,-1.7588,0.0,-1.5963,-1.5259,-1.5189,-1.5189,-1.5189,0.0,0.0,0.0,0.0,0.0,-1.5327,-1.5363,-1.5383,-1.539,-1.539,-1.539,-1.5409,-1.5407,-1.5403,-1.5402,-1.5402,-1.5402,-1.5402,-1.5402,-1.5402,-1.3929,-1.2078,-1.0585,-1.023,-1.023,-1.023,-1.023,-1.023,-1.023,0.0,0.0,-1.0243,-0.956,-0.8528,-0.7149,-0.6627,-0.6083,0.0,-0.5101,-0.5095,-0.5107,-0.5091,-0.5096,-0.5105,-0.5062,0.0,0.0,0.0,0.0,0.0,0.0,0.0,0.0,0.0,0.0,0.0,0.0,0.0,0.0,0.0,0.0,0.0,0.0,0.0,0.0,0.0,0.0,0.0,0.0,0.0,0.0,0.0,0.0,0.0,0.0,0.0,0.0,-1.3364,-1.5313,-1.5313,-1.5354,-1.5385,-1.541,-1.539,-1.5391,-1.5391,-1.5391,-1.5391,-1.5391,-1.5391,-1.6914,-2.041,0.0,0.0,0.0,0.0,-1.5976,-1.5976,-1.5976,-1.7535,-2.0588,-2.0588,-2.0588,-2.0588,-2.0588,-2.0588,-2.0391,-1.6833,-1.5255,-1.5189,-1.5189,-1.5189,-1.5189,-1.5189,-1.5189,-1.522,-1.5279,-1.5287,0.0,0.0,0.0,0.0,-1.5395,-1.5384,-1.539,-1.5406,-1.5403,-1.5402,-1.5402,-1.5402,-1.5402,-1.5402,-1.5391,-1.4637,-1.1598,-1.0584,-1.029,-1.029,-1.029,-1.029,-1.029,-1.0297,-1.0301,-1.0301,-0.9652,-0.8849,-0.7972,-0.7099,0.0,-0.5363,-0.5165,-0.5101,-0.5096,0.0,0.0,-0.51,-0.5099,-0.4433,-0.2899,-0.1037,0.0,0.0,0.0,0.0,0.0,0.0,-0.0191,-0.0572,-0.0572,-0.0458,-0.0268,-0.0096,0.0,0.0,0.0,0.0,0.0,0.0,0.0,0.0,0.0,0.0,0.0,0.0,0.0,0.0,0.0,0.0,-1.397,-1.4959,-1.5382,-1.5382,-1.5349,-1.534,-1.5382,-1.5405,-1.5407,-1.5391,-1.5391,-1.5391,-1.5391,-1.5408,-1.6928,-2.0402,-2.0597,0.0,-2.0597,-1.9881,-1.9519,-1.9519,-1.9519,-1.9854,-2.0515,0.0,0.0,-2.0515,-2.0515,-2.0515,-2.032,-1.6816,-1.526,-1.5189,-1.5189,-1.5189,-1.5189,-1.5189,-1.5189,-1.5195,-1.5207,-1.525,-1.5302,-1.5319,-1.5327,-1.5327,-1.5327,-1.5368,-1.5391,-1.539,-1.5408,0.0,-1.5402,-1.5402,-1.5402,-1.5402,-1.54,-1.5223,-1.458,-1.2314,-1.0303,-1.0303,-1.0303,-1.0303,-1.0303,-1.0304,-1.0304,-1.0304,-1.0165,-0.9753,-0.8876,-0.8,-0.7143,-0.6265,-0.5542,-0.5091,-0.5106,-0.5101,-0.5095,-0.5107,-0.5091,-0.4947,-0.462,-0.1701,0.0,0.0,0.0,0.0,0.0,0.0,-0.1335,-0.4025,-0.4025,-0.3342,-0.1992,-0.0632,0.0,0.0,0.0,0.0,0.0,0.0,0.0,0.0,0.0,0.0,0.0,0.0,-0.819,-0.9976,0.0,-1.3405,-1.5117,-1.539,-1.539,-1.539,-1.5349,-1.5313,-1.5354,-1.5377,-1.5398,-1.539,-1.5391,-1.6113,-1.7871,-1.8004,-1.8726,-2.0414,-2.0508,-2.0508,-2.0508,-2.0467,-2.042,-2.0394,-2.0394,-2.0396,-2.0399,-2.0399,-2.0399,-2.0399,-2.0399,-2.0399,-2.0302,-1.857,-1.778,-1.7747,-1.7747,-1.6728,-1.5189,-1.5189,-1.5189,-1.5189,-1.5189,-1.5234,-1.5303,-1.5303,-1.5303,-1.5303,-1.5303,-1.533,-1.5363,-1.5383,-1.541,-1.5391,-1.5391,-1.5391,-1.5391,-1.5391,-1.5391,-1.4961,-1.3242,-1.1521,-1.0265,-1.0293,-1.0292,-1.031,-1.0305,-1.0305,-1.0305,-1.0305,-1.0304,-0.999,-0.9132,-0.8255,-0.7378,-0.652,-0.5641,-0.5093,-0.5092,-0.5108,-0.5103,-0.5098,-0.5091,-0.5105,-0.5102,-0.2716,-0.1278,-0.1254,-0.0444,0.0,0.0,-0.1683,-0.3365,-0.4998,-0.4998,-0.4562,-0.3725,-0.2901,-0.2062,0.0,0.0,0.0,0.0,0.0,0.0,0.0,0.0,-0.707,-1.0498,-1.118,-1.1215,-1.1277,-1.3541,-1.539,-1.539,-1.539,-1.539,-1.539,-1.5349,-1.5295,-1.5293,-1.5349,-1.5383,-1.5409,-1.539,-1.6855,-2.0332,-2.0594,-2.0526,-2.0411,-2.0399,-2.0399,-2.0399,-2.0386,-2.0352,-2.0312,-2.0312,-2.0312,-2.0312,-2.0312,-2.0312,-2.0312,-2.0312,-2.0312,-2.0312,-2.0312,-2.0312,-2.0312,-2.0312,-1.8677,-1.6112,-1.5459,-1.5189,-1.5189,-1.5189,-1.5234,-1.5303,-1.5303,-1.5303,-1.5303,-1.5303,-1.5291,-1.531,-1.5358,-1.5389,-1.5389,-1.5389,-1.5389,-1.5389,-1.5389,-1.5389,-1.4511,-1.1095,-1.0243,-1.0216,-1.0268,-1.0287,-1.0293,-1.0307,-1.0305,-1.0305,-1.0307,-1.0308,-1.0053,-0.9367,-0.8372,-0.7456,-0.6735,-0.5738,-0.5094,-0.5094,-0.5092,-0.5108,-0.5105,-0.5105,-0.5103,-0.5099,-0.3831,-0.3065,-0.3015,-0.1703,-0.0834,-0.0504,-0.3192,-0.4741,-0.5027,-0.5022,-0.5022,-0.5001,-0.5001,-0.4277,-0.96,-0.9627,-0.9584,-0.9424,-0.9544,-0.9719,0.0,0.0,-1.0595,-1.402,-1.4721,-1.4753,-1.4822,-1.5136,-1.539,-1.539,-1.539,-1.539,-1.539,-1.5349,-1.5295,-1.5293,-1.5307,-1.534,-1.5382,-1.5404,-1.6849,-2.0342,-2.0533,-2.0478,-2.0405,-2.0399,-2.0399,-2.0399,-2.0337,-2.0319,-2.0312,-2.0312,-2.0312,-2.0312,-2.0312,-2.0312,-2.0312,-2.0312,-2.0312,-2.0312,-2.0312,-2.0312,-2.0312,-2.0312,-2.0081,-1.9427,-1.6381,-1.5189,-1.5189,-1.5189,-1.5234,-1.5303,-1.5303,-1.5303,-1.5303,-1.5303,-1.5308,-1.5298,-1.5306,-1.5311,-1.5311,-1.5311,-1.5311,-1.5311,-1.5311,-1.5311,-1.4458,-1.1027,-1.0205,-1.0199,-1.0211,-1.025,-1.0304,-1.0309,-1.0305,-1.0308,-1.0293,-1.0293,-1.0273,-1.017,-0.8763,-0.767,-0.7572,-0.6109,-0.5094,-0.5094,-0.5093,-0.5093,-0.5093,-0.5093,-0.5093,-0.5092,-0.493,-0.4823,-0.481,-0.4636,-0.3822,-0.2347,-0.263,-0.3544,-0.5093,-0.5083,-0.5057,-0.4998,-0.4998,-0.4895,-1.0186,-1.0197,-1.0683,0.0,-1.1708,-1.023,-1.023,-1.1759,-1.3568,-1.5003,-1.5299,-1.5313,-1.5345,-1.5349,-1.5349,0.0,-1.5349,-1.5349,-1.5349,-1.5316,-1.5295,-1.5293,-1.5302,-1.5307,-1.5339,-1.714,-1.8908,-2.0374,-2.0468,-2.0429,-2.0399,-2.0399,-2.0379,-2.0337,-2.0308,-2.0312,-2.0312,-2.0312,-2.0312,-2.0312,-2.0312,-2.0312,-2.0312,-2.0312,-2.0312,-2.0312,-2.0312,-2.0312,-2.0312,-2.0312,-2.0312,-2.0158,-1.8734,-1.8177,-1.7927,-1.592,-1.5232,-1.5259,-1.5294,-1.5303,-1.5303,-1.5303,-1.5303,-1.5303,-1.5303,-1.5303,-1.5303,-1.5303,-1.5303,-1.5303,-1.5303,-1.5303,-1.4433,-1.1008,-1.0196,-1.0196,-1.0196,-1.0222,-1.0232,-1.0244,-1.0241,-1.0235,-1.024,-1.0242,-1.0012,-0.9354,-0.8359,-0.7517,-0.7008,-0.5855,-0.5094,-0.5094,-0.5094,-0.5094,-0.5094,-0.5094,-0.5094,-0.5094,-0.5091,-0.5105,-0.5095,-0.509,-0.4776,-0.4074,-0.4031,-0.4367,-0.5097,-0.5099,-0.5072,-0.5,-0.5,-0.4995,-1.019,-1.0191,0.0,-1.4457,-1.3445,-1.1618,-1.1618,-1.3522,-1.5303,-1.5293,-1.5291,-1.5292,-1.5292,-1.5292,-1.5292,-1.5292,-1.5292,-1.5622,-1.6568,-1.5889,-1.5299,-1.5308,-1.5303,-1.5303,-1.5303,-1.7542,-1.938,-2.0321,-2.0399,-1.9993,-1.9051,-1.9864,-2.0345,-2.0292,-2.0312,-2.0312,-2.0312,-2.0312,-2.0312,-2.0312,-2.0312,-2.0312,-2.0312,-2.0312,-2.0312,-2.0312,-2.0312,-2.0312,-2.0312,-2.0312,-2.0312,-2.0312,-2.0312,-2.0312,-2.0004,-1.7516,-1.6612,-1.6606,-1.6654,-1.6052,-1.5265,-1.5265,-1.5275,-1.5303,-1.5303,-1.5303,-1.5303,-1.5303,-1.5303,-1.5303,-1.5303,-1.5303,-1.4433,-1.1008,-1.0196,-1.0196,-1.0196,-1.0202,-1.0194,-1.0198,-1.02,-1.0191,-1.0205,-1.0193,-0.9771,-0.8478,-0.7945,-0.7383,-0.6503,-0.5642,-0.5095,-0.5095,-0.5095,-0.5095,-0.5095,-0.5095,-0.5095,-0.5096,-0.5095,-0.5093,-0.5108,-0.5103,-0.5097,-0.5107,-0.5106,-0.5093,-0.5101,-0.511,-0.5084,-0.5023,-0.5023,-0.5023,-1.0196,0.0,-1.1012,-1.4457,-1.5211,-1.5153,-1.5153,-1.5231,-1.5308,-1.5308,-1.5308,-1.5308,-1.5308,-1.5308,-1.5308,-1.5308,-1.5308,-1.6464,-1.9786,-1.7393,-1.5308,-1.5308,-1.5303,-1.5303,0.0,-1.5381,-1.6832,-2.0147,-2.0399,-1.8954,-1.5632,-1.8538,-2.0292,-2.0312,-2.0312,-2.0312,-2.0312,-2.0312,-2.0312,-2.0312,-2.0312,-2.0312,-2.0312,-2.0312,-2.0312,-2.0312,-2.0312,-2.0312,-2.0312,-2.0312,-2.0312,-2.0312,-2.0312,-2.0312,-2.0292,-2.0177,-2.0158,-2.0158,-2.0158,-1.7984,-1.5195,-1.5195,-1.5259,-1.5303,-1.5303,-1.5303,-1.5303,-1.5303,-1.5303,-1.5303,-1.5303,-1.5303,-1.4433,-1.1008,-1.0196,-1.0196,-1.0196,-1.0199,-1.0199,-1.0199,-1.0199,-1.0205,-1.019,-1.0195,-0.9639,-0.7982,-0.772,-0.7377,-0.6504,-0.5644,-0.5097,-0.5097,-0.5097,-0.5097,-0.5097,-0.5097,-0.5097,-0.5098,-0.5097,-0.5097,-0.5096,-0.5095,-0.5091,-0.5101,-0.5096,-0.5101,-0.5093,-0.5095,-0.5108,-0.5097,-0.5097,-0.5097,-1.2962,0.0,-1.3852,-1.5013,-1.5303,-1.5303,-1.5303,-1.5303,-1.5303,-1.5303,-1.5303,-1.5303,-1.5303,-1.5303,-1.5303,-1.5303,-1.5303,-1.6484,-1.9915,-1.9418,-1.7833,-1.5574,-1.5303,0.0,0.0,0.0,0.0,-2.0147,-2.0399,-1.9877,-1.8673,-1.9684,-2.0312,-2.0312,-2.0312,-2.0312,-2.0312,-2.0312,-2.0312,-2.0312,-2.0312,-2.0312,-2.0312,-2.0312,-2.0312,-2.0312,-2.0312,-2.0312,-2.0312,-2.0312,-2.0312,-2.0312,-2.0312,-2.0312,-2.0312,-2.0312,-2.0312,-2.0312,-2.0312,-1.8054,-1.5189,-1.5189,-1.5226,-1.5234,-1.5294,-1.5303,-1.5303,-1.5303,-1.5303,-1.5303,-1.5303,-1.5303,-1.5013,-1.3852,-1.184,-1.0196,-1.0196,-1.0196,-1.0196,-1.0196,-1.0196,-1.0199,-1.0208,-1.0191,-0.9809,-0.8676,-0.7052,-0.5877,-0.5566,-0.5273,-0.5098,-0.5098,-0.5098,-0.5097,-0.5097,-0.5097,-0.5098,-0.5098,-0.5098,-0.5098,-0.5098,-0.5097,-0.5096,-0.5091,-0.5103,-0.5091,-0.5093,-0.5106,-0.5098,-0.5108,-0.5108,-0.5108,-1.4704,-1.5303,-1.5303,-1.5303,-1.5303,-1.5303,-1.5303,-1.5303,-1.5303,-1.5303,-1.5303,-1.5303,-1.5303,-1.5303,-1.5303,-1.5303,-1.5303,-1.6484,-1.9915,-2.0399,-1.9573,-1.7368,-1.7122,-1.7976,0.0,0.0,0.0,-2.0225,-2.0379,-2.0345,-2.0292,-2.0312,-2.0312,-2.0312,-2.0312,-2.0312,-2.0312,-2.0312,-2.0312,-2.0312,-2.0312,-2.0312,-2.0312,-2.0312,-2.0312,-2.0312,-2.0312,-2.0312,-2.0312,-2.0312,-2.0312,-2.0312,-2.0312,-2.0312,-2.0312,-2.0312,-2.0312,-2.0312,-2.0312,-1.8869,-1.7016,-1.7016,-1.6189,-1.522,-1.5245,-1.5255,-1.5255,-1.5255,-1.5255,-1.5255,-1.5255,-1.527,-1.5303,-1.5303,-1.362,-1.1686,-1.0467,-1.0196,-1.0196,-1.0196,-1.0196,-1.0196,-1.0196,-0.9947,-0.9544,-0.8992,-0.7,-0.5559,-0.5563,-0.5291,-0.5097,-0.5097,-0.5097,-0.5098,-0.5097,-0.5098,-0.5098,-0.5098,-0.5097,-0.5097,-0.5097,-0.5097,-0.5098,-0.5096,-0.5091,-0.5102,-0.511,-0.5102,-0.5094,-0.5104,-0.5101,-0.51,-1.5516,-1.542,-1.5303,-1.5303,-1.5303,-1.5303,-1.5303,-1.5303,-1.5303,-1.5303,-1.5149,-1.5033,-1.5033,0.0,-1.5303,-1.5303,-1.5303,-1.6484,-1.9915,-2.0399,-2.0399,0.0,0.0,0.0,0.0,0.0,0.0,-2.0392,0.0,-2.0312,-2.0312,-2.0312,-2.0312,-2.0312,-2.0312,-2.0312,-2.0312,-2.0312,-2.0312,-2.0312,-2.0312,-2.0312,-2.0312,-2.0312,-2.0312,-2.0312,-2.0312,-2.0312,-2.0312,-2.0285,-2.0285,-2.0285,-2.0304,-2.0312,-2.0312,-2.0312,-2.0312,-2.0312,-2.0312,-2.0312,-2.0312,-2.0312,-1.7984,-1.5189,-1.5189,-1.5189,-1.5189,-1.5189,-1.5189,-1.5189,-1.5189,-1.5259,-1.5303,-1.5303,-1.5303,-1.4355,-1.0934,-1.0196,-1.0196,-1.0196,-1.0196,-1.0196,-1.0196,-0.9522,-0.8966,-0.8973,-0.7584,-0.6488,-0.6405,-0.5632,-0.511,-0.5093,-0.5096,-0.5097,-0.5098,-0.5098,-0.5098,-0.5097,-0.5097,-0.5096,-0.5094,-0.5096,-0.5097,-0.5098,-0.5096,-0.5091,-0.5102,-0.5097,-0.509,-0.5102,-0.5094,-0.5109,-1.8413,-1.7233,-1.5303,-1.5303,-1.5303,-1.5303,-1.5303,-1.5303,-1.5303,-1.5303,-1.3272,-1.1492,-1.1492,0.0,0.0,-1.5303,-1.5303,0.0,-1.9915,-2.0399,0.0,-2.0399,0.0,-2.032,-2.0299,-2.0308,0.0,0.0,-2.03,-2.0312,-2.0312,-2.0312,-2.0312,-2.0312,-2.0312,-2.0312,-2.0312,-2.0312,-2.0312,-2.0312,-2.0312,-2.0312,-2.0312,-2.0312,-2.0312,-2.0312,-2.0312,-2.0312,-2.0285,-2.0199,-2.0153,-2.0153,-2.026,-2.0312,-2.0312,-2.0312,-2.0312,-2.0312,-2.0312,-2.0312,-2.0312,-2.0312,-1.7984,-1.5189,-1.5189,-1.5189,-1.5189,-1.5189,-1.5189,-1.5189,-1.5189,-1.5207,-1.5229,-1.5294,-1.5303,-1.4355,-1.0934,-1.0196,-1.0196,-1.0196,-1.0196,-1.0196,-1.0196,-1.0025,-0.987,-0.9873,-0.896,-0.7806,-0.6553,-0.5646,-0.5105,-0.511,-0.5091,-0.5093,-0.5095,-0.5096,-0.5095,-0.5095,-0.5095,-0.5095,-0.5094,-0.5096,-0.5097,-0.5097,-0.5098,-0.5097,-0.5095,-0.5109,-0.5102,-0.5097,-0.509,-0.5104,-1.9877,-1.8993,-1.7542,-1.7542,-1.6406,-1.5303,-1.5303,-1.5303,-1.4859,-1.3369,-1.1534,0.0,-1.0196,-1.1763,0.0,0.0,0.0,0.0,-1.9915,-2.0399,-2.0399,0.0,-2.0327,0.0,-2.0311,-2.0743,-2.085,0.0,-2.0312,-2.0312,-2.0312,-2.0312,-2.0312,-2.0312,-2.0312,-2.0312,-2.0312,-2.0312,-2.0312,-2.0312,-2.0312,-2.0312,-2.0312,-2.0312,-2.0312,-2.0312,0.0,-2.0269,-2.0208,-2.0108,-2.0068,-2.0068,-2.0146,-2.0192,-2.0216,-2.0277,-2.0269,-2.0208,-2.0183,-2.0174,-2.0183,-2.026,-1.7984,-1.5189,-1.5189,-1.5189,-1.5189,-1.5189,-1.5189,-1.5189,-1.5189,-1.5189,-1.5201,-1.5259,-1.5269,-1.4323,-1.0884,-1.0186,-1.0196,-1.0196,-1.0196,-1.0196,-1.0196,-1.0193,-1.0209,-1.0206,-0.9465,-0.856,-0.7627,-0.6727,-0.6192,-0.6196,-0.6199,-0.6203,-0.619,-0.5883,-0.5671,-0.5671,-0.5305,-0.5092,-0.5094,-0.5095,-0.5096,-0.5096,-0.5096,-0.5097,-0.5098,-0.5095,-0.5091,-0.5091,-0.5106,-0.5297,-2.0399,-2.0399,-2.0399,-2.0399,-1.7833,-1.5303,-1.5303,-1.4955,-1.3775,-1.0815,0.0,-1.0196,-1.0196,-1.0196,-1.1318,-1.4742,0.0,-1.6406,-1.9612,-2.0128,-2.0192,-2.0282,-2.0294,-2.0357,-2.0454,-2.137,-2.1523,-2.0542,-2.0465,-2.0408,-2.0312,-2.0312,-2.0312,-2.0312,-2.0312,-2.0312,-2.0312,-2.0277,-2.0269,-2.0269,-2.0269,-2.0269,-2.0269,-2.0269,-2.0269,-2.0269,0.0,0.0,-2.0079,-1.9985,-1.9938,-1.9938,-1.9926,-1.9966,-2.0089,-2.0216,-2.019,-2.0049,-1.9952,-1.9908,-1.9941,-2.0173,-1.7956,-1.5183,-1.5209,-1.5189,-1.5189,-1.5189,-1.5189,-1.5189,-1.5189,-1.5189,-1.5189,-1.5189,-1.5165,-1.4201,-1.0822,-1.0136,-1.019,-1.0193,-1.0193,-1.0193,-1.0193,-1.0186,-1.0196,-1.0182,-0.9542,-0.9057,-0.9066,-0.8199,-0.7594,-0.7594,-0.7603,-0.7593,-0.7599,-0.6855,-0.6395,-0.6395,-0.5589,-0.5109,-0.5092,-0.5093,-0.5093,-0.5093,-0.5093,-0.5095,-0.5096,-0.5097,-0.5096,-0.5097,-0.5213,-0.568,-2.0399,-2.0399,-2.0399,-2.0399,-1.7833,-1.5303,-1.5303,-1.3117,0.0,0.0,-1.0196,-1.0196,-1.0196,-1.0196,-1.1318,-1.4742,0.0,0.0,0.0,0.0,-1.9265,0.0,0.0,0.0,0.0,0.0,0.0,0.0,0.0,0.0,-2.035,-2.0312,-2.0312,-2.0312,-2.0312,-2.0312,-2.0312,-2.0199,-2.0135,-2.0135,-2.0135,-2.0135,-2.0135,-2.0135,-2.0135,-2.0144,0.0,0.0,-2.0069,-1.9801,-1.9665,-1.9652,-1.9485,-1.9596,-1.9873,-2.0069,-2.0019,-1.9813,-1.9509,-1.9423,-1.9495,-1.9911,-1.7811,-1.512,-1.5177,-1.5189,-1.5189,-1.5189,-1.5189,-1.5189,-1.5189,-1.5189,-1.5189,-1.5189,-1.4984,-1.3913,-1.0707,-1.0063,-1.0121,-1.0189,-1.0192,-1.0192,-1.0192,-1.0143,-1.0129,-1.0116,-0.9982,-0.989,-0.9897,-0.8543,-0.7603,-0.7603,-0.7594,-0.7599,-0.7601,-0.6857,-0.6399,-0.6399,-0.5581,-0.5103,-0.5104,-0.5104,-0.5104,-0.5104,-0.5108,-0.5092,-0.5095,-0.5096,-0.5097,-0.5117,-0.584,-0.625,-2.0399,-2.0399,-2.0399,-2.0399,-1.7833,-1.5303,-1.5303,0.0,0.0,0.0,-0.7545,-0.7545,-0.7545,0.0,0.0,0.0,0.0,0.0,0.0,0.0,0.0,0.0,0.0,0.0,0.0,0.0,0.0,0.0,0.0,0.0,-2.0369,-2.0269,-2.0241,-2.0241,-2.0277,-2.0269,-2.0199,-2.0135,-2.0088,-2.0088,-2.0088,-2.0088,-2.0088,-2.0088,-2.0079,-2.0048,0.0,0.0,-1.9922,-1.9705,-1.9541,-1.9431,-1.9338,-1.9456,-1.9718,-1.9877,-1.9849,-1.9665,-1.9398,-1.9305,-1.9335,-1.955,-1.7517,-1.4976,-1.5153,-1.5189,-1.5189,-1.5189,-1.5189,-1.5189,-1.5189,-1.5189,-1.5189,-1.5189,-1.3662,-1.1798,-1.0323,-1.0035,-1.007,-1.0125,-1.0152,-1.0152,-1.0159,-1.0125,-1.0082,-1.0052,-1.0072,-1.0091,-1.0049,-0.934,-0.8869,-0.8893,-0.89,-0.8903,-0.8903,-0.8163,-0.7705,-0.7705,-0.6888,-0.6394,-0.6394,-0.6397,-0.6425,-0.6456,-0.6458,-0.6446,-0.6455,-0.6453,-0.6454,-0.6457,-0.689,-0.7322,-2.0205,-2.0399,-2.0225,-1.9496,-1.7291,-1.511,-1.4375,-1.2131,0.0,0.0,-0.5108,-0.5108,-0.5108,0.0,-1.0196,0.0,-1.2765,0.0,0.0,0.0,0.0,0.0,0.0,0.0,0.0,0.0,0.0,0.0,0.0,0.0,0.0,-2.0208,-2.0162,-2.0164,-2.0216,-2.0208,-2.0088,-2.0088,-2.0088,-2.0088,-2.0088,-2.0088,-2.0088,-2.0088,-2.0039,-1.9949,0.0,0.0,0.0,-1.9578,-1.9446,-1.9305,-1.9305,-1.9402,-1.9555,-1.966,-1.9633,-1.9508,-1.9353,-1.9305,-1.9305,-1.9305,-1.7731,-1.5733,-1.5295,-1.5153,-1.5153,-1.5153,-1.5153,-1.5153,-1.5171,-1.5171,-1.5171,-1.5153,-1.2978,-1.0814,-1.0406,-1.028,-1.0206,-1.01,-1.007,-1.0078,-1.0075,-1.0082,-1.0076,-1.0006,-1.0039,-1.0049,-0.999,-0.9981,-0.9992,-1.0057,-1.0074,-1.0105,-1.0105,-0.9348,-0.889,-0.8893,-0.8071,-0.7595,-0.7598,-0.7606,-0.7623,-0.7685,-0.7687,-0.7678,-0.7692,-0.7687,-0.7685,-0.7687,-0.7871,-0.8327,-1.9554,-2.0399,-1.9651,-1.6542,-1.5536,-1.4495,-1.1376,0.0,0.0,-0.5804,-0.5108,-0.5108,-0.5108,-0.7894,-1.0196,-1.0196,-1.1737,-1.3484,0.0,0.0,0.0,0.0,0.0,0.0,0.0,0.0,0.0,0.0,0.0,0.0,0.0,-2.0117,-2.0087,-2.0015,-2.0079,-2.0098,-2.0088,-2.0088,-2.0088,-2.0088,-2.0088,-2.0088,-2.0088,-2.0088,-1.9998,-1.9807,0.0,0.0,0.0,-1.932,-1.9323,-1.9305,-1.9305,-1.9305,-1.9338,-1.9335,-1.9335,-1.932,-1.9305,-1.9305,-1.9305,-1.9305,-1.9243,-1.8646,-1.5856,-1.5022,-1.5022,-1.5022,-1.5022,-1.5038,-1.5085,-1.5106,-1.5085,-1.5038,-1.4625,-1.3728,-1.177,-1.1164,-1.0791,-1.0144,-1.0005,-1.0011,-1.002,-1.0063,-1.0082,-1.0003,-1.0012,-0.9976,-0.9925,-0.9912,-0.9916,-0.9914,-1.0025,-1.0105,-1.01,-0.9303,-0.883,-0.8902,-0.8072,-0.7595,-0.7606,-0.7606,-0.7598,-0.7601,-0.7608,-0.7638,-0.7706,-0.7638,-0.7599,-0.7626,-0.8413,-0.8871,-1.9477,-1.8896,-1.7006,-1.5632,-1.5303,-1.4394,-1.097,0.0,-0.9226,-0.5809,-0.5101,-0.5108,-0.5108,-0.621,-0.7137,-0.7126,-0.9381,-1.2093,-1.4852,0.0,0.0,0.0,0.0,0.0,0.0,0.0,0.0,0.0,0.0,0.0,0.0,-1.9966,-1.9926,-1.9823,-1.9955,-2.0038,-2.0038,-1.9963,-1.9823,-1.9619,-1.9823,-1.9911,-1.9911,-1.9911,-1.9837,-1.9665,0.0,0.0,0.0,-1.9305,-1.9305,-1.9305,-1.9305,-1.9305,-1.9305,-1.9305,-1.9305,-1.9305,-1.9305,-1.9305,-1.9305,-1.9305,-1.9353,-1.9187,-1.7955,-1.6239,-1.4705,-1.4705,-1.4755,-1.4832,-1.485,-1.4979,-1.5064,-1.4902,-1.4726,-1.408,-1.2307,-1.1498,-1.0864,-1.0093,-0.9982,-0.999,-0.9996,-1.0068,-1.0082,-1.0059,-0.9993,-0.9913,-0.9843,-0.9875,-0.9906,-0.9906,-0.9974,-1.0044,-1.0039,-0.9752,-0.9593,-0.9616,-0.9291,-0.9099,-0.9103,-0.9103,-0.9099,-0.9112,-0.9096,-0.9111,-0.9151,-0.9117,-0.9108,-0.9105,-0.9455,-0.9646,-1.8233,-1.7141,-1.5303,-1.5303,-1.5303,-1.4394,0.0,-1.019,-0.9211,-0.5796,-0.5108,-0.5101,-0.5108,-0.5104,-0.5423,-0.6427,-0.8556,-1.1171,-1.4266,-1.5528,0.0,0.0,0.0,0.0,0.0,0.0,0.0,0.0,0.0,0.0,0.0,-1.9744,-1.9732,-1.9656,-1.9782,-1.9849,-1.9849,-1.9725,-1.9527,-1.9305,-1.9527,-1.9641,-1.9641,-1.9641,-1.9606,0.0,0.0,0.0,0.0,-1.9305,-1.9305,-1.9305,-1.9305,-1.9305,-1.9305,-1.9305,-1.9305,-1.9305,-1.9305,-1.9305,-1.9305,-1.9305,-1.9305,-1.9305,-1.9305,-1.705,-1.4488,-1.4488,-1.4596,-1.4701,-1.4701,-1.4859,-1.496,-1.4756,-1.4592,-1.4125,-1.2715,-1.201,-1.1408,-1.0518,-1.0132,-0.9936,-0.9941,-1.0005,-1.0068,-1.0077,-0.9968,-0.9882,-0.9815,-0.9842,-0.9875,-0.9838,-0.9894,-0.9946,-0.996,-1.0029,-1.0068,-1.0078,-1.0078,-1.0078,-1.0063,-1.0068,-1.0086,-1.0097,-1.0078,-1.0075,-1.0101,-1.0083,-1.009,-1.0105,-1.0102,-1.0105,-1.5328,-1.5323,-1.5303,-1.5303,-1.5303,-1.4394,-1.097,-1.0147,-0.9152,-0.579,-0.5097,-0.5105,-0.5104,-0.5093,-0.6194,-0.9517,-1.0075,-1.0902,-1.319,-1.4497,0.0,0.0,0.0,0.0,0.0,0.0,0.0,0.0,0.0,0.0,0.0,0.0,-1.9456,-1.9602,-1.9541,-1.9508,-1.9508,-1.9368,-1.9305,-1.9305,-1.9305,-1.9305,-1.9305,-1.9305,0.0,0.0,0.0,0.0,0.0,-1.9305,-1.9305,-1.9305,-1.9305,-1.9305,-1.9305,-1.9305,-1.9305,-1.9305,-1.9305,-1.9305,-1.9305,-1.9305,-1.9305,-1.9305,-1.9305,-1.705,-1.4488,-1.4488,-1.4596,-1.4701,-1.4701,-1.4746,-1.4747,-1.4556,-1.4499,-1.4205,-1.3135,-1.2936,-1.265,-1.1588,-1.052,-0.9796,-0.9799,-0.9906,-0.9998,-1.001,-0.9938,-0.9875,-0.9815,-0.9801,-0.9775,-0.971,-0.9768,-0.983,-0.9887,-0.9973,-0.9995,-1.0009,-1.0009,-0.9995,-0.9991,-1.0006,-1.002,-1.0096,-1.0039,-1.0024,-1.01,-1.0024,-1.0044,-1.0095,-1.01,-1.009,-1.4651,-1.5303,-1.5303,-1.5303,-1.3543,-1.1527,-1.0394,-0.8338,-0.6386,-0.5328,-0.5097,-0.5099,-0.5107,-0.5101,-0.6203,-0.9563,-0.9437,-1.002,0.0,0.0,0.0,0.0,0.0,0.0,0.0,0.0,0.0,0.0,0.0,0.0,0.0,0.0,-1.9402,-1.9402,-1.9368,-1.9368,-1.9368,-1.932,-1.9305,-1.9305,-1.9305,-1.9305,-1.9305,-1.9305,0.0,0.0,0.0,0.0,0.0,-1.9305,-1.9305,-1.9305,-1.9305,-1.9305,-1.9305,-1.9305,-1.9305,-1.9305,-1.9305,-1.9305,-1.9305,-1.9305,-1.9305,-1.9305,-1.9305,-1.705,-1.4488,-1.4488,-1.454,-1.4563,-1.4563,-1.4578,-1.4589,-1.4529,-1.4488,-1.4407,-1.4059,-1.4007,-1.3274,-1.0729,-1.0009,-0.9808,-0.9803,-0.9796,-0.981,-0.9863,-0.985,-0.9823,-0.9808,-0.9801,-0.9775,-0.971,-0.9721,-0.9761,-0.983,-0.9844,-0.9882,-0.9936,-0.9929,-0.9952,-0.9998,-1.0003,-0.9984,-0.996,-0.9949,-0.9944,-0.9968,-0.9944,-0.996,-1.0039,-1.003,-1.0063,-1.2386,-1.3339,-1.3333,-1.3369,-1.1786,-1.0186,-1.0125,-0.7499,-0.5097,-0.5097,-0.5097,-0.5097,-0.5097,-0.5619,-0.6724,-0.8823,-0.9068,-0.9963,0.0,0.0,0.0,0.0,0.0,0.0,0.0,0.0,0.0,0.0,0.0,0.0,0.0,0.0,-1.9338,-1.9305,-1.9305,-1.9305,-1.9305,-1.9305,-1.9305,-1.9305,-1.9305,-1.9305,-1.9305,0.0,0.0,0.0,0.0,0.0,0.0,-1.9305,-1.9305,-1.9305,-1.9305,-1.9305,-1.9289,-1.9246,-1.9214,-1.923,-1.9274,-1.9305,-1.9305,-1.9305,-1.9277,-1.9214,-1.9214,-1.7014,-1.4488,-1.4488,-1.4488,-1.4488,-1.4488,-1.4488,-1.4488,-1.4488,-1.4488,-1.4488,-1.4488,-1.4488,-1.3912,-1.1893,-1.0555,-0.9765,-0.9765,-0.9728,-0.9713,-0.9758,-0.9787,-0.9801,-0.9801,-0.9801,-0.9768,-0.9706,-0.9699,-0.9725,-0.9765,-0.9789,-0.9823,-0.9856,-0.9863,-0.99,-0.9954,-0.9967,-0.9942,-0.9868,-0.9863,-0.9869,-0.9869,-0.9881,-0.9929,-0.9963,-0.9984,-1.001,0.0,-0.9735,-0.9756,-0.9819,-0.9828,-0.9819,-0.9759,-0.7326,0.0,-0.5097,-0.5097,-0.5097,-0.5097,-0.6465,-0.7672,-0.7911,-0.91,0.0,0.0,0.0,0.0,0.0,0.0,0.0,0.0,0.0,0.0,0.0,0.0,0.0,0.0,0.0,0.0,-1.9305,-1.9305,-1.9305,-1.9305,-1.9305,-1.9305,-1.9305,-1.9305,-1.9289,-1.9289,0.0,0.0,0.0,0.0,0.0,0.0,-1.9289,-1.9305,-1.9305,-1.9305,-1.9289,-1.9277,-1.9153,-1.9087,-1.912,-1.9261,-1.9305,-1.9289,-1.9289,-1.9216,-1.9087,-1.9087,-1.7111,-1.4787,-1.4549,-1.4488,-1.4488,-1.4488,-1.4488,-1.4488,-1.4488,-1.4488,-1.4488,-1.4488,-1.4488,-1.4488,-1.4488,-1.2095,-0.9974,-0.9735,-0.9698,-0.9698,-0.9698,-0.9758,-0.9794,-0.9794,-0.9794,-0.9772,-0.9706,-0.9703,-0.9703,-0.9698,-0.9762,-0.9798,-0.9794,-0.9798,-0.9819,-0.9894,-0.99,-0.9888,-0.9875,-0.9935,-0.9952,-0.997,-1.0038,-1.0075,-1.0075,-1.0135,-1.0171,-0.5895,0.0,-0.6215,-0.6278,-0.6306,-0.6301,0.0,-0.5674,-0.5097,-0.5097,-0.5097,-0.5097,-0.5097,-0.6472,-0.8421,-1.0943,-1.0597,0.0,0.0,0.0,0.0,0.0,0.0,0.0,0.0,0.0,0.0,0.0,0.0,0.0,0.0,0.0,0.0,-1.9305,-1.9305,-1.9305,-1.9305,-1.9305,-1.9305,-1.9305,-1.9305,-1.9292,-1.9298,0.0,0.0,0.0,0.0,0.0,-1.9301,-1.9292,-1.9305,-1.9305,-1.9305,-1.923,-1.9135,-1.9104,-1.9087,-1.912,-1.9261,-1.9305,-1.9274,-1.9184,-1.912,-1.9087,-1.9087,-1.8594,-1.7503,-1.5034,-1.4417,-1.4488,-1.4488,-1.4488,-1.4488,-1.4488,-1.4488,-1.4488,-1.4488,-1.4488,-1.4488,-1.4488,-1.3893,-1.259,-1.0121,-0.9698,-0.9698,-0.9698,-0.9713,-0.9728,-0.9728,-0.9728,-0.9721,-0.9706,-0.9706,-0.9706,-0.9698,-0.9713,-0.9721,-0.9728,-0.9728,-0.9745,-0.981,-0.9828,-1.0086,-1.0624,-1.1194,-1.1507,-1.157,-1.1684,-1.1746,-1.1746,-1.1808,-1.1841,-0.49,-0.4928,-0.5347,-0.6986,-0.6209,-0.5059,-0.5059,-0.5059,-0.5059,-0.5059,-0.6226,-0.7259,-0.7259,-0.8424,-0.9968,-1.1748,-1.2124,0.0,0.0,0.0,0.0,0.0,0.0,0.0,0.0,0.0,0.0,0.0,0.0,0.0,0.0,0.0,0.0,0.0,-1.9311,-1.9292,-1.9289,-1.9305,-1.9305,-1.9289,-1.9292,-1.9295,-1.9301,0.0,0.0,0.0,0.0,0.0,-1.9287,-1.9282,-1.9277,-1.9289,-1.923,-1.9152,-1.9087,-1.9087,-1.9087,-1.9104,-1.9184,-1.9216,-1.92,-1.912,-1.9087,-1.9087,-1.9087,-1.9087,-1.8417,-1.5212,-1.4393,-1.4488,-1.4488,-1.4488,-1.4488,-1.4488,-1.4488,-1.4488,-1.4488,-1.4488,-1.4488,-1.4488,-1.4488,-1.3949,-1.2205,-1.069,-0.9698,-0.9698,-1.0966,-1.1893,-1.1893,-1.1893,-1.1342,-0.9864,-0.9698,-0.99,-1.0396,-1.0433,-1.0213,-0.9735,-0.9692,-0.9721,-0.975,-1.0109,-1.0642,-1.1398,-1.179,-1.2029,-1.2096,-1.2195,-1.2255,-1.2253,-1.233,-1.2346,-0.49,-0.526,-0.6361,-0.932,-0.7875,-0.5594,-0.5092,-0.4981,-0.4981,-0.4981,-0.7154,-0.9207,-0.9708,-1.0579,0.0,0.0,0.0,0.0,0.0,0.0,0.0,0.0,0.0,0.0,0.0,0.0,0.0,0.0,0.0,0.0,0.0,0.0,0.0,0.0,-1.9301,-1.928,-1.9274,-1.9274,-1.9274,-1.9274,-1.928,-1.9266,-1.9266,-1.92,0.0,0.0,0.0,0.0,-1.9271,-1.9202,-1.9216,-1.9261,-1.9135,-1.9087,-1.9087,-1.9087,-1.9087,-1.9105,-1.9053,-1.9036,-1.9019,-1.9019,-1.9019,-1.9019,-1.9036,-1.9088,-1.8417,-1.5185,-1.4368,-1.4464,-1.4464,-1.4464,-1.4464,-1.4464,-1.4464,-1.4464,-1.4464,-1.4494,-1.4488,-1.4488,-1.4488,-1.4488,-1.4488,-1.2242,-1.0433,-1.0433,-1.2756,-1.4488,-1.4488,-1.4488,-1.3471,-1.0727,-1.0433,-1.08,-1.1709,-1.1563,-1.1039,-1.0121,-1.0063,-1.0052,-1.0049,-1.081,-1.1525,-1.2168,-1.2287,-1.2373,-1.246,-1.252,-1.2549,-1.2539,-1.2593,-1.2639,-0.49,-0.6929,-0.9171,-0.9718,-0.945,-0.8339,-0.5555,-0.4906,-0.4906,-0.4906,-0.5301,-0.6497,0.0,-0.9945,-1.0975,0.0,0.0,0.0,0.0,0.0,0.0,0.0,0.0,0.0,0.0,0.0,0.0,0.0,0.0,0.0,0.0,0.0,0.0,0.0,0.0,-1.9219,-1.9216,-1.9216,-1.9216,-1.9216,-1.9219,-1.9184,-1.9132,-1.9115,-1.9117,0.0,0.0,-1.912,-1.9139,-1.912,-1.912,-1.9137,-1.9104,-1.9087,-1.9087,-1.9087,-1.9087,-1.9088,-1.8896,-1.8715,-1.8582,-1.8582,-1.8582,-1.862,-1.8788,-1.8967,-1.8419,-1.506,-1.4229,-1.4331,-1.4331,-1.4331,-1.4331,-1.4331,-1.4331,-1.4331,-1.4331,-1.4417,-1.4488,-1.4488,-1.4488,-1.4488,-1.4488,-1.4084,-1.3765,-1.3765,-1.4176,-1.4488,-1.4488,-1.4488,-1.4304,-1.382,-1.3765,-1.3838,-1.3992,-1.2756,-1.1911,-1.1746,-1.1672,-1.1644,-1.1651,-1.2368,-1.2811,-1.2927,-1.3594,-1.3987,-1.4059,-1.4116,-1.4114,-1.4066,-1.4132,-1.4161,-0.49,-0.7295,-1.0228,-1.1991,-1.11,-0.9411,-0.7889,-0.7555,-0.7555,-0.7555,-0.7555,0.0,0.0,0.0,0.0,0.0,0.0,0.0,0.0,0.0,0.0,0.0,0.0,0.0,0.0,0.0,0.0,0.0,0.0,0.0,0.0,0.0,0.0,0.0,0.0,0.0,-1.9153,-1.9153,-1.917,-1.9202,-1.915,-1.9115,-1.9099,-1.9101,-1.9102,-1.9087,0.0,-1.9087,-1.9087,-1.9087,-1.9087,-1.9087,-1.9087,-1.9087,-1.9087,-1.9087,-1.9087,-1.9053,-1.8751,-1.8406,-1.8121,-1.8121,-1.8121,-1.8201,-1.8524,-1.8843,-1.8402,-1.4962,-1.403,-1.41,-1.4163,-1.4242,-1.4293,-1.4293,-1.4293,-1.4293,-1.4293,-1.4405,-1.4488,-1.4488,-1.4488,-1.4494,-1.4405,-1.4331,-1.4281,-1.4281,-1.4281,-1.4306,-1.4381,-1.4471,-1.4488,-1.4488,-1.4488,-1.4488,-1.4488,-1.382,-1.301,-1.2091,-1.2026,-1.2006,-1.2004,-1.2321,-1.2909,-1.3739,-1.4107,-1.4324,-1.4355,-1.4387,-1.4387,-1.4392,-1.4428,-1.4446,-0.49,-0.7295,-1.0395,-1.2919,-1.2232,-1.0952,-1.0952,-1.0952,-1.0952,-1.0952,-1.0952,0.0,0.0,0.0,0.0,0.0,0.0,0.0,0.0,0.0,0.0,0.0,0.0,0.0,0.0,0.0,0.0,0.0,0.0,0.0,0.0,0.0,0.0,0.0,0.0,0.0,-1.9087,-1.9087,-1.912,-1.9186,-1.9117,-1.9099,-1.9101,-1.9086,-1.9087,-1.9087,-1.9087,-1.9087,-1.9087,-1.9087,-1.9087,-1.9087,-1.9087,-1.9036,-1.8967,-1.8967,-1.8967,-1.8914,-1.8544,-1.8159,-1.7811,-1.7811,-1.7811,-1.7878,-1.8243,-1.8639,-1.825,-1.481,-1.3813,-1.3811,-1.4002,-1.4195,-1.4293,-1.4293,-1.4293,-1.4293,-1.4293,-1.4381,-1.4453,-1.4453,-1.4453,-1.4393,-1.4229,-1.4054,-1.3941,-1.3941,-1.3941,-1.3998,-1.4177,-1.4344,-1.4453,-1.4453,-1.4453,-1.4453,-1.4453,-1.4393,-1.3781,-1.2401,-1.2451,-1.2517,-1.2528,-1.2528,-1.3098,-1.4245,-1.4281,-1.4281,-1.4281,-1.4281,-1.4288,-1.435,-1.435,-1.4344,-0.49,-0.7295,-0.9856,-1.0079,-1.227,-1.4348,-1.4348,-1.4348,-1.4348,-1.4348,-1.4348,0.0,0.0,0.0,0.0,0.0,0.0,0.0,0.0,0.0,0.0,0.0,0.0,0.0,0.0,0.0,0.0,0.0,0.0,0.0,0.0,0.0,0.0,0.0,0.0,0.0,-1.9087,-1.9087,-1.9087,-1.9104,-1.9104,-1.9104,-1.9104,-1.9087,-1.9087,-1.9087,-1.9087,-1.9087,-1.9087,-1.9087,-1.9087,-1.9087,-1.9087,-1.8861,-1.8544,-1.8544,-1.8544,-1.8505,-1.8298,-1.8027,-1.7811,-1.7811,-1.7811,-1.7811,-1.7833,-1.8163,-1.7854,-1.4551,-1.3527,-1.3512,-1.3828,-1.4114,-1.4293,-1.4293,-1.4293,-1.4293,-1.4293,-1.4306,-1.4306,-1.4306,-1.4306,-1.4229,-1.3959,-1.3657,-1.3446,-1.3446,-1.3446,-1.3561,-1.3888,-1.415,-1.4306,-1.4306,-1.4306,-1.4306,-1.4306,-1.4086,-1.3761,-1.3326,-1.3761,-1.4062,-1.4143,-1.4143,-1.4172,-1.4198,-1.4198,-1.4198,-1.4198,-1.4198,-1.4198,-1.4211,-1.4211,-1.419,-0.49,-0.581,-0.7239,-0.9281,-1.0729,-1.2195,-1.4219,-1.4701,-1.4701,-1.4701,-1.4701,-1.4701,0.0,0.0,0.0,0.0,0.0,0.0,0.0,0.0,0.0,0.0,0.0,0.0,0.0,0.0,0.0,0.0,0.0,0.0,0.0,0.0,0.0,0.0,0.0,0.0,0.0,-1.9087,-1.9087,-1.9087,-1.9087,-1.9087,-1.9087,-1.9053,-1.9018,-1.8966,-1.8984,-1.9019,-1.9087,-1.9087,-1.9087,-1.907,-1.8825,-1.8448,-1.8057,-1.8057,-1.8057,-1.8035,-1.7983,-1.7878,-1.7811,-1.7811,-1.7715,-1.7599,-1.7599,-1.7737,-1.7635,-1.6357,-1.6075,-1.5792,-1.4286,-1.41,-1.4281,-1.419,-1.4114,-1.4044,-1.4044,-1.4044,-1.4044,-1.4044,-1.4044,-1.3987,-1.3746,-1.3528,-1.3396,-1.3396,-1.3396,-1.3479,-1.3702,-1.3912,-1.4044,-1.4044,-1.4044,-1.4044,-1.4044,-1.3962,-1.3843,-1.3721,-1.39,-1.4096,-1.4293,-1.4216,-1.4163,-1.4136,-1.4136,-1.4136,-1.4136,-1.4136,-1.4136,-1.4136,-1.4136,-1.4123,-0.6163,-0.6441,-0.6979,-0.9244,-1.058,-1.1935,-1.4181,-1.4701,-1.498,-1.6019,-1.6242,-1.6242,-1.6242,0.0,0.0,0.0,0.0,0.0,0.0,0.0,0.0,0.0,0.0,0.0,0.0,0.0,0.0,0.0,0.0,0.0,0.0,0.0,0.0,0.0,0.0,0.0,0.0,-1.9002,-1.9002,-1.9002,-1.9002,-1.9036,-1.9087,-1.9001,-1.8913,-1.8825,-1.8789,-1.8825,-1.8932,-1.8984,-1.8967,-1.8896,-1.8542,-1.8159,-1.7811,-1.7811,-1.7811,-1.7811,-1.7811,-1.7811,-1.7789,-1.7737,-1.7599,-1.7515,-1.7515,-1.7515,-1.7515,-1.7515,-1.7646,-1.7381,-1.5589,-1.5469,-1.55,-1.4317,-1.3886,-1.3735,-1.3735,-1.3735,-1.3735,-1.3735,-1.3735,-1.3704,-1.3559,-1.3462,-1.3396,-1.3396,-1.3396,-1.3446,-1.3527,-1.3672,-1.3735,-1.3735,-1.3735,-1.3735,-1.3735,-1.3843,-1.3933,-1.4016,-1.3947,-1.3973,-1.4181,-1.4141,-1.41,-1.41,-1.41,-1.41,-1.41,-1.41,-1.41,-1.41,-1.41,-1.41,-0.891,-0.9801,-0.9801,-0.9801,-1.227,-1.4701,-1.4738,-1.4738,-1.5666,-1.8933,-1.9602,-1.9602,-1.9602,0.0,0.0,0.0,0.0,0.0,0.0,0.0,0.0,0.0,0.0,0.0,0.0,0.0,0.0,0.0,0.0,0.0,0.0,0.0,0.0,0.0,0.0,0.0,0.0,-1.8788,-1.8788,-1.8788,-1.8788,-1.8896,-1.9087,-1.8966,-1.8825,-1.8697,-1.855,-1.8508,-1.8505,-1.8714,-1.8676,-1.8465,-1.8277,-1.8027,-1.7811,-1.7811,-1.7811,-1.7789,-1.7789,-1.7789,-1.7766,-1.7569,-1.7515,-1.7515,-1.7515,-1.7515,-1.7515,-1.7515,-1.7646,-1.7789,-1.7789,-1.843,-1.8208,-1.4715,-1.3641,-1.3396,-1.3396,-1.3396,-1.3396,-1.3396,-1.3396,-1.3396,-1.3396,-1.3396,-1.3396,-1.3396,-1.3396,-1.3396,-1.3396,-1.3396,-1.3396,-1.3396,-1.3396,-1.3396,-1.3396,-1.3721,-1.4002,-1.4281,-1.4044,-1.3888,-1.3888,-1.4016,-1.41,-1.41,-1.41,-1.41,-1.41,-1.41,-1.41,-1.41,-1.41,-1.41,-0.9541,-0.9801,-0.9801,-0.9801,-1.227,-1.5314,-1.7615,-1.8154,-1.8414,-1.9397,-1.9602,-1.9602,-1.9602,0.0,0.0,0.0,0.0,0.0,0.0,0.0,0.0,0.0,0.0,0.0,0.0,0.0,0.0,0.0,0.0,0.0,0.0,0.0,0.0,0.0,0.0,0.0,0.0,0.0,-1.86,-1.86,-1.86,-1.8677,-1.8878,-1.8698,-1.8567,-1.8485,-1.8293,-1.817,-1.8078,-1.8078,-1.8057,-1.7992,-1.7944,-1.7856,-1.7811,-1.7811,-1.7715,-1.7592,-1.7592,-1.7592,-1.7592,-1.7522,-1.7515,-1.7515,-1.7515,-1.7515,-1.7515,-1.7515,-1.7545,-1.7592,-1.7592,-1.7789,-1.7243,-1.438,-1.3544,-1.3396,-1.3396,-1.3396,-1.3396,-1.3396,-1.3396,-1.3396,-1.3396,-1.3396,-1.3396,-1.3396,-1.3396,-1.3396,-1.3396,-1.3396,-1.3396,-1.3396,-1.3396,-1.3396,-1.3396,-1.3576,-1.3776,-1.4002,-1.3809,-1.3655,-1.3545,-1.3669,-1.3865,-1.41,-1.41,-1.41,-1.41,-1.41,-1.41,-1.41,-1.41,-1.41,-0.9801,-0.9801,-1.0116,-1.1416,-1.3235,-1.5555,-1.884,0.0,0.0,0.0,-1.9602,-1.9602,0.0,0.0,0.0,0.0,0.0,0.0,0.0,0.0,0.0,0.0,0.0,0.0,0.0,0.0,0.0,0.0,0.0,0.0,0.0,0.0,0.0,0.0,0.0,0.0,0.0,0.0,-1.8383,-1.8383,-1.8345,-1.8406,-1.8505,-1.843,-1.833,-1.8201,-1.7975,-1.7822,-1.7789,-1.7789,-1.7811,-1.7811,-1.7811,-1.7811,-1.7789,-1.7715,-1.7599,-1.7515,-1.7515,-1.7515,-1.7515,-1.7515,-1.7515,-1.7515,-1.7515,-1.7515,-1.7515,-1.7515,-1.7515,-1.7515,-1.7515,-1.7515,-1.7096,-1.5525,-1.5158,-1.4817,-1.365,-1.3396,-1.3396,-1.3396,-1.3329,-1.3277,-1.3277,-1.4251,-1.502,-1.502,-1.4087,-1.3396,-1.3396,-1.3396,-1.3396,-1.3396,-1.3396,-1.3396,-1.3396,-1.3479,-1.4058,-1.5365,-1.4246,-1.3462,-1.3294,-1.3446,-1.3638,-1.3894,-1.3894,-1.3894,-1.3894,-1.397,-1.4044,-1.41,-1.41,-1.41,-0.9708,-1.0024,-1.0952,-1.394,-1.4924,0.0,-1.8915,-1.9602,-1.9602,-1.9602,0.0,0.0,0.0,0.0,0.0,0.0,0.0,0.0,0.0,0.0,0.0,0.0,0.0,0.0,0.0,0.0,0.0,0.0,0.0,0.0,0.0,0.0,0.0,0.0,0.0,0.0,0.0,-1.8151,-1.8168,0.0,-1.8091,-1.807,-1.8048,-1.8121,-1.804,-1.7839,-1.7606,-1.7512,-1.7616,-1.7721,-1.7789,-1.7766,-1.7766,-1.7766,-1.7743,-1.7569,-1.7515,-1.7515,-1.7515,-1.7515,-1.7515,-1.7515,-1.7515,-1.7515,-1.7515,-1.7515,-1.7515,-1.7515,-1.7515,-1.7515,-1.7515,-1.7515,-1.7515,-1.7515,-1.7646,-1.7067,-1.4395,-1.3803,-1.3785,-1.3768,-1.3626,-1.3499,-1.3499,-1.5719,-1.7515,-1.7522,-1.5389,-1.3803,-1.3803,-1.3803,-1.3803,-1.3803,-1.3803,-1.3803,-1.3803,-1.3803,-1.4936,-1.7642,-1.5271,-1.3562,-1.3118,-1.3277,-1.3429,-1.3557,-1.3557,-1.3557,-1.3557,-1.3765,-1.393,-1.41,-1.41,-1.4242,-0.9095,-1.1676,0.0,-1.4516,-1.6632,-1.8729,-1.9434,-1.9602,-1.9602,-1.9602,0.0,0.0,0.0,0.0,0.0,0.0,0.0,0.0,0.0,0.0,0.0,0.0,0.0,0.0,0.0,0.0,0.0,0.0,0.0,0.0,0.0,0.0,0.0,0.0,0.0,0.0,-1.7895,-1.7895,-1.7856,0.0,-1.7777,-1.7726,-1.7612,-1.7811,-1.7789,-1.7582,-1.7536,-1.7505,-1.7522,-1.7606,-1.7606,-1.7569,-1.7569,-1.7569,-1.7569,-1.7515,-1.7515,-1.7515,-1.7515,-1.7515,-1.7515,-1.7515,-1.7515,-1.7515,-1.7515,-1.7515,-1.7515,-1.7515,-1.7515,-1.7515,-1.7515,-1.7515,-1.7515,-1.7515,-1.7646,-1.7642,-1.6999,-1.6864,-1.68,-1.6642,-1.6592,-1.6547,-1.6547,-1.7084,-1.7545,-1.7715,-1.7226,-1.6864,-1.6864,-1.6864,-1.6864,-1.6864,-1.6864,-1.6864,-1.6864,-1.6864,-1.7134,-1.7755,-1.706,-1.5545,-1.3201,-1.3137,-1.3173,-1.3208,-1.3208,-1.3208,-1.3208,-1.3413,-1.3702,-1.41,-1.41,-1.5419,-0.8903,-1.1044,0.0,-1.4311,0.0,-1.9602,-1.9602,-1.9602,-1.9569,0.0,0.0,0.0,0.0,0.0,0.0,0.0,0.0,0.0,0.0,0.0,0.0,0.0,0.0,0.0,0.0,0.0,0.0,0.0,0.0,0.0,0.0,0.0,0.0,0.0,0.0,-1.8027,-1.7811,-1.7811,-1.7772,-1.771,-1.7681,-1.7589,-1.7505,-1.7599,-1.7599,-1.7505,-1.7505,-1.7498,-1.7498,-1.7529,-1.7529,-1.7515,-1.7515,-1.7515,-1.7515,-1.7515,-1.7515,-1.7515,-1.7515,-1.7515,-1.7515,-1.7515,-1.7515,-1.7515,-1.7515,-1.7515,-1.7515,-1.7515,-1.7515,-1.7515,-1.7515,-1.7515,-1.7515,-1.7515,-1.7592,-1.7646,-1.7646,-1.7646,-1.7639,-1.7522,-1.7515,-1.7515,-1.7515,-1.7515,-1.7522,-1.7646,-1.7646,-1.7646,-1.7646,-1.7646,-1.7646,-1.7646,-1.7646,-1.7646,-1.7646,-1.7646,-1.7646,-1.7646,-1.7569,-1.6795,-1.5271,-1.5205,-1.5205,-1.5205,-1.5205,-1.5205,-1.5205,-1.5412,-1.5796,-1.6346,-1.6346,-1.7219,-0.8884,-1.0202,-1.1304,-1.4014,-1.717,0.0,-1.9602,-1.9569,0.0,0.0,0.0,0.0,0.0,0.0,0.0,0.0,0.0,0.0,0.0,0.0,0.0,0.0,0.0,0.0,0.0,0.0,0.0,0.0,0.0,0.0,0.0,0.0,0.0,0.0,-1.8159,-1.7988,-1.7811,-1.7811,-1.7749,-1.7687,-1.7612,-1.7536,-1.7515,-1.7515,-1.7515,-1.7515,-1.7515,-1.7515,-1.7515,-1.7515,-1.7515,-1.7515,-1.7515,-1.7515,-1.7515,-1.7515,-1.7515,-1.7515,-1.7515,-1.7515,-1.7515,-1.7515,-1.7515,-1.7515,-1.7515,-1.7515,-1.7515,-1.7515,-1.7515,-1.7515,-1.7515,-1.7515,-1.7515,-1.7515,-1.7515,-1.7515,-1.7515,-1.7515,-1.7515,-1.7515,-1.7515,-1.7515,-1.7515,-1.7515,-1.7515,-1.7515,-1.7515,-1.7515,-1.7515,-1.7515,-1.7515,-1.7515,-1.7515,-1.7515,-1.7515,-1.7515,-1.7515,-1.7515,-1.7515,-1.7515,-1.7515,-1.7515,-1.7515,-1.7515,-1.7515,-1.7515,-1.7515,-1.7715,-1.8142,-1.8788,-1.8788,-1.8788,-0.8824,0.0,-1.4144,0.0,-1.717,-1.9602,0.0,0.0,0.0,0.0,0.0,0.0,0.0,0.0,0.0,0.0,0.0,0.0,0.0,0.0,0.0,0.0,0.0,0.0,0.0,0.0,0.0,0.0,0.0,0.0,0.0,0.0,-1.8388,-1.8132,-1.8035,-1.7939,-1.7811,-1.7811,-1.7743,-1.7612,-1.7552,-1.7498,-1.7515,-1.7515,-1.7515,-1.7515,-1.7515,-1.7515,-1.7515,-1.7515,-1.7515,-1.7515,-1.7515,-1.7515,-1.7515,-1.7515,-1.7515,-1.7515,-1.7515,-1.7515,-1.7515,-1.7515,-1.7515,-1.7515,-1.7515,-1.7515,-1.7515,-1.7515,-1.7515,-1.7515,-1.7515,-1.7515,-1.7515,-1.7515,-1.7515,-1.7515,-1.7515,-1.7515,-1.7515,-1.7515,-1.7515,-1.7515,-1.7515,-1.7515,-1.7515,-1.7515,-1.7515,-1.7515,-1.7515,-1.7515,-1.7515,-1.7515,-1.7515,-1.7515,-1.7515,-1.7515,-1.7515,-1.7515,-1.7515,-1.7515,-1.7515,-1.7515,-1.7515,-1.7515,-1.7515,-1.7515,-1.7515,-1.7715,-1.8142,-1.8788,-1.8788,-1.8788,-0.8796,-1.2151,-1.4701,0.0,-1.717,-1.9602,-1.9602,0.0,0.0,0.0,0.0,0.0,0.0,0.0,0.0,0.0,0.0,0.0,0.0,0.0,0.0,0.0,0.0,0.0,0.0,0.0,0.0,0.0,0.0,0.0,0.0,-1.8428,-1.8246,-1.8057,-1.7988,0.0,-1.7811,-1.7749,-1.7681,-1.7542,-1.7505,-1.7515,-1.7515,-1.7515,-1.7515,-1.7515,-1.7515,-1.7515,-1.7515,-1.7515,-1.7515,-1.7515,-1.7515,-1.7515,-1.7515,-1.7515,-1.7515,-1.7515,-1.7515,-1.7515,-1.7515,-1.7515,-1.7515,-1.7515,-1.7515,-1.7515,-1.7515,-1.7515,-1.7515,-1.7515,-1.7515,-1.7515,-1.7515,-1.7515,-1.7515,-1.7515,-1.7515,-1.7515,-1.7515,-1.7515,-1.7515,-1.7515,-1.7515,-1.7515,-1.7515,-1.7515,-1.7515,-1.7515,-1.7515,-1.7515,-1.7515,-1.7515,-1.7515,-1.7515,-1.7515,-1.7515,-1.7515,-1.7515,-1.7515,-1.7515,-1.7515,-1.7515,-1.7515,-1.7515,-1.7515,-1.7515,-1.7515,-1.7715,-1.8031,-1.848,-1.8581,-1.8695,-0.8727,-1.2133,-1.4701,-1.4701,-1.6539,-1.8562,0.0,0.0,0.0,0.0,0.0,0.0,0.0,0.0,0.0,0.0,0.0,0.0,0.0,0.0,0.0,0.0,0.0,0.0,0.0,0.0,0.0,0.0,0.0,0.0,-1.8485,-1.8266,-1.8078,-1.7961,-1.79,-1.7839,-1.7789,-1.7704,-1.7612,-1.7512,-1.7498,-1.7515,-1.7515,-1.7515,-1.7515,-1.7515,-1.7515,-1.7515,-1.7515,-1.7515,-1.7515,-1.7515,-1.7515,-1.7515,-1.7515,-1.7515,-1.7515,-1.7515,-1.7515,-1.7515,-1.7515,-1.7515,-1.7515,-1.7515,-1.7515,-1.7515,-1.7515,-1.7515,-1.7515,-1.7515,-1.7515,-1.7515,-1.7515,-1.7515,-1.7515,-1.7515,-1.7515,-1.7515,-1.7515,-1.7515,-1.7515,-1.7515,-1.7515,-1.7515,-1.7515,-1.7515,-1.7515,-1.7515,-1.7515,-1.7515,-1.7515,-1.7515,-1.7515,-1.7515,-1.7515,-1.7515,-1.7515,-1.7515,-1.7515,-1.7515,-1.7515,-1.7515,-1.7515,-1.7515,-1.7515,-1.7515,-1.7515,-1.7646,-1.7828,-1.8022,-1.8222,-1.8485,-0.8592,-1.2059,-1.4701,-1.4701,-1.4831,0.0,0.0,0.0,0.0,0.0,0.0,0.0,0.0,0.0,0.0,0.0,0.0,0.0,0.0,0.0,0.0,0.0,0.0,0.0,0.0,0.0,0.0,0.0,0.0,0.0,-1.8406,-1.8142,-1.7949,-1.7811,-1.7811,-1.7772,-1.771,-1.7566,-1.7512,-1.7512,-1.7498,-1.7515,-1.7515,-1.7515,-1.7515,-1.7515,-1.7515,-1.7515,-1.7515,-1.7515,-1.7515,-1.7515,-1.7515,-1.7515,-1.7515,-1.7515,-1.7515,-1.7515,-1.7515,-1.7515,-1.7515,-1.7515,-1.7515,-1.7515,-1.7515,-1.7515,-1.7515,-1.7515,-1.7515,-1.7515,-1.7515,-1.7515,-1.7515,-1.7515,-1.7515,-1.7515,-1.7515,-1.7515,-1.7515,-1.7515,-1.7515,-1.7515,-1.7515,-1.7515,-1.7515,-1.7515,-1.7515,-1.7515,-1.7515,-1.7515,-1.7515,-1.7515,-1.7515,-1.7515,-1.7515,-1.7515,-1.7515,-1.7515,-1.7515,-1.7515,-1.7515,-1.7515,-1.7515,-1.7515,-1.7515,-1.7515,-1.7515,-1.7498,-1.7522,-1.7522,-1.7743,-1.8184,-0.6072,-0.8839,0.0,-1.1469,-1.1512,-1.2382,0.0,0.0,0.0,0.0,0.0,0.0,0.0,0.0,0.0,0.0,0.0,0.0,0.0,0.0,0.0,0.0,0.0,0.0,0.0,0.0,0.0,0.0,0.0,0.0,-1.8031,-1.7949,-1.7883,-1.7811,-1.7749,-1.7681,-1.7566,-1.7519,-1.7489,-1.7498,-1.7498,-1.7467,-1.7419,-1.7378,-1.7346,-1.7298,-1.7306,-1.7378,-1.7515,-1.7515,-1.7515,-1.7515,-1.7515,-1.7515,-1.7491,-1.7306,-1.7117,-1.6933,-1.7166,-1.7371,-1.7515,-1.7515,-1.7378,-1.7232,-1.7232,-1.7232,-1.7232,-1.7232,-1.7232,-1.7281,-1.7467,-1.7515,-1.7467,-1.7281,-1.7378,-1.7515,-1.7515,-1.7515,-1.7515,-1.7515,-1.7515,-1.7515,-1.7515,-1.7515,-1.7515,-1.7515,-1.7515,-1.7515,-1.7515,-1.7515,-1.7515,-1.7515,-1.7515,-1.7515,-1.7515,-1.7515,-1.7515,-1.7515,-1.7515,-1.7515,-1.7515,-1.7515,-1.7515,-1.7515,-1.7515,-1.7515,-1.7515,-1.7515,-1.7515,-1.7498,-1.7715,-1.8009,-0.4604,-0.6197,0.0,0.0,0.0,0.0,0.0,0.0,0.0,0.0,0.0,0.0,0.0,0.0,0.0,0.0,0.0,0.0,0.0,0.0,0.0,0.0,0.0,0.0,0.0,0.0,0.0,0.0,0.0,0.0,-1.7811,-1.7856,-1.7856,-1.7772,-1.7681,-1.7589,-1.7512,-1.7489,-1.7498,-1.7515,-1.7515,-1.7467,-1.7346,-1.724,-1.7141,-1.7083,-1.7092,-1.7216,-1.7403,-1.7474,-1.7515,-1.7515,-1.7515,-1.7515,-1.7451,-1.7066,-1.6691,-1.6382,-1.6795,-1.7166,-1.7491,-1.7378,-1.7257,-1.7108,-1.7108,-1.7108,-1.7108,-1.7108,-1.7108,-1.7133,-1.7306,-1.7354,-1.7306,-1.7133,-1.7232,-1.7378,-1.7491,-1.7515,-1.7515,-1.7515,-1.7515,-1.7515,-1.7515,-1.7515,-1.7515,-1.7515,-1.7515,-1.7515,-1.7515,-1.7515,-1.7515,-1.7515,-1.7515,-1.7515,-1.7515,-1.7515,-1.7515,-1.7515,-1.7515,-1.7515,-1.7515,-1.7515,-1.7515,-1.7515,-1.7515,-1.7515,-1.7515,-1.7515,-1.7515,-1.7498,-1.7622,-1.7828,0.0,0.0,0.0,0.0,0.0,0.0,0.0,0.0,0.0,0.0,0.0,0.0,0.0,0.0,0.0,0.0,0.0,0.0,0.0,0.0,0.0,0.0,0.0,0.0,0.0,0.0,0.0,0.0,0.0,-1.7811,-1.7811,-1.7811,-1.7772,-1.771,-1.7566,-1.7512,-1.7512,-1.7498,-1.7515,-1.7491,-1.7491,-1.7403,-1.7281,-1.7084,-1.6917,-1.6789,-1.6857,-1.7,-1.7216,-1.7403,-1.7515,-1.7515,-1.7474,-1.7474,-1.7403,-1.6805,-1.6246,-1.5885,-1.6409,-1.6975,-1.7427,-1.7183,-1.7083,-1.7108,-1.7083,-1.7083,-1.7083,-1.7083,-1.7083,-1.7083,-1.7083,-1.7083,-1.7083,-1.7108,-1.7083,-1.7158,-1.7403,-1.7491,-1.7474,-1.7515,-1.7581,-1.7631,-1.7631,-1.7631,-1.7631,-1.7631,-1.7631,-1.7631,-1.7631,-1.7631,-1.7631,-1.7631,-1.7631,-1.7631,-1.7631,-1.7631,-1.7631,-1.7631,-1.7631,-1.7598,-1.7515,-1.7515,-1.7515,-1.7515,-1.7515,-1.7515,-1.7515,-1.7515,-1.7515,-1.7515,-1.7515,-1.7599,-0.4496,0.0,0.0,0.0,0.0,0.0,0.0,0.0,0.0,0.0,0.0,0.0,0.0,0.0,0.0,0.0,0.0,0.0,0.0,0.0,0.0,0.0,0.0,0.0,0.0,0.0,0.0,0.0,0.0,-1.7811,-1.7811,-1.7749,-1.7704,-1.7635,-1.7542,-1.7489,-1.7498,-1.7498,-1.7467,-1.7436,-1.7395,-1.724,-1.6993,-1.6789,-1.6686,-1.6649,-1.6479,-1.6532,-1.6805,-1.7289,-1.7515,-1.7491,-1.7281,-1.7066,-1.6779,-1.6234,-1.5926,-1.5827,-1.5955,-1.6382,-1.6847,-1.6753,-1.6914,-1.7041,-1.6821,-1.6612,-1.6441,-1.6441,-1.6441,-1.6479,-1.6691,-1.6727,-1.6795,-1.7057,-1.6898,-1.6753,-1.6831,-1.7041,-1.7257,-1.7451,-1.9164,-2.0605,-2.0605,-2.0605,-2.0605,-2.0605,-2.0605,-2.0605,-2.0605,-2.0605,-2.0605,-2.0605,-2.0605,-2.0605,-2.0605,-2.0605,-2.0605,-2.0605,-2.0605,-1.9661,-1.7598,-1.7515,-1.7515,-1.7515,-1.7515,-1.7515,-1.7515,-1.7515,-1.7515,-1.7515,-1.7515,-1.7599,-0.6423,-0.6423,0.0,0.0,0.0,0.0,0.0,0.0,0.0,0.0,0.0,0.0,0.0,0.0,0.0,0.0,0.0,0.0,0.0,0.0,0.0,0.0,0.0,0.0,0.0,0.0,0.0,0.0,-1.7811,-1.7811,-1.7811,-1.7704,-1.7658,-1.7612,-1.7536,-1.7498,-1.7515,-1.7515,-1.7467,-1.7346,-1.7216,-1.7075,-1.6892,-1.6607,-1.6463,-1.6425,-1.6166,-1.6123,-1.6301,-1.6769,-1.7166,-1.7451,-1.7041,-1.6543,-1.6024,-1.5712,-1.5595,-1.5595,-1.5595,-1.5784,-1.608,-1.6219,-1.6639,-1.7032,-1.6559,-1.6151,-1.5827,-1.5827,-1.5827,-1.587,-1.6024,-1.6163,-1.6409,-1.6965,-1.6759,-1.6355,-1.6108,-1.7171,-1.8361,-1.8985,-2.0439,-2.1587,-2.1587,-2.1587,-2.1587,-2.1587,-2.1587,-2.1587,-2.1587,-2.1587,-2.1587,-2.1587,-2.1738,-2.1797,-2.1797,-2.1797,-2.1797,-2.1797,-2.1797,-2.1036,-1.9346,-1.928,-1.928,-1.928,-1.8112,-1.7515,-1.7515,-1.7515,-1.7515,-1.7515,-1.7515,-1.7599,-0.9109,-0.9109,-0.9109,0.0,0.0,0.0,-0.8477,-0.9109,0.0,0.0,0.0,0.0,0.0,0.0,0.0,0.0,0.0,0.0,0.0,0.0,0.0,0.0,0.0,0.0,0.0,0.0,0.0,-1.7811,-1.7811,-1.7811,-1.7811,-1.7658,-1.7612,-1.7589,-1.7505,-1.7474,-1.7467,-1.7451,-1.7378,-1.7257,-1.7059,-1.6942,-1.6831,-1.6463,-1.6262,-1.6194,-1.5913,-1.5799,-1.5827,-1.6055,-1.6639,-1.7338,-1.6753,-1.6024,-1.5313,-1.5313,-1.5313,-1.5313,-1.5313,-1.5313,-1.5373,-1.5683,-1.6344,-1.6889,-1.6332,-1.5755,-1.5313,-1.5313,-1.5313,-1.5313,-1.5313,-1.5536,-1.5998,-1.6811,-1.6575,-1.6074,-1.5784,-1.7811,-1.9995,-2.099,-2.1246,-2.1309,-2.1309,-2.1309,-2.1309,-2.1309,-2.1309,-2.1309,-2.1309,-2.1309,-2.1309,-2.1309,-2.1587,-2.1751,-2.1797,-2.1797,-2.1797,-2.1797,-2.1797,-2.1797,-2.1797,-2.1797,-2.1797,-2.1797,-1.8974,-1.7664,-1.7996,-1.7996,-1.7996,-1.7996,-1.793,-1.7869,-0.9109,-0.9109,-0.9109,-0.9109,0.0,0.0,0.0,-0.9109,0.0,0.0,0.0,0.0,0.0,0.0,0.0,0.0,0.0,0.0,0.0,0.0,0.0,0.0,0.0,0.0,0.0,0.0,-1.7811,-1.7811,-1.7811,-1.7811,-1.7811,-1.7658,-1.7589,-1.7526,-1.7394,-1.7306,-1.7248,-1.715,-1.7034,-1.6908,-1.6908,-1.6805,-1.6559,-1.6316,-1.6222,-1.6194,-1.5913,-1.5799,-1.5799,-1.5856,-1.6219,-1.6727,-1.6163,-1.5683,-1.5313,-1.5313,-1.5313,-1.5313,-1.5313,-1.5313,-1.5373,-1.5683,-1.6055,-1.6305,-1.597,-1.5595,-1.5313,-1.5313,-1.5313,-1.5313,-1.5313,-1.5536,-1.5885,-1.6262,-1.6139,-1.6338,-1.7981,-1.9081,-1.9869,-2.0392,-2.0925,-2.1309,-2.1309,-2.1309,-2.1309,-2.1309,-2.1309,-2.1309,-2.1309,-2.1309,-2.1309,-2.1309,-2.134,-2.1495,-2.1797,-2.1797,-2.1797,-2.1797,-2.1797,-2.1797,-2.1797,-2.1797,-2.1797,-2.1797,-1.8974,-1.8634,-2.0953,-2.0953,-2.0953,-2.0953,-2.0692,-1.9492,-1.1343,-1.1343,-1.1343,-1.1343,0.0,0.0,0.0,0.0,0.0,0.0,0.0,0.0,0.0,0.0,0.0,0.0,0.0,0.0,0.0,0.0,0.0,0.0,0.0,0.0,0.0,0.0,-1.7811,-1.7811,-1.7811,-1.7811,-1.7811,-1.7698,-1.7612,-1.7612,-1.741,-1.7232,-1.7117,-1.7034,-1.6968,-1.6892,-1.6882,-1.6753,-1.6532,-1.6151,-1.5998,-1.5998,-1.5856,-1.5799,-1.5799,-1.5799,-1.587,-1.5911,-1.5654,-1.5462,-1.5313,-1.5313,-1.5313,-1.5313,-1.5313,-1.5313,-1.5343,-1.5507,-1.5624,-1.5741,-1.5595,-1.5418,-1.5313,-1.5313,-1.5313,-1.5313,-1.5313,-1.5418,-1.5566,-1.5712,-1.6618,-1.7753,-1.8862,-1.925,-1.9472,-1.9639,-1.998,-2.0326,-2.0728,-2.0958,-2.1119,-2.1277,-2.1309,-2.1309,-2.1309,-2.1309,-2.1309,-2.1309,-2.1309,-2.1433,-2.1768,-2.1797,-2.1738,-2.1556,-2.1708,-2.1797,-2.1797,-2.1797,-2.1738,-2.154,-2.0119,-2.0131,-2.1556,-2.1556,-2.1556,-2.1556,-2.1371,-2.0624,0.0,0.0,0.0,0.0,0.0,-0.9109,0.0,0.0,0.0,0.0,0.0,0.0,0.0,0.0,0.0,0.0,0.0,0.0,0.0,0.0,0.0,0.0,0.0,0.0,0.0,0.0,-1.7388,-1.7388,-1.7507,-1.7591,-1.7591,-1.7653,-1.7652,-1.7629,-1.7362,-1.7125,-1.6968,-1.6933,-1.6866,-1.6841,-1.6789,-1.6686,-1.6517,-1.6011,-1.5799,-1.5799,-1.5799,-1.5799,-1.5799,-1.5799,-1.5595,-1.5313,-1.5313,-1.5313,-1.5313,-1.5313,-1.5313,-1.5313,-1.5313,-1.5313,-1.5313,-1.5313,-1.5313,-1.5313,-1.5313,-1.5313,-1.5313,-1.5313,-1.5313,-1.5429,-1.5908,-1.6039,-1.6039,-1.6039,-1.7606,-1.9101,-1.9101,-1.9101,-1.9101,-1.9101,-1.9101,-1.9325,-1.994,-2.0357,-2.0745,-2.1214,-2.1309,-2.1309,-2.1309,-2.1309,-2.1309,-2.1309,-2.1309,-2.1433,-2.1768,-2.1721,-2.1587,-2.1309,-2.154,-2.1738,-2.1797,-2.1738,-2.1587,-2.1325,-2.1309,-2.1309,-2.1309,-2.1309,-2.1309,-2.1309,-2.1309,-2.1309,0.0,0.0,0.0,0.0,-1.1326,0.0,0.0,0.0,0.0,0.0,0.0,0.0,0.0,0.0,0.0,0.0,0.0,0.0,0.0,0.0,0.0,0.0,0.0,0.0,0.0,0.0,0.0,-1.5849,-1.6462,-1.6834,-1.6834,-1.7328,-1.7566,-1.7448,-1.7043,-1.6866,-1.6908,-1.6628,-1.6429,-1.6289,-1.6517,-1.649,-1.625,-1.5942,-1.5799,-1.5799,-1.5799,-1.5799,-1.5799,-1.5799,-1.5595,-1.5313,-1.5313,-1.5313,-1.5313,-1.5313,-1.5313,-1.5313,-1.5313,-1.5313,-1.5313,-1.5313,-1.5313,-1.5313,-1.5313,-1.5313,-1.5313,-1.5313,-1.5313,-1.5835,-1.8085,-1.8666,-1.8666,-1.8666,-1.8883,-1.9101,-1.9101,-1.9101,-1.9101,-1.9101,-1.9101,-1.9139,-1.9213,-1.9566,-2.017,-2.1151,-2.1309,-2.1309,-2.1309,-2.1309,-2.1309,-2.1309,-2.1309,-2.1433,-2.1768,-2.1526,-2.134,-2.1309,-2.134,-2.1495,-2.1797,-2.1526,-2.134,-2.1309,-2.1309,-2.1309,-2.1309,-2.1309,-2.1309,-2.1309,-2.1309,-2.1309,0.0,0.0,0.0,0.0,0.0,0.0,0.0,0.0,-0.9599,0.0,0.0,0.0,0.0,0.0,0.0,0.0,0.0,0.0,0.0,0.0,0.0,0.0,0.0,0.0,0.0,0.0,0.0,0.0,0.0,-1.6201,-1.6682,-1.7361,-1.7612,-1.7408,-1.6866,-1.6463,-1.6246,-1.6139,-1.6026,-1.597,-1.6067,-1.6067,-1.597,-1.5856,-1.5799,-1.5799,-1.5799,-1.5799,-1.5799,-1.5799,-1.5595,-1.5313,-1.5313,-1.5313,-1.5313,-1.5313,-1.5313,-1.5313,-1.5313,-1.5313,-1.5313,-1.5313,-1.5313,-1.5313,-1.5313,-1.5313,-1.5313,-1.5313,-1.6372,-1.7751,-1.8825,-1.9101,-1.9101,-1.9101,-1.9101,-1.9101,-1.9101,-1.9101,-1.9101,-1.9101,-1.9101,-1.9101,-1.9101,-1.942,-1.9925,-2.0628,-2.0893,-2.1087,-2.1277,-2.1309,-2.1309,-2.1309,-2.1309,-2.134,-2.1495,-2.1371,-2.1309,-2.1309,-2.1309,-2.1371,-2.1495,-2.1371,-2.1309,-2.1309,-2.1309,-2.1309,-2.1309,-2.1309,-2.1309,-2.1309,-2.1309,-2.1309,-1.8211,0.0,0.0,0.0,0.0,0.0,0.0,0.0,0.0,0.0,0.0,0.0,0.0,0.0,0.0,0.0,0.0,0.0,0.0,0.0,0.0,0.0,0.0,0.0,0.0,0.0,0.0,0.0,0.0,0.0,-1.6281,-1.7036,-1.7388,-1.732,-1.6738,-1.6262,-1.5913,-1.5827,-1.5799,-1.5799,-1.5799,-1.5799,-1.5799,-1.5799,-1.5799,-1.5799,-1.5799,-1.5799,-1.5799,-1.5799,-1.5595,-1.5385,-1.6082,-1.6343,-1.6271,-1.5574,-1.5748,-1.6343,-1.6343,-1.5893,-1.5313,-1.5313,-1.5313,-1.5313,-1.5313,-1.5313,-1.5458,-1.6155,-1.7679,-1.9101,-1.9101,-1.9101,-1.9101,-1.9101,-1.9101,-1.9101,-1.9101,-1.9101,-1.9101,-1.9101,-1.9101,-1.9101,-1.9101,-1.9362,-1.9654,-1.994,-2.0273,-2.0679,-2.1214,-2.1309,-2.1309,-2.1309,-2.1309,-2.1309,-2.1309,-2.1309,-2.1309,-2.1309,-2.1309,-2.1309,-2.1309,-2.1371,-2.1402,-2.1309,-2.1309,-2.1309,-2.1309,-2.1309,-2.1309,-2.1309,-2.1309,-2.1309,0.0,0.0,0.0,-1.4382,0.0,0.0,0.0,0.0,-1.3454,0.0,0.0,0.0,0.0,0.0,-1.3362,-1.3278,0.0,0.0,0.0,0.0,0.0,0.0,0.0,0.0,0.0,0.0,0.0,0.0,0.0,0.0,-1.5385,-1.6092,-1.6657,-1.7093,-1.6722,-1.6409,-1.6194,-1.5942,-1.5799,-1.5799,-1.5799,-1.5799,-1.5799,-1.5799,-1.5799,-1.5799,-1.5799,-1.5799,-1.5799,-1.5799,-1.5595,-1.556,-1.8027,-1.8985,-1.868,-1.6213,-1.6866,-1.8985,-1.8985,-1.7374,-1.5313,-1.5313,-1.5313,-1.5313,-1.5313,-1.5313,-1.5821,-1.8288,-1.9043,-1.9101,-1.9101,-1.9101,-1.9101,-1.9101,-1.9101,-1.9101,-1.9101,-1.9101,-1.9101,-1.9101,-1.9101,-1.9101,-1.9101,-1.9101,-1.9139,-1.9139,-1.9472,-2.012,-2.1183,-2.1309,-2.1309,-2.1309,-2.1309,-2.1309,-2.1309,-2.1309,-2.1309,-2.1309,-2.1309,-2.1309,-2.1309,-2.1617,-2.1648,-2.1325,-2.1309,-2.1309,-2.1309,-2.1309,-2.1309,-2.1309,-2.1309,-2.1309,0.0,0.0,-1.7469,-1.4382,0.0,0.0,0.0,0.0,0.0,0.0,0.0,0.0,0.0,0.0,-1.3396,-1.3396,-1.0873,0.0,0.0,0.0,0.0,0.0,0.0,0.0,0.0,0.0,0.0,0.0,0.0,0.0,0.0,-1.6055,-1.7229,-1.7296,-1.6841,-1.6436,-1.6194,-1.5942,-1.5799,-1.5799,-1.5799,-1.5799,-1.5799,-1.5799,-1.5799,-1.5799,-1.5799,-1.6788,-1.8392,-1.8392,-1.8155,-1.7911,-1.8767,-1.9101,-1.8999,-1.8129,-1.8361,-1.9101,-1.9101,-1.855,-1.7548,-1.5864,-1.5313,-1.5313,-1.5313,-1.6488,-1.7998,-1.8854,-1.9101,-1.9101,-1.9101,-1.9101,-1.9101,-1.9101,-1.9101,-1.9101,-1.9101,-1.9101,-1.9101,-1.9101,-1.9101,-1.9101,-1.9101,-1.9101,-1.9101,-1.9101,-1.9435,-2.01,-2.1151,-2.1309,-2.1309,-2.1309,-2.1309,-2.1309,-2.1309,-2.1309,-2.1309,-2.1309,-2.1309,-2.1309,-2.1309,-2.1402,-2.1433,-2.1309,-2.1309,-2.1309,-2.1309,-2.1309,-2.1309,-2.1309,-2.1309,-2.1309,-1.8005,-1.813,0.0,0.0,-1.3565,0.0,-1.3193,0.0,0.0,0.0,0.0,0.0,0.0,0.0,-1.4614,-1.3566,-1.0873,-0.8891,0.0,0.0,0.0,0.0,0.0,0.0,0.0,0.0,-1.0252,-1.0252,0.0,0.0,0.0,0.0,-1.6809,-1.7101,-1.6738,-1.6382,-1.6095,-1.5913,-1.5799,-1.5799,-1.5799,-1.5799,-1.5799,-1.5799,-1.5799,-1.5844,-1.6788,-1.8152,-1.969,-1.969,-1.9545,-1.9325,-1.9325,-1.925,-1.9101,-1.9101,-1.9101,-1.9101,-1.9101,-1.9101,-1.884,-1.72,-1.6663,-1.6663,-1.6663,-1.7795,-1.9101,-1.9101,-1.9101,-1.9101,-1.9101,-1.9101,-1.9101,-1.9101,-1.9101,-1.9064,-1.8912,-1.8988,-1.9101,-1.9101,-1.9101,-1.9101,-1.9101,-1.9101,-1.9101,-1.9101,-1.9435,-2.01,-2.1151,-2.1309,-2.1309,-2.1309,-2.1309,-2.1309,-2.1309,-2.1309,-2.1309,-2.1309,-2.1309,-2.1309,-2.1309,-2.1309,-2.1309,-2.1309,-2.1309,-2.1309,-2.1309,-2.1309,-2.1309,-2.1309,-2.1309,-2.1309]},{"header":{"parameterUnit":"m.s-1","parameterCategory":1,"la1":30.6,"la2":29.2853,"lo1":-89.7004,"lo2":-87.6739,"dy":0.0162,"dx":0.0183,"nx":112,"ny":82,"refTime":"2026-05-16T12:00:00:Z","depth":0,"parameterNumber":3,"parameterNumberName":"V-component_of_WINDS"},"data":[0.0,0.0,0.0,0.0,0.0,0.0,0.0,0.0,0.0,0.0,0.0,0.0,0.0,0.0,0.0,0.0,0.0,0.0,0.0,0.0,0.0,0.0,0.0,0.0,0.0,0.0,0.0,0.0,0.0,0.0,0.0,0.0,0.0,0.0,0.0,0.0,0.0,0.0,0.0,0.0,0.0,0.0,0.0,0.0,0.0,0.0,0.0,0.0,0.0,0.0,0.0,0.0,0.0,0.0,0.0,0.0,0.0,0.0,0.0,0.0,0.0,0.0,0.0,0.0,0.0,0.0,0.0,0.0,0.0,0.0,0.0,0.0,0.0,0.0,0.0,0.0,0.0,0.0,0.0,0.0,0.0,0.0,0.0,0.0,0.0,0.0,0.0,0.0,0.0,0.0,0.0,-0.1824,-0.2665,-0.3135,-0.2963,-0.295,-0.3048,-0.3281,0.0,0.0,0.0,0.0,0.0,0.0,0.0,0.0,0.0,0.0,0.0,0.0,0.0,0.0,0.0,0.0,0.0,0.0,0.0,0.0,0.0,0.0,0.0,0.0,0.0,0.0,0.0,0.0,0.0,0.0,0.0,0.0,0.0,0.0,0.0,0.0,0.0,0.0,0.0,0.0,0.0,0.0,0.0,0.0,0.0,0.0,0.0,0.0,0.0,0.0,0.0,0.0,0.0,0.0,0.0,0.0,0.0,0.0,0.0,0.0,0.0,0.0,0.0,0.0,0.0,0.0,0.0,0.0,0.0,0.0,0.0,0.0,0.0,0.0,0.0,0.0,0.0,0.0,0.0,0.0,0.0,0.0,0.0,0.0,0.0,0.0,0.0,0.0,0.0,0.0,0.0,0.0,0.0,0.0,0.0,0.0,0.0,0.0,0.0,0.0,0.0,0.0,0.0,0.0,-0.1952,-0.2862,-0.3102,-0.2834,-0.1926,-0.1836,-0.2231,-0.3165,0.0,0.0,0.0,0.0,0.0,0.0,0.0,0.0,0.0,0.0,0.0,0.0,0.0,0.0,0.0,0.0,0.0,0.0,0.0,0.0,0.0,0.0,0.0,0.0,0.0,0.0,0.0,0.0,0.0,0.0,0.0,0.0,0.0,0.0,0.0,0.0,0.0,0.0,0.0,0.0,0.0,0.0,0.0,0.0,0.0,0.0,0.0,0.0,0.0,0.0,0.0,0.0,0.0,0.0,0.0,0.0,0.0,0.0,0.0,0.0,0.0,0.0,0.0,0.0,0.0,0.0,0.0,0.0,0.0,0.0,0.0,0.0,0.0,0.0,0.0,0.0,0.0,0.0,0.0,0.0,0.0,0.0,0.0,0.0,0.0,0.0,0.0,0.0,0.0,0.0,0.0,0.0,0.0,0.0,0.0,0.0,0.0,0.0,0.0,0.0,0.0,0.0,0.0,-0.0872,-0.1928,-0.3082,-0.2677,-0.237,-0.246,-0.1928,-0.2061,-0.3138,-0.3266,0.0,0.0,0.0,0.0,0.0,0.0,0.0,0.0,0.0,0.0,0.0,0.0,0.0,0.0,0.0,0.0,0.0,0.0,0.0,0.0,0.0,0.0,0.0,0.0,0.0,0.0,0.0,0.0,0.0,0.0,0.0,0.0,0.0,0.0,0.0,0.0,0.0,0.0,0.0,0.0,0.0,0.0,0.0,0.0,0.0,0.0,0.0,0.0,0.0,0.0,0.0,0.0,0.0,0.0,0.0,0.0,0.0,0.0,0.0,0.0,0.0,0.0,0.0,0.0,0.0,0.0,0.0,0.0,0.0,0.0,0.0,0.0,0.0,0.0,0.0,0.0,0.0,0.0,0.0,0.0,0.0,0.0,0.0,0.0,0.0,0.0,0.0,0.0,0.0,0.0,0.0,0.0,0.0,0.0,0.0,0.0,0.0,0.0,0.0,0.0,0.0,0.0,-0.0808,-0.1831,-0.3,-0.2212,-0.1831,-0.2393,-0.1693,-0.1576,-0.2393,-0.2441,0.0,0.0,0.0,0.0,0.0,0.0,0.0,0.0,0.0,0.0,0.0,0.0,0.0,0.0,0.0,0.0,0.0,0.0,0.0,0.0,0.0,0.0,0.0,0.0,0.0,0.0,0.0,0.0,0.0,0.0,0.0,0.0,0.0,0.0,0.0,0.0,0.0,0.0,0.0,0.0,0.0,0.0,0.0,0.0,0.0,0.0,0.0,0.0,0.0,0.0,0.0,0.0,0.0,0.0,0.0,0.0,0.0,0.0,0.0,0.0,0.0,0.0,0.0,0.0,0.0,0.0,0.0,0.0,0.0,0.0,0.0,0.0,0.0,0.0,0.0,0.0,0.0,0.0,0.0,0.0,0.0,0.0,0.0,0.0,0.0,0.0,0.0,0.0,0.0,0.0,0.0,0.0,0.0,0.0,0.0,0.0,0.0,0.0,0.0,0.0,0.0,0.0,-0.0769,-0.172,-0.2805,-0.213,-0.1231,-0.0301,-0.0157,-0.0146,-0.0216,-0.0228,0.0,0.0,0.0,0.0,0.0,0.0,0.0,0.0,0.0,0.0,0.0,0.0,0.0,0.0,0.0,0.0,0.0,0.0,0.0,0.0,0.0,0.0,0.0,0.0,0.0,0.0,0.0,0.0,0.0,0.0,0.0,0.0,0.0,0.0,0.0,0.0,0.0,0.0,0.0,0.0,0.0,0.0,0.0,0.0,0.0,0.0,0.0,0.0,0.0,0.0,0.0,0.0,0.0,0.0,0.0,0.0,0.0,0.0,0.0,0.0,0.0,0.0,0.0,0.0,0.0,0.0,0.0,0.0,0.0,0.0,0.0,0.0,0.0,0.0,0.0,0.0,0.0,0.0,0.0,0.0,0.0,0.0,0.0,0.0,0.0,0.0,0.0,0.0,0.0,0.0,0.0,0.0,0.0,0.0,0.0,0.0,0.0,0.0,0.0,0.0,0.0,0.0,-0.072,-0.159,0.0,-0.1927,-0.1081,-0.008,0.0,0.0,0.0,0.0,0.0,0.0,0.0,0.0,0.0,0.0,0.0,0.0,0.0,0.0,0.0,0.0,0.0,0.0,0.0,0.0,0.0,0.0,0.0,0.0,0.0,0.0,0.0,0.0,0.0,0.0,0.0,0.0,0.0,0.0,0.0,0.0,0.0,0.0,0.0,0.0,0.0,0.0,0.0,0.0,0.0,0.0,0.0,0.0,0.0,0.0,0.0,0.0,0.0,0.0,0.0,0.0,0.0,0.0,0.0,0.0,0.0,0.0,0.0,0.0,0.0,0.0,0.0,0.0,0.0,0.0,0.0,0.0,0.0,0.0,0.0,0.0,0.0,0.0,0.0,0.0,0.0,0.0,0.0,0.0,0.0,0.0,0.0,0.0,0.0,0.0,0.0,0.0,0.0,0.0,0.0,0.0,0.0,0.0,0.0,0.0,0.0,0.0,0.0,0.0,0.0,0.0,-0.0668,-0.1415,0.0,-0.1858,-0.1183,-0.0095,0.0,0.0,0.0,0.0,0.0,0.0,0.0,0.0,0.0,0.0,0.0,0.0,0.0,0.0,0.0,0.0,0.0,0.0,0.0,0.0,0.0,0.0,0.0,0.0,0.0,0.0,0.0,0.0,0.0,0.0,0.0,0.0,0.0,0.0,0.0,0.0,0.0,0.0,0.0,0.0,0.0,0.0,0.0,0.0,0.0,0.0,0.0,0.0,0.0,0.0,0.0,0.0,0.0,0.0,0.0,0.0,0.0,0.0,0.0,0.0,0.0,0.0,0.0,0.0,0.0,0.0,0.0,0.0,0.0,0.0,0.0,0.0,0.0,0.0,0.0,0.0,0.0,0.0,0.0,0.0,0.0,0.0,0.0,0.0,0.0,0.0,0.0,0.0,0.0,0.0,0.0,0.0,0.0,0.0,0.0,0.0,0.0,0.0,0.0,0.0,0.0,0.0,0.0,0.0,0.0,-0.0021,-0.0594,-0.1201,-0.1741,-0.1974,-0.1531,-0.0144,-0.0007,0.0,0.0,0.0,0.0,0.0,0.0,0.0,0.0,0.0,0.0,0.0,0.0,0.0,0.0,0.0,0.0,0.0,0.0,0.0,0.0,0.0,0.0,0.0,0.0,0.0,0.0,0.0,0.0,0.0,0.0,0.0,0.0,0.0,0.0,0.0,0.0,0.0,0.0,0.0,0.0,0.0,0.0,0.0,0.0,0.0,0.0,0.0,0.0,0.0,0.0,0.0,0.0,0.0,0.0,0.0,0.0,0.0,0.0,0.0,0.0,0.0,0.0,0.0,0.0,0.0,0.0,0.0,0.0,0.0,0.0,0.0,0.0,0.0,0.0,0.0,0.0,0.0,0.0,0.0,0.0,0.0,0.0,0.0,0.0,0.0,0.0,0.0,0.0,0.0,0.0,0.0,0.0,0.0,0.0,0.0,0.0,0.0,0.0,0.0,0.0,0.0,0.0,0.0,0.0,0.0,-0.1116,-0.1228,-0.1808,-0.1924,-0.1792,-0.1376,-0.0519,0.0,0.0,0.0,0.0,0.0,0.0,0.0,0.0,0.0,0.0,0.0,0.0,0.0,0.0,0.0,0.0,0.0,0.0,0.0,0.0,0.0,0.0,0.0,0.0,0.0,0.0,0.0,0.0,0.0,0.0,0.0,0.0,0.0,0.0,0.0,0.0,0.0,0.0,0.0,0.0,0.0,0.0,0.0,0.0,0.0,0.0,0.0,0.0,0.0,0.0,0.0,0.0,0.0,0.0,0.0,0.0,0.0,0.0,0.0,0.0,0.0,0.0,0.0,0.0,0.0,0.0,0.0,0.0,0.0,0.0,0.0,0.0,0.0,0.0,0.0,0.0,0.0,0.0,0.0,0.0,0.0,0.0,0.0,0.0,0.0,0.0,0.0,0.0,0.0,0.0,0.0,0.0,0.0,0.0,0.0,0.0,0.0,0.0,0.0,0.0,0.0,0.0,0.0,0.0,-0.1642,-0.1519,-0.1443,-0.1782,-0.1795,-0.1767,-0.1743,-0.0846,-0.02,-0.0011,0.0,0.0,0.0,0.0,0.0,0.0,0.0,0.0,0.0,0.0,0.0,0.0,0.0,0.0,0.0,0.0,0.0,0.0,0.0,0.0,0.0,0.0,0.0,0.0,0.0,0.0,0.0,0.0,0.0,0.0,0.0,0.0,0.0,0.0,0.0,0.0,0.0,0.0,0.0,0.0,0.0,0.0,0.0,0.0,0.0,0.0,0.0,0.0,0.0,0.0,0.0,0.0,0.0,0.0,0.0,0.0,0.0,0.0,0.0,0.0,0.0,0.0,0.0,0.0,0.0,0.0,0.0,0.0,0.0,0.0,0.0,0.0,0.0,0.0,0.0,0.0,0.0,0.0,0.0,0.0,0.0,0.0,0.0,0.0,0.0,0.0,0.0,0.0,0.0,0.0,0.0,0.0,0.0,0.0,0.0,0.0,0.0,0.0,0.0,0.0,0.0,0.0,-0.1566,-0.1754,-0.1757,-0.1696,-0.1636,-0.1566,-0.1507,-0.1046,-0.0546,-0.0032,0.0,0.0,0.0,0.0,0.0,0.0,0.0,0.0,0.0,0.0,0.0,0.0,0.0,0.0,0.0,0.0,0.0,0.0,0.0,0.0,0.0,0.0,0.0,0.0,0.0,0.0,0.0,0.0,0.0,0.0,0.0,0.0,0.0,0.0,0.0,0.0,0.0,0.0,0.0,0.0,0.0,0.0,0.0,0.0,0.0,0.0,0.0,0.0,0.0,0.0,0.0,0.0,0.0,0.0,0.0,0.0,0.0,0.0,0.0,0.0,0.2937,0.0,0.0,0.0,0.0,0.0,0.0,0.0,0.0,0.0,0.0,0.0,0.0,0.0,0.0,0.0,0.0,0.0,0.0,0.0,0.0,0.0,0.0,0.0,0.0,0.0,0.0,0.0,0.0,0.0,0.0,0.0,0.0,0.0,0.0,0.0,0.0,0.0,0.0,0.0,0.0,0.0,-0.0921,-0.1432,-0.1696,-0.1625,-0.1604,-0.1566,-0.1507,-0.1349,-0.0892,-0.0053,0.0,0.0,0.0,0.0,0.0,0.0,0.0,0.0,0.0,0.0,0.0,0.0,0.0,0.0,0.0,0.0,0.0,0.0,0.0,0.0,0.0,0.0,0.0,0.0,0.0,0.0,0.0,0.0,0.0,0.0,0.0,0.0,0.0,0.0,0.0,0.0,0.0,0.0,0.0,0.0,0.0,0.0,0.0,0.0,0.0,0.0,0.0,0.0,0.0,0.0,0.0,0.0,0.0,0.0,0.0,0.0,0.0,0.0,0.0,0.0,0.0,0.3114,0.0,0.0,0.0,0.0,0.0,0.0,0.0,0.0,0.0,0.0,0.0,0.0,0.0,0.0,0.0,0.0,0.0,0.0,0.0,0.0,0.0,0.0,0.0,0.0,0.0,0.0,0.0,0.0,0.0,0.0,0.0,0.0,0.0,0.0,0.0,0.0,0.0,0.0,0.0,0.0,-0.0753,-0.1278,-0.1625,-0.1555,-0.1555,-0.1534,-0.1496,-0.1233,-0.0951,-0.0689,-0.0248,0.0,0.0,0.0,0.0,0.0,0.0,0.0,0.0,0.0,0.0,0.0,0.0,0.0,0.0,0.0,0.0,0.0,0.0,0.0,0.0,0.0,0.0,0.0,0.0,0.0,0.0,0.0,0.0,0.0,0.0,0.0,0.0,0.0,0.0,0.0,0.0,0.0,0.0,0.0,0.0,0.0,0.0,0.0,0.0,0.0,0.0,0.0,0.0,0.0,0.0,0.0,0.0,0.0,0.0,0.0999,0.0892,0.0772,0.0905,0.1209,0.1108,0.1142,0.1243,0.0,0.0,0.0,0.0,0.0,0.0,0.0,0.0,0.0,0.0,0.0,0.0,0.0,0.0,0.0,0.0,0.0,0.0,0.0,0.0,0.0,0.0,0.0,0.0,0.0,-0.0233,-0.0208,0.0,0.0,0.0,0.0,0.0,0.0,0.0,0.0,0.0,0.0,0.0,0.0,-0.0891,-0.1268,-0.1545,-0.1485,-0.148,-0.148,-0.1485,-0.1,-0.0832,-0.1141,-0.0431,0.0,0.0,0.0,0.0,0.0,0.0,0.0,0.0,0.0,0.0,0.0,0.0,0.0,0.0,0.0,0.0,0.0,0.0,0.0,0.0,0.0,0.0,0.0,0.0,0.0,0.0,0.0,0.0,0.0,0.0,0.0,0.0,0.0,-0.0043,-0.016,0.0,0.0,0.0,0.0,0.0,0.0,0.0,0.0,0.0,0.0,0.0,0.0,0.0,0.0,0.2211,0.1905,0.1724,0.1706,0.1686,0.1665,0.1645,0.1645,0.1664,0.1711,0.1699,0.0,0.1893,0.1054,0.0,0.0,0.0,0.0,0.0,0.0,0.0,0.0,0.0,0.0,0.0,0.0,0.0,0.0,0.0,0.0,0.0,0.0,0.0,0.0,0.0,0.0,-0.0379,-0.0379,-0.0379,-0.0381,0.0,-0.0436,-0.0527,-0.085,0.0,0.0,0.0,0.0,0.0,0.0,0.0,0.0,-0.1344,-0.1415,-0.1426,-0.1416,-0.141,-0.141,-0.1416,-0.0972,-0.0552,-0.0208,-0.007,0.0,0.0,0.0,0.0,0.0,0.0,0.0,0.0,0.0,0.0,0.0,0.0,0.0,0.0,0.0,0.0,0.0,0.0,0.0,0.0,0.0,0.0,0.0,0.0,0.0,0.0,0.0,0.0,0.0,0.0,0.0,0.0,0.013,0.0149,-0.0064,0.0033,0.0056,0.0,0.0,0.0,0.0,0.0,0.0,0.0,0.0,0.0,0.0298,0.0509,0.0915,0.156,0.1563,0.1563,0.1585,0.174,0.1803,0.1803,0.1803,0.1803,0.1803,0.1803,0.185,0.1894,0.1484,0.1287,0.1218,0.0,0.0,0.0,0.0,0.0,0.1057,0.1057,0.0,0.0,0.0,0.0,0.0,0.0,0.0,0.0,0.0,0.0,0.0,0.0,0.0,0.0,-0.0802,-0.0802,-0.0802,-0.0837,-0.0837,-0.0794,0.0,-0.1005,-0.1319,-0.1336,0.0,0.0,0.0,0.0,0.0,-0.1304,-0.1373,-0.1384,-0.1351,-0.1313,-0.1291,-0.1281,-0.0925,-0.05,-0.0032,0.0,0.0,0.0,0.0,0.0,0.0,0.0,0.0,0.0,0.0,0.0,0.0,0.0,0.0,0.0,0.0,0.0,0.0,0.0,0.0,0.0,0.0,0.0,0.0,0.0,0.0,0.0,0.0,0.0,0.0,0.0,0.0,0.0,0.0231,0.0345,0.0193,0.0224,0.0133,0.0,0.0,0.0,0.0,0.0,0.0,0.0,0.0,0.009,0.0292,0.0517,0.0935,0.1564,0.159,0.159,0.159,0.1787,0.1936,0.2036,0.2036,0.2036,0.2036,0.2036,0.2036,0.2026,0.1868,0.1803,0.1759,0.1338,0.094,0.0561,0.0494,0.045,0.0405,0.0405,0.0225,-0.0045,-0.0315,0.0,-0.0495,-0.0652,0.0,0.0,0.0,0.0,-0.1007,-0.1007,0.0,-0.1007,-0.1007,-0.0962,-0.094,-0.0985,-0.1006,-0.091,0.0,-0.0724,-0.0903,-0.1134,0.0,0.0,0.0,0.0,-0.1177,-0.1199,-0.128,-0.1329,-0.128,-0.1236,-0.1188,-0.1177,-0.0964,-0.0592,-0.0035,0.0,0.0,0.0,0.0,0.0,0.0,0.0,0.0,0.0,0.0,0.0,0.0,0.0,0.0,0.0,0.0,0.0,0.0,0.0,0.0,0.0,0.0,0.0,0.0,0.0,0.0,0.0,0.0,0.0,0.0,0.0,0.0,0.0,0.0,0.0,0.0653,0.0505,0.0,0.0,0.0,0.0,-0.0022,0.0,0.0,0.0,0.0,0.0,0.0022,0.027,0.0958,0.2044,0.2079,0.2079,0.2079,0.2079,0.2276,0.2668,0.2668,0.2668,0.2668,0.2668,0.2668,0.2623,0.2043,0.1803,0.1784,0.1496,0.1252,0.1027,0.0787,0.0562,0.0405,0.0405,0.0225,-0.0045,-0.0315,-0.054,-0.0698,-0.0698,-0.0689,0.0,0.0,-0.0907,-0.0719,-0.0719,-0.0719,-0.0719,-0.0719,-0.0585,-0.0494,-0.0674,-0.0718,-0.0691,0.0,-0.0912,-0.1095,-0.0869,0.0,-0.1086,-0.1016,-0.1064,-0.1129,-0.1188,-0.1199,-0.121,-0.1199,-0.1199,-0.1177,-0.1108,-0.1149,-0.0834,-0.005,0.0,0.0,0.0,0.0,0.0,0.0,0.0,0.0,0.0,0.0,0.0,0.0,0.0,0.0,0.0,0.0,0.0,0.0,0.0,0.0,0.0,0.0,0.0,0.0,0.0,0.0,0.0,0.0,0.0,0.0,0.0,0.0,0.0,0.0,0.0,0.095,0.074,0.0,0.0,-0.0021,-0.0112,0.0,0.0,0.0,0.0,0.0,0.0,0.0,0.0296,0.0773,0.1444,0.1445,0.1445,0.1445,0.1678,0.1845,0.1976,0.1976,0.1976,0.2009,0.2214,0.2447,0.2699,0.2479,0.239,0.2323,0.1841,0.1843,0.2068,0.1478,0.0947,0.0474,0.0474,0.0267,-0.0058,-0.0312,-0.045,-0.0517,-0.0517,-0.0517,-0.0517,-0.0628,-0.0584,-0.0517,-0.0517,-0.0517,-0.0517,-0.0517,-0.045,-0.0427,-0.0495,-0.0609,-0.074,-0.0898,-0.0959,-0.0943,-0.0763,-0.0793,-0.0814,-0.0757,-0.0837,-0.0914,-0.094,-0.1024,-0.1075,-0.1075,-0.1108,-0.1129,-0.1097,-0.1118,-0.0901,-0.0358,-0.0118,0.0,0.0,0.0,0.0,0.0,0.0,0.0,0.0,0.0,0.0,0.0,0.0,0.0,0.0,0.0,0.0,0.0,0.0,0.0,0.0,0.0,0.0,0.0,0.0,0.0,0.0,0.0,0.0,0.0,0.0,0.0,0.0,0.0,0.1116,0.1185,0.1184,0.1129,0.0996,0.0603,0.0262,0.0026,0.0,0.0,0.0,0.0,0.0,0.0,0.0202,0.0471,0.0739,0.0739,0.0739,0.0739,0.0938,0.1106,0.1239,0.1239,0.1239,0.1241,0.1711,0.2214,0.2712,0.2712,0.2712,0.2671,0.227,0.2359,0.2613,0.2011,0.1308,0.0665,0.043,0.0126,-0.0197,-0.039,-0.0446,-0.0446,-0.0446,-0.0446,-0.0446,-0.0446,-0.0415,-0.0405,-0.0405,-0.045,-0.0495,-0.0495,-0.0495,-0.0495,-0.0495,-0.0562,-0.0719,-0.0983,-0.0998,-0.0913,-0.0724,-0.0678,-0.0651,-0.0604,-0.0673,-0.074,-0.0762,-0.0859,-0.0944,-0.0965,-0.1031,-0.1064,-0.1064,-0.1086,-0.0928,-0.0524,-0.0183,0.0,0.0,0.0,0.0,0.0,0.0,0.0,0.0,0.0,0.0,0.0,0.0,0.0,0.0,0.0,0.0,0.0,0.0,0.0,0.0,0.0,0.0,0.0,0.0,0.0,0.0,0.0,0.0,0.0,0.0,0.0,0.0742,0.094,0.1167,0.1364,0.178,0.2081,0.2081,0.1479,0.0773,0.0067,0.0,0.0,0.0,0.0,0.0,0.0,0.0,0.0,0.0,0.0,0.0,0.0,0.0,0.0202,0.0504,0.0504,0.0504,0.0538,0.1274,0.2009,0.2712,0.2712,0.2712,0.2712,0.2712,0.2712,0.2646,0.225,0.168,0.0978,0.0254,-0.0221,-0.0504,-0.0504,-0.0504,-0.0504,-0.0504,-0.0504,-0.0504,-0.0504,-0.0455,-0.0411,-0.0411,-0.0544,-0.0698,-0.0721,-0.0721,-0.0721,-0.0721,-0.0607,-0.0606,-0.0849,-0.1005,-0.1019,-0.0757,-0.0649,-0.0607,-0.0604,-0.0596,0.0,-0.0684,-0.0751,-0.0818,-0.0888,-0.0958,-0.0995,-0.0995,-0.1064,-0.0928,-0.0524,-0.0183,0.0,0.0,0.0,0.0,0.0,0.0,0.0,0.0,0.0,0.0,0.0,0.0,0.0,0.0,0.0,0.0,0.0,0.0,0.0,0.0,0.0,0.0,0.0,0.0,0.0,0.0,0.0,0.0,0.0,0.0,0.1074,0.1007,0.1052,0.1121,0.1165,0.1295,0.1378,0.1378,0.0941,0.0471,0.0034,0.0,0.0,0.0,0.0,0.0,0.0,0.0,0.0,0.0,0.0,0.0,0.0,0.0235,0.0403,0.0504,0.0504,0.0504,0.0538,0.1274,0.2009,0.2712,0.2712,0.2712,0.2712,0.2712,0.2712,0.2646,0.225,0.168,0.1,0.025,-0.0223,-0.0504,-0.0504,-0.0504,-0.0504,-0.0504,-0.0504,-0.0504,-0.0504,-0.0482,-0.0458,-0.0458,-0.0584,-0.0742,-0.0942,-0.0985,-0.0985,-0.0985,-0.0962,-0.0962,-0.1027,-0.1005,-0.0946,-0.0923,-0.0831,-0.0688,-0.0548,0.0,0.0,-0.0475,-0.0537,-0.0604,-0.067,-0.0781,-0.0873,-0.0929,-0.1035,-0.0928,0.0,-0.0183,0.0,0.0,0.0,0.0,0.0,0.0,0.0,0.0,0.0,0.0,0.0,0.0,0.0,0.0,0.0,0.0,0.0,0.0,0.0,0.0,0.0,0.0,0.0,0.0,0.0,0.0,0.0,0.0,0.0,0.1053,0.1296,0.1296,0.1191,0.0976,0.0662,0.0639,0.0639,0.0639,0.0437,0.0202,0.0,0.0,0.0,0.0,0.0,0.0,0.0,0.0,0.0,0.0,0.0,0.0106,0.0307,0.0498,0.0576,0.0576,0.0576,0.0576,0.0,0.1291,0.2009,0.2712,0.2712,0.2712,0.0,0.0,0.0,0.0,0.0,0.178,0.1209,0.047,0.0067,-0.0067,-0.0067,-0.0168,-0.0303,-0.0471,-0.0504,-0.0504,-0.0504,-0.0504,-0.0504,-0.0504,-0.0669,-0.0871,-0.0926,-0.094,-0.094,-0.094,-0.094,-0.094,-0.094,0.0,0.0,-0.0784,-0.0752,-0.0671,-0.0516,-0.042,-0.0359,0.0,-0.0413,-0.0479,-0.0548,-0.0682,-0.0784,-0.0854,-0.0984,0.0,0.0,0.0,0.0,0.0,0.0,0.0,0.0,0.0,0.0,0.0,0.0,0.0,0.0,0.0,0.0,0.0,0.0,0.0,0.0,0.0,0.0,0.0,0.0,0.0,0.0,0.0,0.0,0.0,0.0,0.0,0.0,0.1199,0.1542,0.1542,0.131,0.0874,0.0134,0.0067,0.0034,0.0,0.0,0.0,0.0,0.0034,0.0074,0.0089,0.0,0.0,0.0,0.0,0.0174,0.0174,0.0174,0.0383,0.0854,0.0854,0.0854,0.0854,0.0854,0.0854,0.089,0.1436,0.2042,0.2712,0.2712,0.2712,0.2712,0.2712,0.2712,0.265,0.2284,0.1945,0.0,0.0,0.0,0.0,0.0672,0.0436,0.0067,-0.0336,-0.0471,-0.0504,-0.0504,-0.0504,-0.0504,-0.0504,-0.0773,-0.0959,-0.0735,-0.0671,-0.0674,-0.0674,-0.0674,-0.0674,-0.0674,-0.0562,-0.0495,-0.0495,-0.0548,-0.0561,-0.0505,-0.0388,0.0,-0.0293,-0.0339,-0.0401,-0.0468,0.0,0.0,-0.0762,-0.0888,-0.0842,-0.0544,-0.0194,0.0,0.0,0.0,0.0,0.0,0.0,-0.0042,-0.0126,-0.0126,-0.0098,-0.0053,-0.0019,0.0,0.0,0.0,0.0,0.0,0.0,0.0,0.0,0.0,0.0,0.0,0.0,0.0,0.0,0.0,0.0,0.0977,0.1112,0.1211,0.1211,0.1377,0.1241,0.0504,0.0403,0.0303,0.0034,0.0,0.0,0.0,0.0235,0.0443,0.0579,0.0584,0.0,0.0584,0.0912,0.1108,0.1108,0.1108,0.1388,0.193,0.0,0.0,0.193,0.193,0.193,0.1912,0.199,0.2281,0.2712,0.2712,0.2712,0.2712,0.2712,0.2712,0.2679,0.2613,0.2347,0.1981,0.1847,0.178,0.178,0.178,0.1378,0.0773,0.0101,-0.0269,0.0,-0.0504,-0.0504,-0.0504,-0.0504,-0.0571,-0.0598,-0.0541,-0.0511,-0.045,-0.045,-0.045,-0.045,-0.045,-0.0427,-0.0427,-0.0427,-0.0466,-0.049,-0.0426,-0.0349,-0.0281,-0.0232,-0.023,-0.0267,-0.0335,-0.0413,-0.0479,-0.0548,-0.0682,-0.0728,-0.067,-0.0243,0.0,0.0,0.0,0.0,0.0,0.0,-0.0293,-0.0883,-0.0883,-0.0718,-0.0396,-0.0127,0.0,0.0,0.0,0.0,0.0,0.0,0.0,0.0,0.0,0.0,0.0,0.0,0.0735,0.0698,0.0,0.0937,0.109,0.111,0.111,0.111,0.1377,0.1542,0.131,0.1008,0.0605,0.0067,0.0,0.0,0.0,0.0354,0.094,0.1741,0.1794,0.1794,0.1794,0.2016,0.2281,0.2504,0.2504,0.264,0.2912,0.2912,0.2912,0.2912,0.2912,0.2912,0.2898,0.2858,0.2975,0.3169,0.3169,0.2987,0.2712,0.2712,0.2712,0.2712,0.2712,0.2447,0.2117,0.2117,0.2117,0.2117,0.2117,0.1747,0.1209,0.047,0.0134,0.0,0.0,0.0,0.0,0.0,0.0,0.0,-0.0029,0.0226,0.0403,0.0067,-0.0112,-0.0247,-0.0382,-0.0405,-0.0405,-0.0405,-0.0427,-0.0436,-0.0399,-0.0342,-0.0274,-0.0213,-0.0197,-0.0211,-0.0245,-0.0312,-0.0379,-0.0446,-0.0513,-0.057,-0.0593,-0.0315,-0.0165,-0.0199,-0.0071,0.0,0.0,-0.0233,-0.0601,-0.1097,-0.1097,-0.099,-0.0792,-0.063,-0.0443,0.0,0.0,0.0,0.0,0.0,0.0,0.0,0.0,0.0743,0.1196,0.1249,0.1105,0.0838,0.0947,0.111,0.111,0.111,0.111,0.111,0.1377,0.1709,0.2047,0.1579,0.0907,0.0168,0.0101,0.011,0.0133,0.0674,0.157,0.2823,0.2912,0.2912,0.2912,0.3001,0.3223,0.3581,0.3581,0.3581,0.3581,0.3581,0.3581,0.3581,0.3581,0.3581,0.3581,0.3581,0.3581,0.3581,0.3581,0.3293,0.2877,0.2761,0.2712,0.2712,0.2712,0.2447,0.2117,0.2117,0.2117,0.2117,0.2117,0.1911,0.1575,0.1007,0.0807,0.0807,0.0807,0.0807,0.0807,0.0807,0.0807,0.0761,0.063,0.1009,0.1254,0.0718,0.0359,0.0022,-0.0337,-0.0405,-0.0382,-0.0337,-0.0315,-0.0329,-0.0388,-0.0347,-0.0277,-0.022,-0.0213,-0.02,-0.02,-0.0245,-0.0301,-0.0357,-0.0357,-0.0379,-0.0435,-0.036,-0.0356,-0.0437,-0.0232,-0.0097,-0.0059,-0.0442,-0.0783,-0.1057,-0.1079,-0.1079,-0.1086,-0.1086,-0.0919,0.1435,0.1246,0.1113,0.1136,0.094,0.0722,0.0,0.0,0.1207,0.1846,0.1742,0.1453,0.1101,0.1092,0.111,0.111,0.111,0.111,0.111,0.1377,0.1709,0.2047,0.1778,0.1241,0.0504,0.0437,0.0478,0.0622,0.1481,0.2288,0.2868,0.2912,0.2912,0.2912,0.3312,0.3537,0.3581,0.3581,0.3581,0.3581,0.3581,0.3581,0.3581,0.3581,0.3581,0.3581,0.3581,0.3581,0.3581,0.3581,0.3541,0.3425,0.2925,0.2712,0.2712,0.2712,0.2447,0.2117,0.2117,0.2117,0.2117,0.2117,0.2083,0.2014,0.1947,0.1914,0.1914,0.1914,0.1914,0.1914,0.1914,0.1914,0.1807,0.1378,0.1343,0.1388,0.1299,0.0942,0.0427,-0.027,-0.0405,-0.0315,-0.009,-0.0045,-0.0134,-0.0355,-0.0344,-0.0301,-0.0298,-0.024,-0.02,-0.02,-0.0211,-0.0211,-0.0222,-0.0222,-0.0222,-0.0233,-0.0334,-0.0443,-0.0569,-0.0549,-0.0444,-0.0273,-0.0375,-0.0593,-0.0921,-0.0976,-0.1006,-0.1005,-0.1005,-0.1018,0.1477,0.1252,0.1123,0.0,0.1076,0.094,0.094,0.1158,0.1516,0.2008,0.1845,0.1542,0.141,0.1377,0.1377,0.0,0.1377,0.1377,0.1377,0.1509,0.1709,0.2047,0.1981,0.1778,0.1477,0.1726,0.1904,0.1962,0.2377,0.269,0.2912,0.2912,0.3046,0.3312,0.349,0.3581,0.3581,0.3581,0.3581,0.3581,0.3581,0.3581,0.3581,0.3581,0.3581,0.3581,0.3581,0.3581,0.3581,0.3581,0.3581,0.3554,0.3303,0.3205,0.3161,0.2843,0.2583,0.2417,0.2183,0.2117,0.2117,0.2117,0.2117,0.2117,0.2117,0.2117,0.2117,0.2117,0.2117,0.2117,0.2117,0.2117,0.1996,0.1523,0.141,0.141,0.141,0.121,0.0918,0.0447,0.0514,0.0626,0.0537,0.0492,0.0393,0.0163,-0.0055,-0.0197,-0.0229,-0.0217,-0.02,-0.02,-0.02,-0.02,-0.02,-0.02,-0.02,-0.02,-0.0256,-0.0346,-0.0479,-0.0524,-0.0523,-0.0473,-0.0504,-0.0643,-0.0899,-0.0888,-0.0929,-0.0995,-0.0995,-0.1016,0.1455,0.1296,0.0,0.1647,0.1562,0.1375,0.1375,0.1571,0.1811,0.2047,0.1911,0.1742,0.1742,0.1742,0.1742,0.1742,0.1742,0.178,0.1924,0.1845,0.1845,0.2083,0.2117,0.2117,0.2117,0.2465,0.2724,0.2901,0.2912,0.2854,0.2677,0.2924,0.3268,0.3578,0.3581,0.3581,0.3581,0.3581,0.3581,0.3581,0.3581,0.3581,0.3581,0.3581,0.3581,0.3581,0.3581,0.3581,0.3581,0.3581,0.3581,0.3581,0.3581,0.3581,0.3527,0.3128,0.2967,0.2891,0.26,0.2399,0.2247,0.2247,0.2181,0.2117,0.2117,0.2117,0.2117,0.2117,0.2117,0.2117,0.2117,0.2117,0.1996,0.1523,0.141,0.141,0.141,0.1366,0.1274,0.1072,0.123,0.1296,0.1005,0.0914,0.0812,0.0556,0.0243,0.0,-0.0128,-0.016,-0.0167,-0.0167,-0.0167,-0.0167,-0.0167,-0.0167,-0.0167,-0.0145,-0.0167,-0.0211,-0.0312,-0.0379,-0.0457,-0.0548,-0.0559,-0.067,-0.0877,-0.0821,-0.0862,-0.0976,-0.0976,-0.0976,0.141,0.0,0.1499,0.1967,0.207,0.2062,0.2062,0.2073,0.2083,0.2083,0.2083,0.2083,0.2083,0.2083,0.2083,0.2083,0.2083,0.2277,0.2781,0.2406,0.2083,0.2083,0.2117,0.2117,0.0,0.2127,0.2328,0.2876,0.2912,0.2664,0.2162,0.3061,0.3578,0.3581,0.3581,0.3581,0.3581,0.3581,0.3581,0.3581,0.3581,0.3581,0.3581,0.3581,0.3581,0.3581,0.3581,0.3581,0.3581,0.3581,0.3581,0.3581,0.3581,0.3581,0.3578,0.3558,0.3554,0.3554,0.3554,0.3171,0.2679,0.2679,0.2417,0.2117,0.2117,0.2117,0.2117,0.2117,0.2117,0.2117,0.2117,0.2117,0.1996,0.1523,0.141,0.141,0.141,0.1388,0.1388,0.1388,0.1388,0.1343,0.1139,0.1094,0.0971,0.0646,0.0472,0.029,0.0028,-0.0062,-0.01,-0.01,-0.01,-0.01,-0.01,-0.01,-0.0078,-0.0011,-0.0067,-0.01,-0.0111,-0.0178,-0.0267,-0.0401,-0.0468,-0.0604,-0.0807,-0.0796,-0.0832,-0.0899,-0.0899,-0.0899,0.1793,0.0,0.1916,0.2077,0.2117,0.2117,0.2117,0.2117,0.2117,0.2117,0.2117,0.2117,0.2117,0.2117,0.2117,0.2117,0.2117,0.228,0.2843,0.2729,0.2506,0.2154,0.2117,0.0,0.0,0.0,0.0,0.2876,0.2912,0.2971,0.3083,0.3427,0.3581,0.3581,0.3581,0.3581,0.3581,0.3581,0.3581,0.3581,0.3581,0.3581,0.3581,0.3581,0.3581,0.3581,0.3581,0.3581,0.3581,0.3581,0.3581,0.3581,0.3581,0.3581,0.3581,0.3581,0.3581,0.3581,0.3581,0.3224,0.2712,0.2712,0.2616,0.2447,0.2183,0.2117,0.2117,0.2117,0.2117,0.2117,0.2117,0.2117,0.2077,0.1916,0.1638,0.141,0.141,0.141,0.141,0.141,0.141,0.1388,0.1321,0.1296,0.1204,0.0969,0.0509,0.0154,0.0012,-0.0023,-0.0033,-0.0033,-0.0033,-0.0056,-0.01,-0.0056,-0.0022,0.0,0.0022,0.0011,-0.0033,-0.0056,-0.0133,-0.0267,-0.0379,-0.0513,-0.067,-0.0718,-0.0773,-0.0832,-0.0832,-0.0832,0.2034,0.2117,0.2117,0.2117,0.2117,0.2117,0.2117,0.2117,0.2117,0.2117,0.2117,0.2117,0.2117,0.2117,0.2117,0.2117,0.2117,0.228,0.2843,0.2912,0.2751,0.2441,0.2368,0.2606,0.0,0.0,0.0,0.2887,0.3046,0.3268,0.3578,0.3581,0.3581,0.3581,0.3581,0.3581,0.3581,0.3581,0.3581,0.3581,0.3581,0.3581,0.3581,0.3581,0.3581,0.3581,0.3581,0.3581,0.3581,0.3581,0.3581,0.3581,0.3581,0.3581,0.3581,0.3581,0.3581,0.3581,0.3581,0.3327,0.3039,0.3039,0.2891,0.265,0.238,0.2314,0.2314,0.2314,0.2314,0.2314,0.2314,0.2214,0.2117,0.2117,0.1884,0.1616,0.1448,0.141,0.141,0.141,0.141,0.141,0.141,0.1354,0.1278,0.1124,0.0659,0.0279,0.0194,0.0139,0.01,0.0078,0.0044,0.0011,-0.0056,-0.0022,0.0011,0.0033,0.0078,0.0089,0.0067,0.0044,-0.0011,-0.0122,-0.0256,-0.039,-0.0526,-0.0593,-0.0659,-0.0729,-0.0751,-0.0762,0.2146,0.2133,0.2117,0.2117,0.2117,0.2117,0.2117,0.2117,0.2117,0.2117,0.2095,0.2079,0.2079,0.0,0.2117,0.2117,0.2117,0.228,0.2843,0.2912,0.2912,0.0,0.0,0.0,0.0,0.0,0.0,0.2957,0.0,0.3581,0.3581,0.3581,0.3581,0.3581,0.3581,0.3581,0.3581,0.3581,0.3581,0.3581,0.3581,0.3581,0.3581,0.3581,0.3581,0.3581,0.3581,0.3581,0.3581,0.3622,0.3622,0.3622,0.3626,0.3581,0.3581,0.3581,0.3581,0.3581,0.3581,0.3581,0.3581,0.3581,0.3171,0.2712,0.2712,0.2712,0.2712,0.2712,0.2712,0.2712,0.2712,0.2417,0.2117,0.2117,0.2117,0.1986,0.1488,0.141,0.141,0.141,0.141,0.141,0.141,0.1296,0.118,0.1122,0.0898,0.0682,0.0518,0.0381,0.0279,0.0211,0.0145,0.0078,0.0011,0.0011,0.0033,0.01,0.01,0.0133,0.02,0.0133,0.0067,0.0011,-0.0122,-0.0256,-0.039,-0.0457,-0.0524,-0.0593,-0.0659,-0.0695,0.2588,0.2422,0.2117,0.2117,0.2117,0.2117,0.2117,0.2117,0.2117,0.2117,0.1836,0.159,0.159,0.0,0.0,0.2117,0.2117,0.0,0.2843,0.2912,0.0,0.2912,0.0,0.3173,0.3306,0.349,0.0,0.0,0.3534,0.3581,0.3581,0.3581,0.3581,0.3581,0.3581,0.3581,0.3581,0.3581,0.3581,0.3581,0.3581,0.3581,0.3581,0.3581,0.3581,0.3581,0.3581,0.3581,0.3622,0.3972,0.41,0.41,0.3755,0.3581,0.3581,0.3581,0.3581,0.3581,0.3581,0.3581,0.3581,0.3581,0.3171,0.2712,0.2712,0.2712,0.2712,0.2712,0.2712,0.2712,0.2712,0.2613,0.248,0.2183,0.2117,0.1986,0.1488,0.141,0.141,0.141,0.141,0.141,0.141,0.1364,0.1343,0.1322,0.1219,0.101,0.0617,0.0457,0.0346,0.0279,0.0256,0.0222,0.0156,0.0145,0.0156,0.0178,0.0178,0.0178,0.02,0.0133,0.0089,0.0078,-0.0011,-0.0089,-0.0178,-0.029,-0.039,-0.0457,-0.0524,-0.0581,0.2838,0.2669,0.2465,0.2465,0.2269,0.2117,0.2117,0.2117,0.2055,0.1849,0.157,0.0,0.141,0.1627,0.0,0.0,0.0,0.0,0.2843,0.2912,0.2912,0.0,0.3129,0.0,0.3353,0.3611,0.3676,0.0,0.3581,0.3581,0.3581,0.3581,0.3581,0.3581,0.3581,0.3581,0.3581,0.3581,0.3581,0.3581,0.3581,0.3581,0.3581,0.3581,0.3581,0.3581,0.0,0.3711,0.3928,0.4412,0.4587,0.4587,0.4328,0.4108,0.3884,0.3667,0.3711,0.3928,0.4152,0.4196,0.4152,0.3755,0.3171,0.2712,0.2712,0.2712,0.2712,0.2712,0.2712,0.2712,0.2712,0.2712,0.2646,0.2417,0.235,0.2205,0.1699,0.1477,0.141,0.141,0.141,0.141,0.141,0.1433,0.1457,0.148,0.1415,0.126,0.1021,0.0826,0.0692,0.0651,0.0624,0.0584,0.0514,0.0424,0.0372,0.0372,0.029,0.0233,0.02,0.0167,0.0145,0.0145,0.0111,0.0056,-0.0011,-0.0178,-0.0256,-0.0267,-0.0335,-0.0405,0.2912,0.2912,0.2912,0.2912,0.2506,0.2117,0.2117,0.2069,0.1905,0.1496,0.0,0.141,0.141,0.141,0.1565,0.2039,0.0,0.2269,0.2756,0.2874,0.2973,0.3167,0.3214,0.3315,0.3561,0.3768,0.3795,0.3622,0.3609,0.3598,0.3581,0.3581,0.3581,0.3581,0.3581,0.3581,0.3581,0.3667,0.3711,0.3711,0.3711,0.3711,0.3711,0.3711,0.3711,0.3711,0.0,0.0,0.436,0.4937,0.5203,0.5203,0.5246,0.4932,0.4408,0.3884,0.4016,0.4583,0.5067,0.5241,0.5111,0.4104,0.3328,0.2746,0.2716,0.2712,0.2712,0.2712,0.2712,0.2712,0.2712,0.2712,0.2712,0.2712,0.2845,0.2792,0.2055,0.1673,0.1455,0.1433,0.1433,0.1433,0.1433,0.1477,0.1547,0.1635,0.1554,0.1495,0.1558,0.1299,0.1118,0.1118,0.1052,0.0983,0.0933,0.0736,0.063,0.063,0.0428,0.029,0.0233,0.0222,0.0222,0.0222,0.0222,0.0178,0.0111,-0.0067,-0.0122,-0.0089,-0.0148,-0.0211,0.2912,0.2912,0.2912,0.2912,0.2506,0.2117,0.2117,0.1814,0.0,0.0,0.141,0.141,0.141,0.141,0.1565,0.2039,0.0,0.0,0.0,0.0,0.2965,0.0,0.0,0.0,0.0,0.0,0.0,0.0,0.0,0.0,0.3588,0.3581,0.3581,0.3581,0.3581,0.3581,0.3581,0.3972,0.4188,0.4188,0.4188,0.4188,0.4188,0.4188,0.4188,0.4144,0.0,0.0,0.4403,0.5631,0.6153,0.6196,0.652,0.6179,0.5371,0.4495,0.4714,0.5588,0.6386,0.6641,0.6428,0.5149,0.403,0.3076,0.2779,0.2712,0.2712,0.2712,0.2712,0.2712,0.2712,0.2712,0.2712,0.2712,0.3597,0.4055,0.267,0.207,0.1762,0.1591,0.1569,0.1569,0.1569,0.1629,0.1718,0.1898,0.1873,0.1833,0.1901,0.1487,0.1187,0.1187,0.1118,0.1085,0.1068,0.0888,0.0772,0.0772,0.0525,0.0379,0.0368,0.0368,0.0368,0.0368,0.0312,0.0245,0.0178,0.0145,0.0078,-0.0022,-0.0025,-0.0068,0.2912,0.2912,0.2912,0.2912,0.2506,0.2117,0.2117,0.0,0.0,0.0,0.1044,0.1044,0.1044,0.0,0.0,0.0,0.0,0.0,0.0,0.0,0.0,0.0,0.0,0.0,0.0,0.0,0.0,0.0,0.0,0.0,0.3592,0.3711,0.3751,0.3751,0.3667,0.3711,0.3972,0.4188,0.4316,0.4316,0.4316,0.4316,0.4316,0.4316,0.4451,0.4675,0.0,0.0,0.5106,0.6024,0.6538,0.6738,0.6943,0.6605,0.5981,0.528,0.5458,0.6153,0.6774,0.6979,0.6894,0.6258,0.5023,0.363,0.2911,0.2712,0.2712,0.2712,0.2712,0.2712,0.2712,0.2712,0.2712,0.2712,0.3248,0.3495,0.2598,0.2202,0.1935,0.174,0.1699,0.1699,0.1655,0.174,0.1869,0.2022,0.2026,0.203,0.2136,0.19,0.1664,0.1528,0.1489,0.147,0.147,0.1275,0.1169,0.1169,0.0953,0.0813,0.0813,0.0785,0.0718,0.0607,0.0579,0.0493,0.0352,0.0395,0.0381,0.031,0.0241,0.0176,0.2885,0.2912,0.2887,0.274,0.243,0.209,0.1988,0.1678,0.0,0.0,0.0706,0.0706,0.0706,0.0,0.141,0.0,0.1794,0.0,0.0,0.0,0.0,0.0,0.0,0.0,0.0,0.0,0.0,0.0,0.0,0.0,0.0,0.3928,0.4056,0.4148,0.3884,0.3928,0.4316,0.4316,0.4316,0.4316,0.4316,0.4316,0.4316,0.4316,0.4626,0.5159,0.0,0.0,0.0,0.6361,0.6696,0.6979,0.6979,0.6823,0.6496,0.6105,0.619,0.6575,0.6901,0.6979,0.6979,0.6979,0.5976,0.4511,0.3286,0.2911,0.2911,0.2911,0.2911,0.2911,0.2812,0.2812,0.2812,0.2911,0.3086,0.3101,0.2667,0.2444,0.2239,0.1986,0.1935,0.1891,0.1799,0.1869,0.2004,0.215,0.218,0.2228,0.2398,0.235,0.2215,0.2,0.1913,0.185,0.185,0.1648,0.1548,0.1528,0.1351,0.1237,0.122,0.1171,0.1054,0.0876,0.0859,0.0756,0.0589,0.0656,0.0672,0.0656,0.055,0.0455,0.2748,0.2912,0.2762,0.2288,0.2149,0.1973,0.1573,0.0,0.0,0.0803,0.0706,0.0706,0.0706,0.1092,0.141,0.141,0.1806,0.2136,0.0,0.0,0.0,0.0,0.0,0.0,0.0,0.0,0.0,0.0,0.0,0.0,0.0,0.4368,0.4591,0.4898,0.4451,0.4272,0.4316,0.4316,0.4316,0.4316,0.4316,0.4316,0.4316,0.4316,0.4801,0.568,0.0,0.0,0.0,0.6937,0.6985,0.6979,0.6979,0.6979,0.6943,0.6894,0.6894,0.6937,0.6979,0.6979,0.6979,0.6979,0.6626,0.5879,0.4137,0.3607,0.3607,0.3607,0.3607,0.3541,0.3241,0.3142,0.3241,0.3541,0.4125,0.4394,0.3655,0.3228,0.2891,0.2506,0.2333,0.2219,0.2084,0.207,0.2166,0.2425,0.2473,0.2534,0.2729,0.2702,0.2611,0.2541,0.2245,0.2056,0.1986,0.1787,0.1657,0.159,0.146,0.1356,0.129,0.129,0.122,0.1068,0.1018,0.0938,0.0861,0.0938,0.0933,0.0869,0.0866,0.0796,0.2737,0.2656,0.2352,0.2162,0.2117,0.1991,0.1517,0.0,0.1297,0.0907,0.0751,0.0706,0.0706,0.0859,0.1003,0.1081,0.157,0.2051,0.2485,0.0,0.0,0.0,0.0,0.0,0.0,0.0,0.0,0.0,0.0,0.0,0.0,0.4932,0.5014,0.5404,0.4975,0.4718,0.4718,0.5024,0.5404,0.5905,0.5404,0.5149,0.5149,0.5149,0.5501,0.6153,0.0,0.0,0.0,0.6979,0.6979,0.6979,0.6979,0.6979,0.6979,0.6979,0.6979,0.6979,0.6979,0.6979,0.6979,0.6979,0.6901,0.6607,0.5921,0.5198,0.4672,0.4672,0.4511,0.4323,0.4188,0.37,0.334,0.3923,0.4608,0.4882,0.4028,0.3543,0.3141,0.2704,0.2512,0.2398,0.2285,0.214,0.2074,0.2184,0.2468,0.2772,0.3009,0.2902,0.2794,0.2724,0.2464,0.225,0.218,0.2028,0.193,0.1913,0.1848,0.181,0.179,0.179,0.1707,0.1525,0.1502,0.1402,0.1266,0.1363,0.1422,0.1442,0.135,0.1249,0.2603,0.2371,0.2117,0.2117,0.2117,0.1991,0.0,0.1455,0.1397,0.0983,0.0832,0.0751,0.0706,0.0729,0.0847,0.1119,0.1528,0.1995,0.2548,0.2703,0.0,0.0,0.0,0.0,0.0,0.0,0.0,0.0,0.0,0.0,0.0,0.5615,0.5658,0.5916,0.5626,0.5458,0.5458,0.589,0.6392,0.6979,0.6392,0.6099,0.6099,0.6099,0.6276,0.0,0.0,0.0,0.0,0.6979,0.6979,0.6979,0.6979,0.6979,0.6979,0.6979,0.6979,0.6979,0.6979,0.6979,0.6979,0.6979,0.6979,0.6979,0.6979,0.6206,0.5309,0.5309,0.5062,0.4812,0.4812,0.4156,0.3695,0.4441,0.4953,0.5106,0.4347,0.3931,0.3569,0.314,0.2858,0.2686,0.2594,0.2333,0.214,0.2096,0.2485,0.288,0.3165,0.308,0.2972,0.2961,0.2767,0.2572,0.2437,0.2315,0.2232,0.2188,0.2188,0.2188,0.2162,0.214,0.2052,0.1894,0.1891,0.1799,0.1645,0.1755,0.1825,0.185,0.1759,0.1623,0.2222,0.2119,0.2117,0.2117,0.2117,0.1991,0.1517,0.1607,0.1634,0.1021,0.0899,0.0854,0.0729,0.0807,0.1092,0.17,0.1799,0.1947,0.2355,0.2589,0.0,0.0,0.0,0.0,0.0,0.0,0.0,0.0,0.0,0.0,0.0,0.0,0.6605,0.6416,0.6538,0.6575,0.6575,0.6859,0.6979,0.6979,0.6979,0.6979,0.6979,0.6979,0.0,0.0,0.0,0.0,0.0,0.6979,0.6979,0.6979,0.6979,0.6979,0.6979,0.6979,0.6979,0.6979,0.6979,0.6979,0.6979,0.6979,0.6979,0.6979,0.6979,0.6206,0.5309,0.5309,0.5062,0.4812,0.4812,0.4543,0.4473,0.5119,0.5277,0.517,0.4684,0.4486,0.4294,0.3962,0.352,0.3159,0.3019,0.2724,0.2446,0.2311,0.2524,0.2832,0.3165,0.3208,0.3223,0.3296,0.3245,0.3052,0.2719,0.2626,0.2538,0.2403,0.2403,0.2376,0.2307,0.2241,0.2176,0.21,0.2088,0.2062,0.1986,0.2062,0.2066,0.2008,0.1986,0.1825,0.2124,0.2117,0.2117,0.2117,0.1873,0.162,0.167,0.1414,0.1126,0.0939,0.0899,0.0888,0.0843,0.0877,0.115,0.1881,0.1813,0.188,0.0,0.0,0.0,0.0,0.0,0.0,0.0,0.0,0.0,0.0,0.0,0.0,0.0,0.0,0.6823,0.6823,0.6859,0.6859,0.6859,0.6937,0.6979,0.6979,0.6979,0.6979,0.6979,0.6979,0.0,0.0,0.0,0.0,0.0,0.6979,0.6979,0.6979,0.6979,0.6979,0.6979,0.6979,0.6979,0.6979,0.6979,0.6979,0.6979,0.6979,0.6979,0.6979,0.6979,0.6206,0.5309,0.5309,0.5221,0.5157,0.5157,0.5055,0.5023,0.5252,0.5309,0.5244,0.5117,0.5029,0.4701,0.3694,0.3325,0.3187,0.3138,0.3159,0.3117,0.2945,0.2988,0.3074,0.3187,0.3208,0.3223,0.3296,0.3323,0.3266,0.3052,0.2939,0.281,0.2686,0.2637,0.2551,0.2446,0.2425,0.242,0.2437,0.2481,0.2502,0.2485,0.2502,0.2437,0.2272,0.2224,0.207,0.2073,0.2053,0.1963,0.1849,0.1604,0.1477,0.174,0.1339,0.0899,0.0899,0.0899,0.0899,0.0899,0.0978,0.1231,0.1795,0.1865,0.2072,0.0,0.0,0.0,0.0,0.0,0.0,0.0,0.0,0.0,0.0,0.0,0.0,0.0,0.0,0.6943,0.6979,0.6979,0.6979,0.6979,0.6979,0.6979,0.6979,0.6979,0.6979,0.6979,0.0,0.0,0.0,0.0,0.0,0.0,0.6979,0.6979,0.6979,0.6979,0.6979,0.7021,0.7196,0.728,0.7238,0.7063,0.6979,0.6979,0.6979,0.7112,0.728,0.728,0.6361,0.5309,0.5309,0.5309,0.5309,0.5309,0.5309,0.5309,0.5309,0.5309,0.5309,0.5309,0.5309,0.5063,0.4212,0.366,0.3315,0.3315,0.3421,0.3464,0.3336,0.3251,0.3208,0.3208,0.3208,0.3245,0.3366,0.3387,0.3372,0.3315,0.3181,0.3074,0.2966,0.2875,0.2745,0.2621,0.2647,0.2664,0.2713,0.2805,0.2853,0.2853,0.274,0.2637,0.2507,0.242,0.2311,0.0,0.1914,0.1698,0.1424,0.1359,0.1424,0.1677,0.1308,0.0,0.0899,0.0899,0.0899,0.0899,0.1125,0.137,0.1574,0.1997,0.0,0.0,0.0,0.0,0.0,0.0,0.0,0.0,0.0,0.0,0.0,0.0,0.0,0.0,0.0,0.0,0.6979,0.6979,0.6979,0.6979,0.6979,0.6979,0.6979,0.6979,0.7021,0.7021,0.0,0.0,0.0,0.0,0.0,0.0,0.7021,0.6979,0.6979,0.6979,0.7021,0.7112,0.7545,0.7712,0.7628,0.7154,0.6979,0.7021,0.7021,0.7328,0.7712,0.7712,0.6654,0.5455,0.5368,0.5309,0.5309,0.5309,0.5309,0.5309,0.5309,0.5309,0.5309,0.5309,0.5309,0.5309,0.5309,0.4402,0.3606,0.3519,0.3506,0.3506,0.3506,0.3336,0.3229,0.3229,0.3229,0.3294,0.3485,0.3436,0.3436,0.3506,0.3385,0.3278,0.3229,0.3089,0.2955,0.2837,0.2886,0.2929,0.2972,0.3109,0.3186,0.3192,0.2902,0.277,0.277,0.2621,0.256,0.169,0.0,0.1293,0.1065,0.1013,0.104,0.0,0.1001,0.0899,0.0899,0.0899,0.0899,0.0899,0.1199,0.1713,0.2526,0.2544,0.0,0.0,0.0,0.0,0.0,0.0,0.0,0.0,0.0,0.0,0.0,0.0,0.0,0.0,0.0,0.0,0.6979,0.6979,0.6979,0.6979,0.6979,0.6979,0.6979,0.6979,0.707,0.7167,0.0,0.0,0.0,0.0,0.0,0.7216,0.707,0.6979,0.6979,0.6979,0.7238,0.7538,0.767,0.7712,0.7628,0.7154,0.6979,0.7063,0.7412,0.7628,0.7712,0.7712,0.7418,0.6939,0.596,0.5498,0.5309,0.5309,0.5309,0.5309,0.5309,0.5309,0.5309,0.5309,0.5309,0.5309,0.5309,0.5057,0.4583,0.3659,0.3506,0.3506,0.3506,0.3464,0.3421,0.3421,0.3421,0.3442,0.3485,0.3485,0.3485,0.3506,0.3464,0.3442,0.3421,0.3302,0.319,0.3117,0.3122,0.3277,0.358,0.3964,0.4132,0.4012,0.36,0.3396,0.3396,0.3247,0.32,0.1604,0.1448,0.1321,0.1421,0.1221,0.0995,0.0995,0.0995,0.0995,0.0995,0.1509,0.1962,0.1962,0.2139,0.2485,0.3093,0.3277,0.0,0.0,0.0,0.0,0.0,0.0,0.0,0.0,0.0,0.0,0.0,0.0,0.0,0.0,0.0,0.0,0.0,0.7076,0.707,0.7021,0.6979,0.6979,0.7021,0.707,0.7118,0.7216,0.0,0.0,0.0,0.0,0.0,0.7307,0.7209,0.7112,0.7021,0.7238,0.7496,0.7712,0.7712,0.7712,0.767,0.7412,0.7328,0.737,0.7628,0.7712,0.7712,0.7712,0.7712,0.7441,0.6146,0.5561,0.5309,0.5309,0.5309,0.5309,0.5309,0.5309,0.5309,0.5309,0.5309,0.5309,0.5309,0.5309,0.5077,0.4442,0.3864,0.3506,0.3506,0.3964,0.4329,0.4329,0.4329,0.4128,0.3566,0.3506,0.3579,0.3758,0.3772,0.3692,0.3519,0.3408,0.3323,0.3239,0.3456,0.3768,0.4205,0.4438,0.4468,0.4343,0.3992,0.3805,0.3746,0.3623,0.3569,0.1604,0.1633,0.1764,0.2173,0.1836,0.1382,0.1211,0.1173,0.1173,0.1173,0.2119,0.3014,0.3178,0.3209,0.0,0.0,0.0,0.0,0.0,0.0,0.0,0.0,0.0,0.0,0.0,0.0,0.0,0.0,0.0,0.0,0.0,0.0,0.0,0.0,0.7216,0.716,0.7063,0.7063,0.7063,0.7063,0.716,0.7251,0.7251,0.737,0.0,0.0,0.0,0.0,0.7349,0.7419,0.7328,0.7154,0.7538,0.7712,0.7712,0.7712,0.7712,0.7719,0.7795,0.7836,0.7878,0.7878,0.7878,0.7878,0.7836,0.7761,0.7441,0.6212,0.5624,0.5372,0.5372,0.5372,0.5372,0.5372,0.5372,0.5372,0.5372,0.5347,0.5309,0.5309,0.5309,0.5309,0.5309,0.4456,0.3772,0.3772,0.4643,0.5309,0.5309,0.5309,0.4903,0.3878,0.3772,0.3904,0.4262,0.4208,0.3991,0.3659,0.3588,0.356,0.3509,0.3935,0.4366,0.4762,0.4778,0.4719,0.4597,0.4372,0.4229,0.4135,0.4031,0.4015,0.1604,0.2251,0.2936,0.3018,0.2957,0.2649,0.1738,0.1523,0.1523,0.1523,0.1697,0.2127,0.0,0.3207,0.3513,0.0,0.0,0.0,0.0,0.0,0.0,0.0,0.0,0.0,0.0,0.0,0.0,0.0,0.0,0.0,0.0,0.0,0.0,0.0,0.0,0.7377,0.7328,0.7328,0.7328,0.7328,0.7377,0.7412,0.744,0.7482,0.753,0.0,0.0,0.7628,0.7635,0.7628,0.7628,0.7587,0.767,0.7712,0.7712,0.7712,0.7712,0.7761,0.8167,0.8529,0.8814,0.8814,0.8814,0.8732,0.8414,0.8002,0.7488,0.6509,0.5967,0.5718,0.5718,0.5718,0.5718,0.5718,0.5718,0.5718,0.5718,0.5498,0.5309,0.5309,0.5309,0.5309,0.5309,0.5161,0.501,0.501,0.5195,0.5309,0.5309,0.5309,0.5242,0.503,0.501,0.5037,0.5127,0.4643,0.4335,0.4275,0.4306,0.4382,0.4473,0.4841,0.5047,0.5125,0.5458,0.558,0.5503,0.5243,0.5137,0.5154,0.497,0.4945,0.1604,0.2388,0.3348,0.3925,0.3633,0.3081,0.2582,0.2473,0.2473,0.2473,0.2473,0.0,0.0,0.0,0.0,0.0,0.0,0.0,0.0,0.0,0.0,0.0,0.0,0.0,0.0,0.0,0.0,0.0,0.0,0.0,0.0,0.0,0.0,0.0,0.0,0.0,0.7545,0.7545,0.7503,0.7419,0.7447,0.7482,0.7523,0.7572,0.7621,0.7712,0.0,0.7712,0.7712,0.7712,0.7712,0.7712,0.7712,0.7712,0.7712,0.7712,0.7712,0.7795,0.8496,0.9177,0.9686,0.9686,0.9686,0.9576,0.8935,0.8242,0.7529,0.6779,0.6468,0.6315,0.6122,0.5936,0.5811,0.5811,0.5811,0.5811,0.5811,0.5529,0.5309,0.5309,0.5309,0.5347,0.5529,0.5718,0.5842,0.5842,0.5842,0.578,0.5592,0.541,0.5309,0.5309,0.5309,0.5309,0.5309,0.503,0.48,0.4581,0.4586,0.4639,0.4698,0.4853,0.5118,0.5516,0.57,0.5787,0.5763,0.5631,0.5522,0.5453,0.5358,0.5365,0.1604,0.2388,0.3403,0.4229,0.4004,0.3585,0.3585,0.3585,0.3585,0.3585,0.3585,0.0,0.0,0.0,0.0,0.0,0.0,0.0,0.0,0.0,0.0,0.0,0.0,0.0,0.0,0.0,0.0,0.0,0.0,0.0,0.0,0.0,0.0,0.0,0.0,0.0,0.7712,0.7712,0.7628,0.7461,0.753,0.7523,0.7572,0.7663,0.7712,0.7712,0.7712,0.7712,0.7712,0.7712,0.7712,0.7712,0.7712,0.7836,0.8002,0.8002,0.8002,0.8126,0.8895,0.9655,1.0283,1.0283,1.0283,1.0166,0.9496,0.8692,0.7841,0.7104,0.6962,0.6924,0.6529,0.6098,0.5811,0.5811,0.5811,0.5811,0.5811,0.5592,0.5404,0.5404,0.5404,0.5561,0.5967,0.6368,0.6612,0.6612,0.6612,0.649,0.6091,0.5686,0.5404,0.5404,0.5404,0.5404,0.5404,0.5561,0.5568,0.5424,0.5157,0.4994,0.4967,0.4967,0.5225,0.5828,0.5842,0.5842,0.5842,0.5842,0.5773,0.5617,0.5617,0.5686,0.1604,0.2388,0.3226,0.3299,0.4016,0.4697,0.4697,0.4697,0.4697,0.4697,0.4697,0.0,0.0,0.0,0.0,0.0,0.0,0.0,0.0,0.0,0.0,0.0,0.0,0.0,0.0,0.0,0.0,0.0,0.0,0.0,0.0,0.0,0.0,0.0,0.0,0.0,0.7712,0.7712,0.7712,0.767,0.767,0.767,0.767,0.7712,0.7712,0.7712,0.7712,0.7712,0.7712,0.7712,0.7712,0.7712,0.7712,0.8201,0.8895,0.8895,0.8895,0.8975,0.9475,0.9941,1.0283,1.0283,1.0283,1.0283,1.0244,0.9607,0.866,0.7494,0.7383,0.749,0.6932,0.6284,0.5811,0.5811,0.5811,0.5811,0.5811,0.578,0.578,0.578,0.578,0.5967,0.6621,0.7223,0.7608,0.7608,0.7608,0.7401,0.6811,0.6153,0.578,0.578,0.578,0.578,0.578,0.6345,0.6936,0.7463,0.649,0.5861,0.5714,0.5714,0.5798,0.599,0.599,0.599,0.599,0.599,0.599,0.5959,0.5959,0.606,0.1604,0.1902,0.237,0.3038,0.3512,0.3992,0.4654,0.4812,0.4812,0.4812,0.4812,0.4812,0.0,0.0,0.0,0.0,0.0,0.0,0.0,0.0,0.0,0.0,0.0,0.0,0.0,0.0,0.0,0.0,0.0,0.0,0.0,0.0,0.0,0.0,0.0,0.0,0.0,0.7712,0.7712,0.7712,0.7712,0.7712,0.7712,0.7795,0.7829,0.7904,0.7961,0.7878,0.7712,0.7712,0.7712,0.7753,0.8283,0.9047,0.9804,0.9804,0.9804,0.9843,1.0019,1.0166,1.0283,1.0283,1.0487,1.0679,1.0679,1.0448,1.0079,0.9635,0.9422,0.8935,0.724,0.6315,0.5842,0.606,0.6284,0.6437,0.6437,0.6437,0.6437,0.6437,0.6437,0.656,0.6966,0.7421,0.7695,0.7695,0.7695,0.7549,0.7095,0.6673,0.6437,0.6437,0.6437,0.6437,0.6437,0.6659,0.6902,0.7143,0.6742,0.6276,0.5811,0.5998,0.6122,0.6183,0.6183,0.6183,0.6183,0.6183,0.6183,0.6183,0.6183,0.6214,0.2017,0.2108,0.2285,0.3026,0.3463,0.3907,0.4642,0.4812,0.4903,0.5244,0.5316,0.5316,0.5316,0.0,0.0,0.0,0.0,0.0,0.0,0.0,0.0,0.0,0.0,0.0,0.0,0.0,0.0,0.0,0.0,0.0,0.0,0.0,0.0,0.0,0.0,0.0,0.0,0.7919,0.7919,0.7919,0.7919,0.7836,0.7712,0.787,0.8028,0.8185,0.8316,0.8283,0.8085,0.7961,0.8002,0.8167,0.8943,0.9655,1.0283,1.0283,1.0283,1.0283,1.0283,1.0283,1.0322,1.0448,1.0679,1.0891,1.0891,1.0891,1.0891,1.0891,1.0603,0.9934,0.8332,0.7172,0.642,0.645,0.6772,0.7074,0.7074,0.7074,0.7074,0.7074,0.7074,0.7134,0.7324,0.7539,0.7695,0.7695,0.7695,0.7608,0.7383,0.7193,0.7074,0.7074,0.7074,0.7074,0.7074,0.6902,0.672,0.6499,0.669,0.659,0.6129,0.6222,0.6315,0.6315,0.6315,0.6315,0.6315,0.6315,0.6315,0.6315,0.6315,0.6315,0.2916,0.3208,0.3208,0.3208,0.4016,0.4812,0.4824,0.4824,0.5128,0.6198,0.6416,0.6416,0.6416,0.0,0.0,0.0,0.0,0.0,0.0,0.0,0.0,0.0,0.0,0.0,0.0,0.0,0.0,0.0,0.0,0.0,0.0,0.0,0.0,0.0,0.0,0.0,0.0,0.8414,0.8414,0.8414,0.8414,0.8167,0.7712,0.7904,0.8185,0.8521,0.8699,0.8878,0.8975,0.8578,0.8659,0.9056,0.9515,0.9941,1.0283,1.0283,1.0283,1.0322,1.0322,1.0322,1.0361,1.0766,1.0891,1.0891,1.0891,1.0891,1.0891,1.0891,1.0603,1.0322,1.0322,0.9039,0.7589,0.694,0.7253,0.7695,0.7695,0.7695,0.7695,0.7695,0.7695,0.7695,0.7695,0.7695,0.7695,0.7695,0.7695,0.7695,0.7695,0.7695,0.7695,0.7695,0.7695,0.7695,0.7695,0.7143,0.6529,0.5842,0.6437,0.6811,0.6811,0.6499,0.6315,0.6315,0.6315,0.6315,0.6315,0.6315,0.6315,0.6315,0.6315,0.6315,0.3123,0.3208,0.3208,0.3208,0.4016,0.5013,0.5766,0.5942,0.6027,0.6349,0.6416,0.6416,0.6416,0.0,0.0,0.0,0.0,0.0,0.0,0.0,0.0,0.0,0.0,0.0,0.0,0.0,0.0,0.0,0.0,0.0,0.0,0.0,0.0,0.0,0.0,0.0,0.0,0.0,0.8822,0.8822,0.8822,0.861,0.8209,0.8472,0.8707,0.9016,0.927,0.9509,0.9765,0.9765,0.9804,0.9922,1.0049,1.0205,1.0283,1.0283,1.0487,1.0728,1.0728,1.0728,1.0728,1.0843,1.0891,1.0891,1.0891,1.0891,1.0891,1.0891,1.0805,1.0728,1.0728,1.0322,0.946,0.7526,0.7392,0.7695,0.7695,0.7695,0.7695,0.7695,0.7695,0.7695,0.7695,0.7695,0.7695,0.7695,0.7695,0.7695,0.7695,0.7695,0.7695,0.7695,0.7695,0.7695,0.7695,0.7333,0.6906,0.6529,0.6885,0.7184,0.7431,0.7116,0.6725,0.6315,0.6315,0.6315,0.6315,0.6315,0.6315,0.6315,0.6315,0.6315,0.3208,0.3208,0.3311,0.3737,0.4332,0.5092,0.6167,0.0,0.0,0.0,0.6416,0.6416,0.0,0.0,0.0,0.0,0.0,0.0,0.0,0.0,0.0,0.0,0.0,0.0,0.0,0.0,0.0,0.0,0.0,0.0,0.0,0.0,0.0,0.0,0.0,0.0,0.0,0.0,0.9266,0.9266,0.9297,0.9177,0.8975,0.9039,0.9239,0.9576,0.9913,1.0186,1.0322,1.0322,1.0283,1.0283,1.0283,1.0283,1.0322,1.0487,1.0679,1.0891,1.0891,1.0891,1.0891,1.0891,1.0891,1.0891,1.0891,1.0891,1.0891,1.0891,1.0891,1.0891,1.0891,1.0891,1.0528,0.9008,0.8707,0.8555,0.7841,0.7695,0.7695,0.7695,0.7812,0.7899,0.7899,0.8478,0.898,0.898,0.8256,0.7695,0.7695,0.7695,0.7695,0.7695,0.7695,0.7695,0.7695,0.751,0.7633,0.817,0.7695,0.7539,0.787,0.7569,0.7175,0.6665,0.6665,0.6665,0.6665,0.6551,0.6437,0.6315,0.6315,0.6315,0.3178,0.3281,0.3585,0.4563,0.4885,0.0,0.6191,0.6416,0.6416,0.6416,0.0,0.0,0.0,0.0,0.0,0.0,0.0,0.0,0.0,0.0,0.0,0.0,0.0,0.0,0.0,0.0,0.0,0.0,0.0,0.0,0.0,0.0,0.0,0.0,0.0,0.0,0.0,0.9753,0.9762,0.0,0.9823,0.9862,0.9902,0.9686,0.9795,1.0196,1.0631,1.0784,1.069,1.0438,1.0322,1.0361,1.0361,1.0361,1.04,1.0766,1.0891,1.0891,1.0891,1.0891,1.0891,1.0891,1.0891,1.0891,1.0891,1.0891,1.0891,1.0891,1.0891,1.0891,1.0891,1.0891,1.0891,1.0891,1.0603,0.9853,0.8269,0.7929,0.7959,0.7989,0.8228,0.8435,0.8435,0.9822,1.0891,1.0843,0.9201,0.7929,0.7929,0.7929,0.7929,0.7929,0.7929,0.7929,0.7929,0.7929,0.8623,1.0186,0.8861,0.8069,0.8197,0.7899,0.7598,0.7285,0.7285,0.7285,0.7285,0.7014,0.6681,0.6315,0.6315,0.6378,0.2977,0.3822,0.0,0.4751,0.5444,0.6131,0.6362,0.6416,0.6416,0.6416,0.0,0.0,0.0,0.0,0.0,0.0,0.0,0.0,0.0,0.0,0.0,0.0,0.0,0.0,0.0,0.0,0.0,0.0,0.0,0.0,0.0,0.0,0.0,0.0,0.0,0.0,1.0176,1.0176,1.0205,0.0,1.0264,1.039,1.0582,1.0283,1.0322,1.0669,1.0746,1.0833,1.0843,1.0631,1.0631,1.0766,1.0766,1.0766,1.0766,1.0891,1.0891,1.0891,1.0891,1.0891,1.0891,1.0891,1.0891,1.0891,1.0891,1.0891,1.0891,1.0891,1.0891,1.0891,1.0891,1.0891,1.0891,1.0891,1.0603,1.0186,0.9814,0.9736,0.9846,1.0148,1.0267,1.034,1.034,1.0623,1.0805,1.0487,1.0046,0.9736,0.9736,0.9736,0.9736,0.9736,0.9736,0.9736,0.9736,0.9736,0.9893,1.0302,1.025,0.962,0.8249,0.813,0.8072,0.7976,0.7976,0.7976,0.7976,0.7666,0.7095,0.6315,0.6315,0.6905,0.2936,0.3615,0.0,0.4685,0.0,0.6416,0.6416,0.6416,0.6453,0.0,0.0,0.0,0.0,0.0,0.0,0.0,0.0,0.0,0.0,0.0,0.0,0.0,0.0,0.0,0.0,0.0,0.0,0.0,0.0,0.0,0.0,0.0,0.0,0.0,0.0,0.9941,1.0283,1.0283,1.0312,1.038,1.0467,1.0621,1.0833,1.0679,1.0679,1.0833,1.0833,1.0881,1.0881,1.0794,1.0794,1.0891,1.0891,1.0891,1.0891,1.0891,1.0891,1.0891,1.0891,1.0891,1.0891,1.0891,1.0891,1.0891,1.0891,1.0891,1.0891,1.0891,1.0891,1.0891,1.0891,1.0891,1.0891,1.0891,1.0728,1.0603,1.0603,1.0603,1.0651,1.0843,1.0891,1.0891,1.0891,1.0891,1.0843,1.0603,1.0603,1.0603,1.0603,1.0603,1.0603,1.0603,1.0603,1.0603,1.0603,1.0603,1.0603,1.0603,1.0766,1.0495,0.9543,0.9501,0.9501,0.9501,0.9501,0.9501,0.9501,0.9124,0.8399,0.732,0.732,0.7712,0.2994,0.3364,0.37,0.4587,0.562,0.0,0.6416,0.6453,0.0,0.0,0.0,0.0,0.0,0.0,0.0,0.0,0.0,0.0,0.0,0.0,0.0,0.0,0.0,0.0,0.0,0.0,0.0,0.0,0.0,0.0,0.0,0.0,0.0,0.0,0.9655,0.9971,1.0283,1.0283,1.0351,1.0418,1.0582,1.0746,1.0891,1.0891,1.0891,1.0891,1.0891,1.0891,1.0891,1.0891,1.0891,1.0891,1.0891,1.0891,1.0891,1.0891,1.0891,1.0891,1.0891,1.0891,1.0891,1.0891,1.0891,1.0891,1.0891,1.0891,1.0891,1.0891,1.0891,1.0891,1.0891,1.0891,1.0891,1.0891,1.0891,1.0891,1.0891,1.0891,1.0891,1.0891,1.0891,1.0891,1.0891,1.0891,1.0891,1.0891,1.0891,1.0891,1.0891,1.0891,1.0891,1.0891,1.0891,1.0891,1.0891,1.0891,1.0891,1.0891,1.0891,1.0891,1.0891,1.0891,1.0891,1.0891,1.0891,1.0891,1.0891,1.0487,0.9646,0.8414,0.8414,0.8414,0.3168,0.0,0.463,0.0,0.562,0.6416,0.0,0.0,0.0,0.0,0.0,0.0,0.0,0.0,0.0,0.0,0.0,0.0,0.0,0.0,0.0,0.0,0.0,0.0,0.0,0.0,0.0,0.0,0.0,0.0,0.0,0.0,0.9168,0.954,0.9843,1.0098,1.0283,1.0283,1.04,1.0582,1.0756,1.0881,1.0891,1.0891,1.0891,1.0891,1.0891,1.0891,1.0891,1.0891,1.0891,1.0891,1.0891,1.0891,1.0891,1.0891,1.0891,1.0891,1.0891,1.0891,1.0891,1.0891,1.0891,1.0891,1.0891,1.0891,1.0891,1.0891,1.0891,1.0891,1.0891,1.0891,1.0891,1.0891,1.0891,1.0891,1.0891,1.0891,1.0891,1.0891,1.0891,1.0891,1.0891,1.0891,1.0891,1.0891,1.0891,1.0891,1.0891,1.0891,1.0891,1.0891,1.0891,1.0891,1.0891,1.0891,1.0891,1.0891,1.0891,1.0891,1.0891,1.0891,1.0891,1.0891,1.0891,1.0891,1.0891,1.0487,0.9646,0.8414,0.8414,0.8414,0.3245,0.4125,0.4812,0.0,0.562,0.6416,0.6416,0.0,0.0,0.0,0.0,0.0,0.0,0.0,0.0,0.0,0.0,0.0,0.0,0.0,0.0,0.0,0.0,0.0,0.0,0.0,0.0,0.0,0.0,0.0,0.0,0.9088,0.9448,0.9804,0.9971,0.0,1.0283,1.0351,1.0467,1.0697,1.0833,1.0891,1.0891,1.0891,1.0891,1.0891,1.0891,1.0891,1.0891,1.0891,1.0891,1.0891,1.0891,1.0891,1.0891,1.0891,1.0891,1.0891,1.0891,1.0891,1.0891,1.0891,1.0891,1.0891,1.0891,1.0891,1.0891,1.0891,1.0891,1.0891,1.0891,1.0891,1.0891,1.0891,1.0891,1.0891,1.0891,1.0891,1.0891,1.0891,1.0891,1.0891,1.0891,1.0891,1.0891,1.0891,1.0891,1.0891,1.0891,1.0891,1.0891,1.0891,1.0891,1.0891,1.0891,1.0891,1.0891,1.0891,1.0891,1.0891,1.0891,1.0891,1.0891,1.0891,1.0891,1.0891,1.0891,1.0487,0.9892,0.9114,0.8862,0.8618,0.3372,0.4178,0.4812,0.4812,0.5414,0.6076,0.0,0.0,0.0,0.0,0.0,0.0,0.0,0.0,0.0,0.0,0.0,0.0,0.0,0.0,0.0,0.0,0.0,0.0,0.0,0.0,0.0,0.0,0.0,0.0,0.9016,0.9408,0.9765,1.0059,1.0127,1.0196,1.0322,1.0428,1.0582,1.0784,1.0881,1.0891,1.0891,1.0891,1.0891,1.0891,1.0891,1.0891,1.0891,1.0891,1.0891,1.0891,1.0891,1.0891,1.0891,1.0891,1.0891,1.0891,1.0891,1.0891,1.0891,1.0891,1.0891,1.0891,1.0891,1.0891,1.0891,1.0891,1.0891,1.0891,1.0891,1.0891,1.0891,1.0891,1.0891,1.0891,1.0891,1.0891,1.0891,1.0891,1.0891,1.0891,1.0891,1.0891,1.0891,1.0891,1.0891,1.0891,1.0891,1.0891,1.0891,1.0891,1.0891,1.0891,1.0891,1.0891,1.0891,1.0891,1.0891,1.0891,1.0891,1.0891,1.0891,1.0891,1.0891,1.0891,1.0891,1.0603,1.0293,0.999,0.9536,0.9016,0.3603,0.433,0.4812,0.4812,0.4855,0.0,0.0,0.0,0.0,0.0,0.0,0.0,0.0,0.0,0.0,0.0,0.0,0.0,0.0,0.0,0.0,0.0,0.0,0.0,0.0,0.0,0.0,0.0,0.0,0.0,0.9177,0.9646,1.0,1.0283,1.0283,1.0312,1.038,1.0659,1.0784,1.0784,1.0881,1.0891,1.0891,1.0891,1.0891,1.0891,1.0891,1.0891,1.0891,1.0891,1.0891,1.0891,1.0891,1.0891,1.0891,1.0891,1.0891,1.0891,1.0891,1.0891,1.0891,1.0891,1.0891,1.0891,1.0891,1.0891,1.0891,1.0891,1.0891,1.0891,1.0891,1.0891,1.0891,1.0891,1.0891,1.0891,1.0891,1.0891,1.0891,1.0891,1.0891,1.0891,1.0891,1.0891,1.0891,1.0891,1.0891,1.0891,1.0891,1.0891,1.0891,1.0891,1.0891,1.0891,1.0891,1.0891,1.0891,1.0891,1.0891,1.0891,1.0891,1.0891,1.0891,1.0891,1.0891,1.0891,1.0891,1.0881,1.0843,1.0843,1.04,0.9567,0.2688,0.346,0.0,0.4005,0.388,0.4113,0.0,0.0,0.0,0.0,0.0,0.0,0.0,0.0,0.0,0.0,0.0,0.0,0.0,0.0,0.0,0.0,0.0,0.0,0.0,0.0,0.0,0.0,0.0,0.0,0.9892,1.0,1.0118,1.0283,1.0351,1.0467,1.0659,1.0736,1.0822,1.0881,1.0881,1.0968,1.1044,1.1071,1.1158,1.1233,1.1185,1.1071,1.0891,1.0891,1.0891,1.0891,1.0891,1.0891,1.093,1.1185,1.1437,1.1638,1.1362,1.112,1.0891,1.0891,1.1071,1.1298,1.1298,1.1298,1.1298,1.1298,1.1298,1.1223,1.0968,1.0891,1.0968,1.1223,1.1071,1.0891,1.0891,1.0891,1.0891,1.0891,1.0891,1.0891,1.0891,1.0891,1.0891,1.0891,1.0891,1.0891,1.0891,1.0891,1.0891,1.0891,1.0891,1.0891,1.0891,1.0891,1.0891,1.0891,1.0891,1.0891,1.0891,1.0891,1.0891,1.0891,1.0891,1.0891,1.0891,1.0891,1.0891,1.0881,1.0487,0.9932,0.2233,0.2792,0.0,0.0,0.0,0.0,0.0,0.0,0.0,0.0,0.0,0.0,0.0,0.0,0.0,0.0,0.0,0.0,0.0,0.0,0.0,0.0,0.0,0.0,0.0,0.0,0.0,0.0,0.0,0.0,1.0283,1.0205,1.0205,1.0312,1.0467,1.0621,1.0784,1.0822,1.0881,1.0891,1.0891,1.0968,1.1158,1.125,1.14,1.1522,1.1474,1.1287,1.1033,1.0919,1.0891,1.0891,1.0891,1.0891,1.0957,1.1511,1.2016,1.2401,1.187,1.1362,1.093,1.1071,1.126,1.1485,1.1485,1.1485,1.1485,1.1485,1.1485,1.1448,1.1185,1.1109,1.1185,1.1448,1.1298,1.1071,1.093,1.0891,1.0891,1.0891,1.0891,1.0891,1.0891,1.0891,1.0891,1.0891,1.0891,1.0891,1.0891,1.0891,1.0891,1.0891,1.0891,1.0891,1.0891,1.0891,1.0891,1.0891,1.0891,1.0891,1.0891,1.0891,1.0891,1.0891,1.0891,1.0891,1.0891,1.0891,1.0891,1.0881,1.0641,1.0293,0.0,0.0,0.0,0.0,0.0,0.0,0.0,0.0,0.0,0.0,0.0,0.0,0.0,0.0,0.0,0.0,0.0,0.0,0.0,0.0,0.0,0.0,0.0,0.0,0.0,0.0,0.0,0.0,0.0,1.0283,1.0283,1.0283,1.0312,1.038,1.0659,1.0784,1.0784,1.0881,1.0891,1.093,1.093,1.1033,1.1223,1.1415,1.1627,1.1811,1.1748,1.1575,1.1287,1.1033,1.0891,1.0891,1.0919,1.0919,1.1033,1.1822,1.2579,1.3094,1.2365,1.1612,1.0995,1.1373,1.1522,1.1485,1.1522,1.1522,1.1522,1.1522,1.1522,1.1522,1.1522,1.1522,1.1522,1.1485,1.1522,1.141,1.1033,1.093,1.0919,1.0891,1.0933,1.0964,1.0964,1.0964,1.0964,1.0964,1.0964,1.0964,1.0964,1.0964,1.0964,1.0964,1.0964,1.0964,1.0964,1.0964,1.0964,1.0964,1.0964,1.0943,1.0891,1.0891,1.0891,1.0891,1.0891,1.0891,1.0891,1.0891,1.0891,1.0891,1.0891,1.0679,0.2403,0.0,0.0,0.0,0.0,0.0,0.0,0.0,0.0,0.0,0.0,0.0,0.0,0.0,0.0,0.0,0.0,0.0,0.0,0.0,0.0,0.0,0.0,0.0,0.0,0.0,0.0,0.0,0.0,1.0283,1.0283,1.0351,1.0428,1.0544,1.0697,1.0822,1.0881,1.0881,1.0968,1.1054,1.1082,1.125,1.1516,1.1811,1.1957,1.2041,1.2305,1.2233,1.1822,1.1174,1.0891,1.093,1.1223,1.1511,1.1859,1.2627,1.3012,1.3163,1.2978,1.2401,1.1796,1.1895,1.1734,1.1549,1.1833,1.2125,1.2389,1.2389,1.2389,1.2305,1.2016,1.1932,1.187,1.156,1.1723,1.1895,1.1785,1.1549,1.126,1.0957,1.1975,1.2875,1.2875,1.2875,1.2875,1.2875,1.2875,1.2875,1.2875,1.2875,1.2875,1.2875,1.2875,1.2875,1.2875,1.2875,1.2875,1.2875,1.2875,1.2285,1.0943,1.0891,1.0891,1.0891,1.0891,1.0891,1.0891,1.0891,1.0891,1.0891,1.0891,1.0679,0.3397,0.3397,0.0,0.0,0.0,0.0,0.0,0.0,0.0,0.0,0.0,0.0,0.0,0.0,0.0,0.0,0.0,0.0,0.0,0.0,0.0,0.0,0.0,0.0,0.0,0.0,0.0,0.0,1.0283,1.0283,1.0283,1.0428,1.0505,1.0582,1.0746,1.0881,1.0891,1.0891,1.0968,1.1158,1.1287,1.1463,1.1664,1.2066,1.2294,1.2377,1.2745,1.2768,1.2508,1.1906,1.1362,1.0957,1.1549,1.2186,1.2861,1.3301,1.3438,1.3438,1.3438,1.3185,1.2791,1.2615,1.2089,1.1597,1.2197,1.2733,1.3163,1.3163,1.3163,1.3082,1.2861,1.2685,1.2365,1.166,1.1954,1.2437,1.2756,1.3235,1.334,1.2507,1.321,1.3952,1.3952,1.3952,1.3952,1.3952,1.3952,1.3952,1.3952,1.3952,1.3952,1.3952,1.3716,1.3621,1.3621,1.3621,1.3621,1.3621,1.3621,1.3144,1.2089,1.2047,1.2047,1.2047,1.1263,1.0891,1.0891,1.0891,1.0891,1.0891,1.0891,1.0679,0.4793,0.4793,0.4793,0.0,0.0,0.0,0.4484,0.4793,0.0,0.0,0.0,0.0,0.0,0.0,0.0,0.0,0.0,0.0,0.0,0.0,0.0,0.0,0.0,0.0,0.0,0.0,0.0,1.0283,1.0283,1.0283,1.0283,1.0505,1.0582,1.0621,1.0833,1.0919,1.0968,1.0957,1.1071,1.126,1.1452,1.159,1.1785,1.2294,1.2591,1.2709,1.306,1.3198,1.3163,1.2885,1.2089,1.1099,1.1895,1.2861,1.3788,1.3788,1.3788,1.3788,1.3788,1.3788,1.3721,1.3335,1.2484,1.1771,1.2532,1.322,1.3788,1.3788,1.3788,1.3788,1.3788,1.3506,1.2955,1.1881,1.2209,1.3017,1.3964,1.5414,1.612,1.4834,1.4466,1.4373,1.4373,1.4373,1.4373,1.4373,1.4373,1.4373,1.4373,1.4373,1.4373,1.4373,1.3952,1.3658,1.3621,1.3621,1.3621,1.3621,1.3621,1.3621,1.3621,1.3621,1.3621,1.3621,1.1799,1.0984,1.119,1.119,1.119,1.119,1.1259,1.095,0.4793,0.4793,0.4793,0.4793,0.0,0.0,0.0,0.4793,0.0,0.0,0.0,0.0,0.0,0.0,0.0,0.0,0.0,0.0,0.0,0.0,0.0,0.0,0.0,0.0,0.0,0.0,1.0283,1.0283,1.0283,1.0283,1.0283,1.0505,1.0621,1.0687,1.0975,1.1185,1.1309,1.1351,1.149,1.1675,1.1675,1.1822,1.2197,1.252,1.2674,1.2709,1.306,1.3198,1.3198,1.3129,1.2615,1.1932,1.2685,1.3335,1.3788,1.3788,1.3788,1.3788,1.3788,1.3788,1.3721,1.3335,1.2885,1.2567,1.299,1.3438,1.3788,1.3788,1.3788,1.3788,1.3788,1.3506,1.3094,1.2591,1.278,1.3709,1.6049,1.6514,1.6306,1.5647,1.4926,1.4373,1.4373,1.4373,1.4373,1.4373,1.4373,1.4373,1.4373,1.4373,1.4373,1.4373,1.4326,1.4093,1.3621,1.3621,1.3621,1.3621,1.3621,1.3621,1.3621,1.3621,1.3621,1.3621,1.1799,1.1644,1.3093,1.3093,1.3093,1.3093,1.3502,1.2659,0.6,0.6,0.6,0.6,0.0,0.0,0.0,0.0,0.0,0.0,0.0,0.0,0.0,0.0,0.0,0.0,0.0,0.0,0.0,0.0,0.0,0.0,0.0,0.0,0.0,0.0,1.0283,1.0283,1.0283,1.0283,1.0283,1.0477,1.0582,1.0582,1.0985,1.1298,1.1437,1.149,1.1553,1.1664,1.1712,1.1895,1.2233,1.2733,1.2955,1.2955,1.3129,1.3198,1.3198,1.3198,1.3082,1.3,1.3369,1.362,1.3788,1.3788,1.3788,1.3788,1.3788,1.3788,1.3754,1.3539,1.3404,1.3267,1.3438,1.3641,1.3788,1.3788,1.3788,1.3788,1.3788,1.3641,1.3472,1.3301,1.4256,1.5569,1.6909,1.7031,1.6778,1.6552,1.6107,1.5668,1.5198,1.488,1.4651,1.4419,1.4373,1.4373,1.4373,1.4373,1.4373,1.4373,1.4373,1.4186,1.3668,1.3621,1.3716,1.3999,1.3763,1.3621,1.3621,1.3621,1.3716,1.3988,1.3128,1.3073,1.3999,1.3999,1.3999,1.3999,1.428,1.3781,0.0,0.0,0.0,0.0,0.0,0.4793,0.0,0.0,0.0,0.0,0.0,0.0,0.0,0.0,0.0,0.0,0.0,0.0,0.0,0.0,0.0,0.0,0.0,0.0,0.0,0.0,1.0039,1.0039,1.0107,1.0156,1.0156,1.0399,1.0554,1.0592,1.1061,1.1389,1.1553,1.1638,1.17,1.1737,1.1811,1.1957,1.2222,1.2908,1.3198,1.3198,1.3198,1.3198,1.3198,1.3198,1.3438,1.3788,1.3788,1.3788,1.3788,1.3788,1.3788,1.3788,1.3788,1.3788,1.3788,1.3788,1.3788,1.3788,1.3788,1.3788,1.3788,1.3788,1.3788,1.3892,1.4324,1.4441,1.4441,1.4441,1.5853,1.7199,1.7199,1.7199,1.7199,1.7199,1.7199,1.6947,1.6219,1.5691,1.5142,1.4512,1.4373,1.4373,1.4373,1.4373,1.4373,1.4373,1.4373,1.4186,1.3668,1.3705,1.3952,1.4373,1.3988,1.3716,1.3621,1.3716,1.3952,1.4384,1.4373,1.4373,1.4373,1.4373,1.4373,1.4373,1.4373,1.4373,0.0,0.0,0.0,0.0,0.599,0.0,0.0,0.0,0.0,0.0,0.0,0.0,0.0,0.0,0.0,0.0,0.0,0.0,0.0,0.0,0.0,0.0,0.0,0.0,0.0,0.0,0.0,0.915,0.9456,0.967,0.967,1.0258,1.0659,1.085,1.1442,1.17,1.1675,1.2136,1.2437,1.2556,1.2222,1.2258,1.2639,1.3025,1.3198,1.3198,1.3198,1.3198,1.3198,1.3198,1.3438,1.3788,1.3788,1.3788,1.3788,1.3788,1.3788,1.3788,1.3788,1.3788,1.3788,1.3788,1.3788,1.3788,1.3788,1.3788,1.3788,1.3788,1.3788,1.4258,1.6284,1.6807,1.6807,1.6807,1.7003,1.7199,1.7199,1.7199,1.7199,1.7199,1.7199,1.7157,1.7073,1.6637,1.5901,1.4605,1.4373,1.4373,1.4373,1.4373,1.4373,1.4373,1.4373,1.4186,1.3668,1.4046,1.4326,1.4373,1.4326,1.4093,1.3621,1.4046,1.4326,1.4373,1.4373,1.4373,1.4373,1.4373,1.4373,1.4373,1.4373,1.4373,0.0,0.0,0.0,0.0,0.0,0.0,0.0,0.0,0.5077,0.0,0.0,0.0,0.0,0.0,0.0,0.0,0.0,0.0,0.0,0.0,0.0,0.0,0.0,0.0,0.0,0.0,0.0,0.0,0.0,0.9401,0.9583,1.0125,1.0582,1.0878,1.17,1.2294,1.2579,1.278,1.292,1.299,1.2838,1.2838,1.299,1.3129,1.3198,1.3198,1.3198,1.3198,1.3198,1.3198,1.3438,1.3788,1.3788,1.3788,1.3788,1.3788,1.3788,1.3788,1.3788,1.3788,1.3788,1.3788,1.3788,1.3788,1.3788,1.3788,1.3788,1.3788,1.4742,1.5983,1.695,1.7199,1.7199,1.7199,1.7199,1.7199,1.7199,1.7199,1.7199,1.7199,1.7199,1.7199,1.7199,1.6808,1.6207,1.5334,1.4971,1.4697,1.4419,1.4373,1.4373,1.4373,1.4373,1.4326,1.4093,1.428,1.4373,1.4373,1.4373,1.428,1.4093,1.428,1.4373,1.4373,1.4373,1.4373,1.4373,1.4373,1.4373,1.4373,1.4373,1.4373,0.9683,0.0,0.0,0.0,0.0,0.0,0.0,0.0,0.0,0.0,0.0,0.0,0.0,0.0,0.0,0.0,0.0,0.0,0.0,0.0,0.0,0.0,0.0,0.0,0.0,0.0,0.0,0.0,0.0,0.0,0.9495,0.9985,1.05,1.0981,1.1884,1.2591,1.306,1.3163,1.3198,1.3198,1.3198,1.3198,1.3198,1.3198,1.3198,1.3198,1.3198,1.3198,1.3198,1.3198,1.3438,1.3853,1.448,1.4716,1.465,1.4023,1.418,1.4716,1.4716,1.431,1.3788,1.3788,1.3788,1.3788,1.3788,1.3788,1.3918,1.4546,1.5918,1.7199,1.7199,1.7199,1.7199,1.7199,1.7199,1.7199,1.7199,1.7199,1.7199,1.7199,1.7199,1.7199,1.7199,1.6905,1.6565,1.6219,1.5768,1.5232,1.4512,1.4373,1.4373,1.4373,1.4373,1.4373,1.4373,1.4373,1.4373,1.4373,1.4373,1.4373,1.4373,1.428,1.4233,1.4373,1.4373,1.4373,1.4373,1.4373,1.4373,1.4373,1.4373,1.4373,0.0,0.0,0.0,0.7607,0.0,0.0,0.0,0.0,0.7229,0.0,0.0,0.0,0.0,0.0,0.7676,0.7627,0.0,0.0,0.0,0.0,0.0,0.0,0.0,0.0,0.0,0.0,0.0,0.0,0.0,0.0,0.9245,0.9813,1.0459,1.126,1.1872,1.2365,1.2709,1.3025,1.3198,1.3198,1.3198,1.3198,1.3198,1.3198,1.3198,1.3198,1.3198,1.3198,1.3198,1.3198,1.3438,1.401,1.6232,1.7094,1.682,1.4598,1.5186,1.7094,1.7094,1.5644,1.3788,1.3788,1.3788,1.3788,1.3788,1.3788,1.4245,1.6467,1.7146,1.7199,1.7199,1.7199,1.7199,1.7199,1.7199,1.7199,1.7199,1.7199,1.7199,1.7199,1.7199,1.7199,1.7199,1.7199,1.7157,1.7157,1.6778,1.5932,1.4558,1.4373,1.4373,1.4373,1.4373,1.4373,1.4373,1.4373,1.4373,1.4373,1.4373,1.4373,1.4373,1.3905,1.3858,1.4384,1.4373,1.4373,1.4373,1.4373,1.4373,1.4373,1.4373,1.4373,0.0,0.0,0.9289,0.7607,0.0,0.0,0.0,0.0,0.0,0.0,0.0,0.0,0.0,0.0,0.7695,0.7695,0.6246,0.0,0.0,0.0,0.0,0.0,0.0,0.0,0.0,0.0,0.0,0.0,0.0,0.0,0.0,0.9647,1.061,1.1019,1.1737,1.233,1.2709,1.3025,1.3198,1.3198,1.3198,1.3198,1.3198,1.3198,1.3198,1.3198,1.3198,1.4024,1.5364,1.5364,1.5643,1.6127,1.6898,1.7199,1.7107,1.6323,1.6532,1.7199,1.7199,1.6702,1.58,1.4284,1.3788,1.3788,1.3788,1.4846,1.6205,1.6977,1.7199,1.7199,1.7199,1.7199,1.7199,1.7199,1.7199,1.7199,1.7199,1.7199,1.7199,1.7199,1.7199,1.7199,1.7199,1.7199,1.7199,1.7199,1.682,1.5988,1.4605,1.4373,1.4373,1.4373,1.4373,1.4373,1.4373,1.4373,1.4373,1.4373,1.4373,1.4373,1.4373,1.4233,1.4186,1.4373,1.4373,1.4373,1.4373,1.4373,1.4373,1.4373,1.4373,1.4373,0.998,0.9793,0.0,0.0,0.7636,0.0,0.7579,0.0,0.0,0.0,0.0,0.0,0.0,0.0,0.8437,0.7793,0.6246,0.5108,0.0,0.0,0.0,0.0,0.0,0.0,0.0,0.0,0.6069,0.6069,0.0,0.0,0.0,0.0,1.0657,1.1319,1.1884,1.2401,1.2803,1.306,1.3198,1.3198,1.3198,1.3198,1.3198,1.3198,1.3198,1.3235,1.4024,1.5164,1.6522,1.6522,1.6693,1.6947,1.6947,1.7031,1.7199,1.7199,1.7199,1.7199,1.7199,1.7199,1.6963,1.5487,1.5003,1.5003,1.5003,1.6023,1.7199,1.7199,1.7199,1.7199,1.7199,1.7199,1.7199,1.7199,1.7199,1.724,1.7406,1.7323,1.7199,1.7199,1.7199,1.7199,1.7199,1.7199,1.7199,1.7199,1.682,1.5988,1.4605,1.4373,1.4373,1.4373,1.4373,1.4373,1.4373,1.4373,1.4373,1.4373,1.4373,1.4373,1.4373,1.4373,1.4373,1.4373,1.4373,1.4373,1.4373,1.4373,1.4373,1.4373,1.4373,1.4373]}]]